Wetterdaten: Montag, 09.12.2019
Datum Zeit Temp. A. Feuchte A. Luftdruck Regen Wind Richtung Richtung Sonnenschein ET UV Solar Taupunkt Windchill Windböen
09.12.2019 00:00 8,4 °C 58 % 1007,5 hPa 0,0 mm 11,9 km/h (2 Bft) W-NW 286 ° 0 min 0,000 mm 0,0 UV-I 0 W/m² 0,6 °C 6,4 °C 16,1 km/h (3 Bft)
09.12.2019 00:01 8,4 °C 58 % 1007,5 hPa 0,0 mm 10,3 km/h (2 Bft) W 273 ° 0 min 0,000 mm 0,0 UV-I 0 W/m² 0,6 °C 6,7 °C 17,7 km/h (3 Bft)
09.12.2019 00:02 8,4 °C 58 % 1007,3 hPa 0,0 mm 17,3 km/h (3 Bft) W-NW 296 ° 0 min 0,000 mm 0,0 UV-I 0 W/m² 0,6 °C 5,7 °C 25,7 km/h (4 Bft)
09.12.2019 00:03 8,4 °C 58 % 1007,4 hPa 0,0 mm 13,9 km/h (3 Bft) W-NW 289 ° 0 min 0,000 mm 0,0 UV-I 0 W/m² 0,6 °C 6,1 °C 19,3 km/h (3 Bft)
09.12.2019 00:04 8,4 °C 58 % 1007,3 hPa 0,0 mm 10,9 km/h (2 Bft) W-NW 285 ° 0 min 0,000 mm 0,0 UV-I 0 W/m² 0,6 °C 6,6 °C 17,7 km/h (3 Bft)
09.12.2019 00:05 8,3 °C 58 % 1007,3 hPa 0,0 mm 13,9 km/h (3 Bft) W-SW 243 ° 0 min 0,000 mm 0,0 UV-I 0 W/m² 0,5 °C 6,0 °C 17,7 km/h (3 Bft)
09.12.2019 00:06 8,3 °C 58 % 1007,3 hPa 0,0 mm 14,6 km/h (3 Bft) W 261 ° 0 min 0,000 mm 0,0 UV-I 0 W/m² 0,5 °C 5,9 °C 16,1 km/h (3 Bft)
09.12.2019 00:07 8,3 °C 58 % 1007,3 hPa 0,0 mm 12,5 km/h (3 Bft) W-NW 297 ° 0 min 0,000 mm 0,0 UV-I 0 W/m² 0,5 °C 6,2 °C 17,7 km/h (3 Bft)
09.12.2019 00:08 8,3 °C 58 % 1007,4 hPa 0,0 mm 9,3 km/h (2 Bft) W-NW 286 ° 0 min 0,000 mm 0,0 UV-I 0 W/m² 0,5 °C 6,7 °C 12,9 km/h (3 Bft)
09.12.2019 00:09 8,3 °C 59 % 1007,3 hPa 0,0 mm 11,0 km/h (2 Bft) W-SW 254 ° 0 min 0,000 mm 0,0 UV-I 0 W/m² 0,8 °C 6,4 °C 16,1 km/h (3 Bft)
09.12.2019 00:10 8,3 °C 59 % 1007,3 hPa 0,0 mm 10,5 km/h (2 Bft) W-SW 246 ° 0 min 0,000 mm 0,0 UV-I 0 W/m² 0,8 °C 6,5 °C 17,7 km/h (3 Bft)
09.12.2019 00:11 8,3 °C 59 % 1007,2 hPa 0,0 mm 13,7 km/h (3 Bft) W 271 ° 0 min 0,000 mm 0,0 UV-I 0 W/m² 0,8 °C 6,0 °C 19,3 km/h (3 Bft)
09.12.2019 00:12 8,3 °C 59 % 1007,2 hPa 0,0 mm 15,0 km/h (3 Bft) W 260 ° 0 min 0,000 mm 0,0 UV-I 0 W/m² 0,8 °C 5,8 °C 20,9 km/h (4 Bft)
09.12.2019 00:13 8,2 °C 59 % 1007,1 hPa 0,0 mm 17,2 km/h (3 Bft) W-NW 284 ° 0 min 0,000 mm 0,0 UV-I 0 W/m² 0,7 °C 5,4 °C 22,5 km/h (4 Bft)
09.12.2019 00:14 8,2 °C 59 % 1007,1 hPa 0,0 mm 10,7 km/h (2 Bft) W 277 ° 0 min 0,000 mm 0,0 UV-I 0 W/m² 0,7 °C 6,4 °C 14,5 km/h (3 Bft)
09.12.2019 00:15 8,2 °C 59 % 1007,2 hPa 0,0 mm 13,0 km/h (3 Bft) W 272 ° 0 min 0,000 mm 0,0 UV-I 0 W/m² 0,7 °C 6,0 °C 17,7 km/h (3 Bft)
09.12.2019 00:16 8,2 °C 59 % 1007,2 hPa 0,0 mm 13,1 km/h (3 Bft) W 267 ° 0 min 0,000 mm 0,0 UV-I 0 W/m² 0,7 °C 6,0 °C 19,3 km/h (3 Bft)
09.12.2019 00:17 8,2 °C 60 % 1007,2 hPa 0,0 mm 14,8 km/h (3 Bft) W 268 ° 0 min 0,000 mm 0,0 UV-I 0 W/m² 0,9 °C 5,7 °C 17,7 km/h (3 Bft)
09.12.2019 00:18 8,2 °C 60 % 1007,1 hPa 0,0 mm 12,9 km/h (3 Bft) W 260 ° 0 min 0,000 mm 0,0 UV-I 0 W/m² 0,9 °C 6,0 °C 16,1 km/h (3 Bft)
09.12.2019 00:19 8,2 °C 60 % 1007,1 hPa 0,0 mm 14,2 km/h (3 Bft) W 261 ° 0 min 0,000 mm 0,0 UV-I 0 W/m² 0,9 °C 5,8 °C 22,5 km/h (4 Bft)
09.12.2019 00:20 8,1 °C 60 % 1007,1 hPa 0,0 mm 17,2 km/h (3 Bft) W-NW 284 ° 0 min 0,000 mm 0,0 UV-I 0 W/m² 0,8 °C 5,3 °C 27,4 km/h (4 Bft)
09.12.2019 00:21 8,2 °C 60 % 1007,0 hPa 0,0 mm 15,6 km/h (3 Bft) W-NW 303 ° 0 min 0,000 mm 0,0 UV-I 0 W/m² 0,9 °C 5,6 °C 27,4 km/h (4 Bft)
09.12.2019 00:22 8,1 °C 60 % 1006,9 hPa 0,0 mm 11,5 km/h (2 Bft) W-NW 293 ° 0 min 0,000 mm 0,0 UV-I 0 W/m² 0,8 °C 6,1 °C 19,3 km/h (3 Bft)
09.12.2019 00:23 8,2 °C 60 % 1006,9 hPa 0,0 mm 11,5 km/h (2 Bft) W 259 ° 0 min 0,000 mm 0,0 UV-I 0 W/m² 0,9 °C 6,2 °C 16,1 km/h (3 Bft)
09.12.2019 00:24 8,2 °C 60 % 1006,8 hPa 0,0 mm 12,7 km/h (3 Bft) W-NW 298 ° 0 min 0,000 mm 0,0 UV-I 0 W/m² 0,9 °C 6,0 °C 19,3 km/h (3 Bft)
09.12.2019 00:25 8,1 °C 60 % 1006,8 hPa 0,0 mm 14,5 km/h (3 Bft) W 279 ° 0 min 0,000 mm 0,0 UV-I 0 W/m² 0,8 °C 5,6 °C 20,9 km/h (4 Bft)
09.12.2019 00:26 8,1 °C 60 % 1006,8 hPa 0,0 mm 18,5 km/h (3 Bft) W 270 ° 0 min 0,000 mm 0,0 UV-I 0 W/m² 0,8 °C 5,1 °C 22,5 km/h (4 Bft)
09.12.2019 00:27 8,2 °C 61 % 1006,8 hPa 0,0 mm 14,9 km/h (3 Bft) W 280 ° 0 min 0,000 mm 0,0 UV-I 0 W/m² 1,1 °C 5,7 °C 20,9 km/h (4 Bft)
09.12.2019 00:28 8,1 °C 61 % 1006,9 hPa 0,0 mm 14,2 km/h (3 Bft) W-SW 250 ° 0 min 0,000 mm 0,0 UV-I 0 W/m² 1,0 °C 5,7 °C 20,9 km/h (4 Bft)
09.12.2019 00:29 8,1 °C 61 % 1006,9 hPa 0,0 mm 14,8 km/h (3 Bft) W 266 ° 0 min 0,000 mm 0,0 UV-I 0 W/m² 1,0 °C 5,6 °C 24,1 km/h (4 Bft)
09.12.2019 00:30 8,1 °C 61 % 1006,9 hPa 0,0 mm 16,1 km/h (3 Bft) NW 306 ° 0 min 0,000 mm 0,0 UV-I 0 W/m² 1,0 °C 5,4 °C 24,1 km/h (4 Bft)
09.12.2019 00:31 8,1 °C 61 % 1006,8 hPa 0,0 mm 11,3 km/h (2 Bft) W-SW 252 ° 0 min 0,000 mm 0,0 UV-I 0 W/m² 1,0 °C 6,1 °C 14,5 km/h (3 Bft)
09.12.2019 00:32 8,1 °C 61 % 1006,8 hPa 0,0 mm 8,2 km/h (2 Bft) W-NW 301 ° 0 min 0,000 mm 0,0 UV-I 0 W/m² 1,0 °C 6,7 °C 11,3 km/h (2 Bft)
09.12.2019 00:33 8,1 °C 61 % 1006,8 hPa 0,0 mm 12,2 km/h (2 Bft) W 276 ° 0 min 0,000 mm 0,0 UV-I 0 W/m² 1,0 °C 6,0 °C 19,3 km/h (3 Bft)
09.12.2019 00:34 8,1 °C 62 % 1006,8 hPa 0,0 mm 12,3 km/h (3 Bft) W-NW 290 ° 0 min 0,000 mm 0,0 UV-I 0 W/m² 1,3 °C 6,0 °C 20,9 km/h (4 Bft)
09.12.2019 00:35 8,1 °C 62 % 1006,9 hPa 0,0 mm 12,9 km/h (3 Bft) W 271 ° 0 min 0,000 mm 0,0 UV-I 0 W/m² 1,3 °C 5,9 °C 20,9 km/h (4 Bft)
09.12.2019 00:36 8,1 °C 62 % 1006,8 hPa 0,0 mm 15,5 km/h (3 Bft) W-NW 284 ° 0 min 0,000 mm 0,0 UV-I 0 W/m² 1,3 °C 5,5 °C 20,9 km/h (4 Bft)
09.12.2019 00:37 8,0 °C 62 % 1006,7 hPa 0,0 mm 12,0 km/h (2 Bft) W-NW 289 ° 0 min 0,000 mm 0,0 UV-I 0 W/m² 1,2 °C 5,9 °C 16,1 km/h (3 Bft)
09.12.2019 00:38 8,0 °C 62 % 1006,8 hPa 0,0 mm 14,9 km/h (3 Bft) W 271 ° 0 min 0,000 mm 0,0 UV-I 0 W/m² 1,2 °C 5,5 °C 19,3 km/h (3 Bft)
09.12.2019 00:39 8,0 °C 63 % 1006,8 hPa 0,0 mm 13,4 km/h (3 Bft) W 261 ° 0 min 0,000 mm 0,0 UV-I 0 W/m² 1,4 °C 5,7 °C 16,1 km/h (3 Bft)
09.12.2019 00:40 7,9 °C 63 % 1006,8 hPa 0,0 mm 13,7 km/h (3 Bft) W-NW 294 ° 0 min 0,000 mm 0,0 UV-I 0 W/m² 1,3 °C 5,5 °C 27,4 km/h (4 Bft)
09.12.2019 00:41 7,9 °C 63 % 1006,8 hPa 0,0 mm 20,2 km/h (4 Bft) W-NW 300 ° 0 min 0,000 mm 0,0 UV-I 0 W/m² 1,3 °C 4,7 °C 27,4 km/h (4 Bft)
09.12.2019 00:42 7,9 °C 63 % 1006,8 hPa 0,0 mm 16,8 km/h (3 Bft) W 276 ° 0 min 0,000 mm 0,0 UV-I 0 W/m² 1,3 °C 5,1 °C 24,1 km/h (4 Bft)
09.12.2019 00:43 7,9 °C 63 % 1006,8 hPa 0,0 mm 14,6 km/h (3 Bft) W-NW 303 ° 0 min 0,000 mm 0,0 UV-I 0 W/m² 1,3 °C 5,4 °C 19,3 km/h (3 Bft)
09.12.2019 00:44 7,9 °C 63 % 1006,8 hPa 0,0 mm 16,3 km/h (3 Bft) W 265 ° 0 min 0,000 mm 0,0 UV-I 0 W/m² 1,3 °C 5,2 °C 20,9 km/h (4 Bft)
09.12.2019 00:45 7,9 °C 63 % 1006,8 hPa 0,0 mm 15,2 km/h (3 Bft) NW 304 ° 0 min 0,000 mm 0,0 UV-I 0 W/m² 1,3 °C 5,3 °C 19,3 km/h (3 Bft)
09.12.2019 00:46 7,9 °C 63 % 1006,9 hPa 0,0 mm 14,1 km/h (3 Bft) W 274 ° 0 min 0,000 mm 0,0 UV-I 0 W/m² 1,3 °C 5,4 °C 20,9 km/h (4 Bft)
09.12.2019 00:47 7,8 °C 63 % 1006,9 hPa 0,0 mm 15,6 km/h (3 Bft) W-SW 248 ° 0 min 0,000 mm 0,0 UV-I 0 W/m² 1,2 °C 5,1 °C 22,5 km/h (4 Bft)
09.12.2019 00:48 7,8 °C 63 % 1006,9 hPa 0,0 mm 17,6 km/h (3 Bft) W 269 ° 0 min 0,000 mm 0,0 UV-I 0 W/m² 1,2 °C 4,9 °C 20,9 km/h (4 Bft)
09.12.2019 00:49 7,8 °C 63 % 1006,9 hPa 0,0 mm 14,7 km/h (3 Bft) W 259 ° 0 min 0,000 mm 0,0 UV-I 0 W/m² 1,2 °C 5,2 °C 20,9 km/h (4 Bft)
09.12.2019 00:50 7,8 °C 63 % 1006,9 hPa 0,0 mm 12,9 km/h (3 Bft) W 260 ° 0 min 0,000 mm 0,0 UV-I 0 W/m² 1,2 °C 5,5 °C 16,1 km/h (3 Bft)
09.12.2019 00:51 7,8 °C 64 % 1006,9 hPa 0,0 mm 15,0 km/h (3 Bft) W-NW 292 ° 0 min 0,000 mm 0,0 UV-I 0 W/m² 1,4 °C 5,2 °C 20,9 km/h (4 Bft)
09.12.2019 00:52 7,8 °C 63 % 1006,9 hPa 0,0 mm 15,3 km/h (3 Bft) W 269 ° 0 min 0,000 mm 0,0 UV-I 0 W/m² 1,2 °C 5,2 °C 20,9 km/h (4 Bft)
09.12.2019 00:53 7,8 °C 64 % 1006,9 hPa 0,0 mm 12,4 km/h (3 Bft) W 271 ° 0 min 0,000 mm 0,0 UV-I 0 W/m² 1,4 °C 5,6 °C 17,7 km/h (3 Bft)
09.12.2019 00:54 7,8 °C 64 % 1006,9 hPa 0,0 mm 13,8 km/h (3 Bft) W-SW 258 ° 0 min 0,000 mm 0,0 UV-I 0 W/m² 1,4 °C 5,4 °C 17,7 km/h (3 Bft)
09.12.2019 00:55 7,7 °C 64 % 1006,7 hPa 0,0 mm 16,3 km/h (3 Bft) SW 225 ° 0 min 0,000 mm 0,0 UV-I 0 W/m² 1,3 °C 4,9 °C 24,1 km/h (4 Bft)
09.12.2019 00:56 7,7 °C 64 % 1006,8 hPa 0,0 mm 14,7 km/h (3 Bft) W 263 ° 0 min 0,000 mm 0,0 UV-I 0 W/m² 1,3 °C 5,1 °C 20,9 km/h (4 Bft)
09.12.2019 00:57 7,7 °C 64 % 1006,7 hPa 0,0 mm 13,5 km/h (3 Bft) W 269 ° 0 min 0,000 mm 0,0 UV-I 0 W/m² 1,3 °C 5,3 °C 22,5 km/h (4 Bft)
09.12.2019 00:58 7,7 °C 64 % 1006,6 hPa 0,0 mm 11,9 km/h (2 Bft) W-SW 253 ° 0 min 0,000 mm 0,0 UV-I 0 W/m² 1,3 °C 5,5 °C 17,7 km/h (3 Bft)
09.12.2019 00:59 7,7 °C 65 % 1006,6 hPa 0,0 mm 7,1 km/h (2 Bft) S-SW 196 ° 0 min 0,000 mm 0,0 UV-I 0 W/m² 1,5 °C 6,5 °C 11,3 km/h (2 Bft)
09.12.2019 01:00 7,7 °C 65 % 1006,5 hPa 0,0 mm 9,7 km/h (2 Bft) W 265 ° 0 min 0,051 mm 0,0 UV-I 0 W/m² 1,5 °C 5,9 °C 16,1 km/h (3 Bft)
09.12.2019 01:01 7,7 °C 65 % 1006,5 hPa 0,0 mm 11,7 km/h (2 Bft) W-SW 254 ° 0 min 0,000 mm 0,0 UV-I 0 W/m² 1,5 °C 5,6 °C 17,7 km/h (3 Bft)
09.12.2019 01:02 7,7 °C 65 % 1006,5 hPa 0,0 mm 11,1 km/h (2 Bft) W 279 ° 0 min 0,000 mm 0,0 UV-I 0 W/m² 1,5 °C 5,7 °C 16,1 km/h (3 Bft)
09.12.2019 01:03 7,7 °C 65 % 1006,5 hPa 0,0 mm 11,5 km/h (2 Bft) SW 229 ° 0 min 0,000 mm 0,0 UV-I 0 W/m² 1,5 °C 5,6 °C 19,3 km/h (3 Bft)
09.12.2019 01:04 7,7 °C 65 % 1006,5 hPa 0,0 mm 13,2 km/h (3 Bft) W-NW 286 ° 0 min 0,000 mm 0,0 UV-I 0 W/m² 1,5 °C 5,3 °C 16,1 km/h (3 Bft)
09.12.2019 01:05 7,6 °C 65 % 1006,5 hPa 0,0 mm 10,2 km/h (2 Bft) W-NW 292 ° 0 min 0,000 mm 0,0 UV-I 0 W/m² 1,5 °C 5,7 °C 12,9 km/h (3 Bft)
09.12.2019 01:06 7,6 °C 65 % 1006,6 hPa 0,0 mm 9,1 km/h (2 Bft) W-NW 286 ° 0 min 0,000 mm 0,0 UV-I 0 W/m² 1,5 °C 5,9 °C 14,5 km/h (3 Bft)
09.12.2019 01:07 7,6 °C 65 % 1006,6 hPa 0,0 mm 5,5 km/h (1 Bft) W 276 ° 0 min 0,000 mm 0,0 UV-I 0 W/m² 1,5 °C 6,9 °C 11,3 km/h (2 Bft)
09.12.2019 01:08 7,6 °C 65 % 1006,6 hPa 0,0 mm 5,9 km/h (2 Bft) W 277 ° 0 min 0,000 mm 0,0 UV-I 0 W/m² 1,5 °C 6,7 °C 11,3 km/h (2 Bft)
09.12.2019 01:09 7,6 °C 65 % 1006,5 hPa 0,0 mm 5,9 km/h (2 Bft) W 268 ° 0 min 0,000 mm 0,0 UV-I 0 W/m² 1,5 °C 6,7 °C 11,3 km/h (2 Bft)
09.12.2019 01:10 7,6 °C 65 % 1006,5 hPa 0,0 mm 4,0 km/h (1 Bft) W-NW 303 ° 0 min 0,000 mm 0,0 UV-I 0 W/m² 1,5 °C 7,6 °C 6,4 km/h (2 Bft)
09.12.2019 01:11 7,6 °C 65 % 1006,5 hPa 0,0 mm 5,0 km/h (1 Bft) W-NW 289 ° 0 min 0,000 mm 0,0 UV-I 0 W/m² 1,5 °C 7,0 °C 9,7 km/h (2 Bft)
09.12.2019 01:12 7,5 °C 66 % 1006,5 hPa 0,0 mm 5,7 km/h (1 Bft) W-SW 253 ° 0 min 0,000 mm 0,0 UV-I 0 W/m² 1,6 °C 6,7 °C 9,7 km/h (2 Bft)
09.12.2019 01:13 7,4 °C 66 % 1006,5 hPa 0,0 mm 3,8 km/h (1 Bft) W-SW 254 ° 0 min 0,000 mm 0,0 UV-I 0 W/m² 1,5 °C 7,4 °C 6,4 km/h (2 Bft)
09.12.2019 01:14 7,4 °C 66 % 1006,6 hPa 0,0 mm 5,1 km/h (1 Bft) W-SW 247 ° 0 min 0,000 mm 0,0 UV-I 0 W/m² 1,5 °C 6,8 °C 11,3 km/h (2 Bft)
09.12.2019 01:15 7,4 °C 66 % 1006,7 hPa 0,0 mm 4,0 km/h (1 Bft) W-SW 252 ° 0 min 0,000 mm 0,0 UV-I 0 W/m² 1,5 °C 7,4 °C 8,0 km/h (2 Bft)
09.12.2019 01:16 7,4 °C 65 % 1006,7 hPa 0,0 mm 3,7 km/h (1 Bft) W-SW 257 ° 0 min 0,000 mm 0,0 UV-I 0 W/m² 1,3 °C 7,4 °C 4,8 km/h (1 Bft)
09.12.2019 01:17 7,4 °C 65 % 1006,6 hPa 0,0 mm 2,9 km/h (1 Bft) W-SW 257 ° 0 min 0,000 mm 0,0 UV-I 0 W/m² 1,3 °C 7,4 °C 4,8 km/h (1 Bft)
09.12.2019 01:18 7,4 °C 65 % 1006,6 hPa 0,0 mm 2,1 km/h (1 Bft) W-SW 257 ° 0 min 0,000 mm 0,0 UV-I 0 W/m² 1,3 °C 7,4 °C 4,8 km/h (1 Bft)
09.12.2019 01:19 7,4 °C 65 % 1006,6 hPa 0,0 mm 6,4 km/h (2 Bft) S-SW 205 ° 0 min 0,000 mm 0,0 UV-I 0 W/m² 1,3 °C 6,4 °C 14,5 km/h (3 Bft)
09.12.2019 01:20 7,4 °C 65 % 1006,7 hPa 0,0 mm 6,5 km/h (2 Bft) W 268 ° 0 min 0,000 mm 0,0 UV-I 0 W/m² 1,3 °C 6,3 °C 9,7 km/h (2 Bft)
09.12.2019 01:21 7,4 °C 65 % 1006,7 hPa 0,0 mm 10,6 km/h (2 Bft) W 259 ° 0 min 0,000 mm 0,0 UV-I 0 W/m² 1,3 °C 5,4 °C 14,5 km/h (3 Bft)
09.12.2019 01:22 7,4 °C 65 % 1006,7 hPa 0,0 mm 9,1 km/h (2 Bft) W 261 ° 0 min 0,000 mm 0,0 UV-I 0 W/m² 1,3 °C 5,7 °C 12,9 km/h (3 Bft)
09.12.2019 01:23 7,4 °C 65 % 1006,7 hPa 0,0 mm 10,6 km/h (2 Bft) W 259 ° 0 min 0,000 mm 0,0 UV-I 0 W/m² 1,3 °C 5,4 °C 12,9 km/h (3 Bft)
09.12.2019 01:24 7,4 °C 65 % 1006,7 hPa 0,0 mm 5,8 km/h (2 Bft) W-SW 251 ° 0 min 0,000 mm 0,0 UV-I 0 W/m² 1,3 °C 6,5 °C 11,3 km/h (2 Bft)
09.12.2019 01:25 7,4 °C 65 % 1006,7 hPa 0,0 mm 10,9 km/h (2 Bft) S-SW 201 ° 0 min 0,000 mm 0,0 UV-I 0 W/m² 1,3 °C 5,4 °C 16,1 km/h (3 Bft)
09.12.2019 01:26 7,4 °C 65 % 1006,7 hPa 0,0 mm 7,1 km/h (2 Bft) W-SW 251 ° 0 min 0,000 mm 0,0 UV-I 0 W/m² 1,3 °C 6,2 °C 11,3 km/h (2 Bft)
09.12.2019 01:27 7,4 °C 65 % 1006,7 hPa 0,0 mm 6,0 km/h (2 Bft) W-SW 245 ° 0 min 0,000 mm 0,0 UV-I 0 W/m² 1,3 °C 6,5 °C 11,3 km/h (2 Bft)
09.12.2019 01:28 7,4 °C 65 % 1006,7 hPa 0,0 mm 12,7 km/h (3 Bft) W-SW 244 ° 0 min 0,000 mm 0,0 UV-I 0 W/m² 1,3 °C 5,1 °C 17,7 km/h (3 Bft)
09.12.2019 01:29 7,4 °C 65 % 1006,6 hPa 0,0 mm 7,4 km/h (2 Bft) W 262 ° 0 min 0,000 mm 0,0 UV-I 0 W/m² 1,3 °C 6,1 °C 12,9 km/h (3 Bft)
09.12.2019 01:30 7,4 °C 65 % 1006,6 hPa 0,0 mm 7,8 km/h (2 Bft) W-SW 240 ° 0 min 0,000 mm 0,0 UV-I 0 W/m² 1,3 °C 6,0 °C 12,9 km/h (3 Bft)
09.12.2019 01:31 7,4 °C 65 % 1006,6 hPa 0,0 mm 6,7 km/h (2 Bft) S-SW 198 ° 0 min 0,000 mm 0,0 UV-I 0 W/m² 1,3 °C 6,3 °C 9,7 km/h (2 Bft)
09.12.2019 01:32 7,4 °C 65 % 1006,5 hPa 0,0 mm 11,1 km/h (2 Bft) W 261 ° 0 min 0,000 mm 0,0 UV-I 0 W/m² 1,3 °C 5,3 °C 17,7 km/h (3 Bft)
09.12.2019 01:33 7,4 °C 65 % 1006,6 hPa 0,0 mm 6,6 km/h (2 Bft) W-SW 257 ° 0 min 0,000 mm 0,0 UV-I 0 W/m² 1,3 °C 6,3 °C 12,9 km/h (3 Bft)
09.12.2019 01:34 7,5 °C 65 % 1006,6 hPa 0,0 mm 5,2 km/h (1 Bft) SW 227 ° 0 min 0,000 mm 0,0 UV-I 0 W/m² 1,4 °C 6,9 °C 8,0 km/h (2 Bft)
09.12.2019 01:35 7,6 °C 65 % 1006,6 hPa 0,0 mm 9,1 km/h (2 Bft) W 263 ° 0 min 0,000 mm 0,0 UV-I 0 W/m² 1,5 °C 5,9 °C 16,1 km/h (3 Bft)
09.12.2019 01:36 7,6 °C 65 % 1006,6 hPa 0,0 mm 9,5 km/h (2 Bft) SW 218 ° 0 min 0,000 mm 0,0 UV-I 0 W/m² 1,5 °C 5,9 °C 12,9 km/h (3 Bft)
09.12.2019 01:37 7,6 °C 65 % 1006,6 hPa 0,0 mm 8,4 km/h (2 Bft) S-SW 205 ° 0 min 0,000 mm 0,0 UV-I 0 W/m² 1,5 °C 6,1 °C 14,5 km/h (3 Bft)
09.12.2019 01:38 7,6 °C 66 % 1006,4 hPa 0,0 mm 11,6 km/h (2 Bft) W-SW 252 ° 0 min 0,000 mm 0,0 UV-I 0 W/m² 1,7 °C 5,5 °C 14,5 km/h (3 Bft)
09.12.2019 01:39 7,6 °C 66 % 1006,5 hPa 0,0 mm 8,4 km/h (2 Bft) W-SW 246 ° 0 min 0,000 mm 0,0 UV-I 0 W/m² 1,7 °C 6,1 °C 11,3 km/h (2 Bft)
09.12.2019 01:40 7,6 °C 66 % 1006,5 hPa 0,0 mm 7,4 km/h (2 Bft) W 260 ° 0 min 0,000 mm 0,0 UV-I 0 W/m² 1,7 °C 6,3 °C 14,5 km/h (3 Bft)
09.12.2019 01:41 7,6 °C 66 % 1006,5 hPa 0,0 mm 10,3 km/h (2 Bft) W 261 ° 0 min 0,000 mm 0,0 UV-I 0 W/m² 1,7 °C 5,7 °C 14,5 km/h (3 Bft)
09.12.2019 01:42 7,6 °C 66 % 1006,6 hPa 0,0 mm 10,2 km/h (2 Bft) W-SW 255 ° 0 min 0,000 mm 0,0 UV-I 0 W/m² 1,7 °C 5,7 °C 14,5 km/h (3 Bft)
09.12.2019 01:43 7,6 °C 67 % 1006,6 hPa 0,0 mm 11,2 km/h (2 Bft) W-SW 252 ° 0 min 0,000 mm 0,0 UV-I 0 W/m² 1,9 °C 5,5 °C 14,5 km/h (3 Bft)
09.12.2019 01:44 7,6 °C 67 % 1006,5 hPa 0,0 mm 11,5 km/h (2 Bft) W 262 ° 0 min 0,000 mm 0,0 UV-I 0 W/m² 1,9 °C 5,5 °C 19,3 km/h (3 Bft)
09.12.2019 01:45 7,6 °C 67 % 1006,5 hPa 0,0 mm 8,3 km/h (2 Bft) W-SW 243 ° 0 min 0,000 mm 0,0 UV-I 0 W/m² 1,9 °C 6,1 °C 11,3 km/h (2 Bft)
09.12.2019 01:46 7,6 °C 67 % 1006,6 hPa 0,0 mm 7,0 km/h (2 Bft) W-SW 254 ° 0 min 0,000 mm 0,0 UV-I 0 W/m² 1,9 °C 6,4 °C 11,3 km/h (2 Bft)
09.12.2019 01:47 7,6 °C 67 % 1006,6 hPa 0,0 mm 6,5 km/h (2 Bft) W-SW 251 ° 0 min 0,000 mm 0,0 UV-I 0 W/m² 1,9 °C 6,6 °C 12,9 km/h (3 Bft)
09.12.2019 01:48 7,6 °C 67 % 1006,6 hPa 0,0 mm 7,6 km/h (2 Bft) SW 235 ° 0 min 0,000 mm 0,0 UV-I 0 W/m² 1,9 °C 6,3 °C 19,3 km/h (3 Bft)
09.12.2019 01:49 7,6 °C 67 % 1006,6 hPa 0,0 mm 13,1 km/h (3 Bft) W 267 ° 0 min 0,000 mm 0,0 UV-I 0 W/m² 1,9 °C 5,2 °C 17,7 km/h (3 Bft)
09.12.2019 01:50 7,6 °C 67 % 1006,7 hPa 0,0 mm 7,1 km/h (2 Bft) W 263 ° 0 min 0,000 mm 0,0 UV-I 0 W/m² 1,9 °C 6,4 °C 11,3 km/h (2 Bft)
09.12.2019 01:51 7,6 °C 67 % 1006,7 hPa 0,0 mm 7,5 km/h (2 Bft) W 279 ° 0 min 0,000 mm 0,0 UV-I 0 W/m² 1,9 °C 6,3 °C 9,7 km/h (2 Bft)
09.12.2019 01:52 7,6 °C 67 % 1006,7 hPa 0,0 mm 9,6 km/h (2 Bft) SW 223 ° 0 min 0,000 mm 0,0 UV-I 0 W/m² 1,9 °C 5,8 °C 12,9 km/h (3 Bft)
09.12.2019 01:53 7,6 °C 67 % 1006,8 hPa 0,0 mm 5,0 km/h (1 Bft) W-SW 257 ° 0 min 0,000 mm 0,0 UV-I 0 W/m² 1,9 °C 7,0 °C 11,3 km/h (2 Bft)
09.12.2019 01:54 7,6 °C 67 % 1006,8 hPa 0,0 mm 7,4 km/h (2 Bft) W 261 ° 0 min 0,000 mm 0,0 UV-I 0 W/m² 1,9 °C 6,3 °C 12,9 km/h (3 Bft)
09.12.2019 01:55 7,6 °C 67 % 1006,8 hPa 0,0 mm 10,7 km/h (2 Bft) W 269 ° 0 min 0,000 mm 0,0 UV-I 0 W/m² 1,9 °C 5,6 °C 16,1 km/h (3 Bft)
09.12.2019 01:56 7,6 °C 67 % 1006,9 hPa 0,0 mm 13,1 km/h (3 Bft) W 269 ° 0 min 0,000 mm 0,0 UV-I 0 W/m² 1,9 °C 5,2 °C 16,1 km/h (3 Bft)
09.12.2019 01:57 7,6 °C 67 % 1006,9 hPa 0,0 mm 10,5 km/h (2 Bft) W-SW 251 ° 0 min 0,000 mm 0,0 UV-I 0 W/m² 1,9 °C 5,7 °C 14,5 km/h (3 Bft)
09.12.2019 01:58 7,6 °C 67 % 1006,9 hPa 0,0 mm 9,3 km/h (2 Bft) W-SW 257 ° 0 min 0,000 mm 0,0 UV-I 0 W/m² 1,9 °C 5,9 °C 12,9 km/h (3 Bft)
09.12.2019 01:59 7,6 °C 67 % 1006,9 hPa 0,0 mm 12,5 km/h (3 Bft) W 259 ° 0 min 0,000 mm 0,0 UV-I 0 W/m² 1,9 °C 5,3 °C 16,1 km/h (3 Bft)
09.12.2019 02:00 7,6 °C 67 % 1006,9 hPa 0,0 mm 9,1 km/h (2 Bft) W 271 ° 0 min 0,051 mm 0,0 UV-I 0 W/m² 1,9 °C 5,9 °C 14,5 km/h (3 Bft)
09.12.2019 02:01 7,6 °C 68 % 1006,9 hPa 0,0 mm 14,4 km/h (3 Bft) W-NW 302 ° 0 min 0,000 mm 0,0 UV-I 0 W/m² 2,1 °C 5,0 °C 22,5 km/h (4 Bft)
09.12.2019 02:02 7,6 °C 68 % 1006,9 hPa 0,0 mm 17,4 km/h (3 Bft) W 275 ° 0 min 0,000 mm 0,0 UV-I 0 W/m² 2,1 °C 4,6 °C 20,9 km/h (4 Bft)
09.12.2019 02:03 7,6 °C 69 % 1006,9 hPa 0,0 mm 16,0 km/h (3 Bft) W 268 ° 0 min 0,000 mm 0,0 UV-I 0 W/m² 2,3 °C 4,8 °C 22,5 km/h (4 Bft)
09.12.2019 02:04 7,6 °C 69 % 1006,9 hPa 0,0 mm 7,1 km/h (2 Bft) W 279 ° 0 min 0,000 mm 0,0 UV-I 0 W/m² 2,3 °C 6,4 °C 11,3 km/h (2 Bft)
09.12.2019 02:05 7,6 °C 69 % 1006,8 hPa 0,0 mm 11,5 km/h (2 Bft) W-NW 286 ° 0 min 0,000 mm 0,0 UV-I 0 W/m² 2,3 °C 5,5 °C 14,5 km/h (3 Bft)
09.12.2019 02:06 7,6 °C 69 % 1007,0 hPa 0,0 mm 9,1 km/h (2 Bft) W 273 ° 0 min 0,000 mm 0,0 UV-I 0 W/m² 2,3 °C 5,9 °C 12,9 km/h (3 Bft)
09.12.2019 02:07 7,6 °C 70 % 1007,0 hPa 0,0 mm 15,4 km/h (3 Bft) W 269 ° 0 min 0,000 mm 0,0 UV-I 0 W/m² 2,5 °C 4,9 °C 30,6 km/h (5 Bft)
09.12.2019 02:08 7,7 °C 70 % 1007,0 hPa 0,0 mm 24,6 km/h (4 Bft) W-SW 250 ° 0 min 0,000 mm 0,0 UV-I 0 W/m² 2,6 °C 4,0 °C 32,2 km/h (5 Bft)
09.12.2019 02:09 7,7 °C 70 % 1007,0 hPa 0,0 mm 17,1 km/h (3 Bft) W 271 ° 0 min 0,000 mm 0,0 UV-I 0 W/m² 2,6 °C 4,8 °C 24,1 km/h (4 Bft)
09.12.2019 02:10 7,8 °C 70 % 1007,0 hPa 0,0 mm 16,4 km/h (3 Bft) W-NW 290 ° 0 min 0,000 mm 0,0 UV-I 0 W/m² 2,7 °C 5,0 °C 29,0 km/h (5 Bft)
09.12.2019 02:11 7,8 °C 70 % 1007,0 hPa 0,0 mm 14,7 km/h (3 Bft) W 261 ° 0 min 0,000 mm 0,0 UV-I 0 W/m² 2,7 °C 5,2 °C 20,9 km/h (4 Bft)
09.12.2019 02:12 7,8 °C 70 % 1007,1 hPa 0,0 mm 13,0 km/h (3 Bft) W 281 ° 0 min 0,000 mm 0,0 UV-I 0 W/m² 2,7 °C 5,5 °C 17,7 km/h (3 Bft)
09.12.2019 02:13 7,9 °C 70 % 1007,1 hPa 0,0 mm 11,9 km/h (2 Bft) W-NW 287 ° 0 min 0,000 mm 0,0 UV-I 0 W/m² 2,8 °C 5,8 °C 16,1 km/h (3 Bft)
09.12.2019 02:14 7,9 °C 70 % 1007,1 hPa 0,0 mm 14,8 km/h (3 Bft) W-NW 300 ° 0 min 0,000 mm 0,0 UV-I 0 W/m² 2,8 °C 5,4 °C 17,7 km/h (3 Bft)
09.12.2019 02:15 8,0 °C 71 % 1007,0 hPa 0,0 mm 15,1 km/h (3 Bft) W 259 ° 0 min 0,000 mm 0,0 UV-I 0 W/m² 3,1 °C 5,4 °C 19,3 km/h (3 Bft)
09.12.2019 02:16 8,0 °C 71 % 1007,1 hPa 0,0 mm 14,1 km/h (3 Bft) W-SW 252 ° 0 min 0,000 mm 0,0 UV-I 0 W/m² 3,1 °C 5,6 °C 19,3 km/h (3 Bft)
09.12.2019 02:17 8,1 °C 70 % 1007,1 hPa 0,0 mm 12,4 km/h (3 Bft) W-NW 290 ° 0 min 0,000 mm 0,0 UV-I 0 W/m² 3,0 °C 5,9 °C 16,1 km/h (3 Bft)
09.12.2019 02:18 8,1 °C 70 % 1007,1 hPa 0,0 mm 11,7 km/h (2 Bft) W-NW 284 ° 0 min 0,000 mm 0,0 UV-I 0 W/m² 3,0 °C 6,1 °C 16,1 km/h (3 Bft)
09.12.2019 02:19 8,1 °C 70 % 1007,1 hPa 0,0 mm 14,2 km/h (3 Bft) W-SW 240 ° 0 min 0,000 mm 0,0 UV-I 0 W/m² 3,0 °C 5,7 °C 27,4 km/h (4 Bft)
09.12.2019 02:20 8,2 °C 70 % 1007,1 hPa 0,0 mm 24,7 km/h (4 Bft) W-SW 257 ° 0 min 0,000 mm 0,0 UV-I 0 W/m² 3,1 °C 4,7 °C 35,4 km/h (5 Bft)
09.12.2019 02:21 8,2 °C 70 % 1007,1 hPa 0,0 mm 21,8 km/h (4 Bft) W 277 ° 0 min 0,000 mm 0,0 UV-I 0 W/m² 3,1 °C 4,9 °C 33,8 km/h (5 Bft)
09.12.2019 02:22 8,3 °C 70 % 1007,1 hPa 0,0 mm 19,5 km/h (3 Bft) W-SW 252 ° 0 min 0,000 mm 0,0 UV-I 0 W/m² 3,2 °C 5,3 °C 27,4 km/h (4 Bft)
09.12.2019 02:23 8,3 °C 70 % 1007,2 hPa 0,0 mm 17,8 km/h (3 Bft) W 262 ° 0 min 0,000 mm 0,0 UV-I 0 W/m² 3,2 °C 5,5 °C 27,4 km/h (4 Bft)
09.12.2019 02:24 8,4 °C 70 % 1007,0 hPa 0,0 mm 15,4 km/h (3 Bft) SW 218 ° 0 min 0,000 mm 0,0 UV-I 0 W/m² 3,3 °C 5,9 °C 22,5 km/h (4 Bft)
09.12.2019 02:25 8,4 °C 70 % 1007,1 hPa 0,0 mm 14,2 km/h (3 Bft) W 272 ° 0 min 0,000 mm 0,0 UV-I 0 W/m² 3,3 °C 6,0 °C 24,1 km/h (4 Bft)
09.12.2019 02:26 8,5 °C 70 % 1007,1 hPa 0,0 mm 21,0 km/h (4 Bft) W-SW 254 ° 0 min 0,000 mm 0,0 UV-I 0 W/m² 3,3 °C 5,4 °C 27,4 km/h (4 Bft)
09.12.2019 02:27 8,5 °C 70 % 1007,0 hPa 0,0 mm 25,8 km/h (4 Bft) W-SW 255 ° 0 min 0,000 mm 0,0 UV-I 0 W/m² 3,3 °C 4,9 °C 32,2 km/h (5 Bft)
09.12.2019 02:28 8,6 °C 70 % 1007,1 hPa 0,0 mm 13,7 km/h (3 Bft) SW 230 ° 0 min 0,000 mm 0,0 UV-I 0 W/m² 3,4 °C 6,4 °C 29,0 km/h (5 Bft)
09.12.2019 02:29 8,6 °C 70 % 1007,1 hPa 0,0 mm 18,6 km/h (3 Bft) W-SW 254 ° 0 min 0,000 mm 0,0 UV-I 0 W/m² 3,4 °C 5,8 °C 29,0 km/h (5 Bft)
09.12.2019 02:30 8,6 °C 70 % 1007,2 hPa 0,0 mm 26,7 km/h (4 Bft) W-NW 290 ° 0 min 0,000 mm 0,0 UV-I 0 W/m² 3,4 °C 5,0 °C 43,5 km/h (6 Bft)
09.12.2019 02:31 8,6 °C 70 % 1007,0 hPa 0,0 mm 23,8 km/h (4 Bft) W-SW 238 ° 0 min 0,000 mm 0,0 UV-I 0 W/m² 3,4 °C 5,2 °C 43,5 km/h (6 Bft)
09.12.2019 02:32 8,6 °C 70 % 1007,1 hPa 0,0 mm 30,6 km/h (5 Bft) SW 221 ° 0 min 0,000 mm 0,0 UV-I 0 W/m² 3,4 °C 4,7 °C 43,5 km/h (6 Bft)
09.12.2019 02:33 8,7 °C 70 % 1007,1 hPa 0,0 mm 17,6 km/h (3 Bft) N-NW 345 ° 0 min 0,000 mm 0,0 UV-I 0 W/m² 3,5 °C 6,0 °C 29,0 km/h (5 Bft)
09.12.2019 02:34 8,7 °C 70 % 1007,0 hPa 0,0 mm 18,2 km/h (3 Bft) W 259 ° 0 min 0,000 mm 0,0 UV-I 0 W/m² 3,5 °C 5,9 °C 29,0 km/h (5 Bft)
09.12.2019 02:35 8,7 °C 70 % 1006,9 hPa 0,0 mm 21,5 km/h (4 Bft) W-NW 297 ° 0 min 0,000 mm 0,0 UV-I 0 W/m² 3,5 °C 5,6 °C 27,4 km/h (4 Bft)
09.12.2019 02:36 8,7 °C 70 % 1006,9 hPa 0,0 mm 23,0 km/h (4 Bft) W 267 ° 0 min 0,000 mm 0,0 UV-I 0 W/m² 3,5 °C 5,4 °C 32,2 km/h (5 Bft)
09.12.2019 02:37 8,7 °C 70 % 1006,9 hPa 0,0 mm 28,4 km/h (4 Bft) W-NW 285 ° 0 min 0,000 mm 0,0 UV-I 0 W/m² 3,5 °C 5,0 °C 49,9 km/h (6 Bft)
09.12.2019 02:38 8,7 °C 70 % 1006,9 hPa 0,0 mm 22,9 km/h (4 Bft) W-SW 258 ° 0 min 0,000 mm 0,0 UV-I 0 W/m² 3,5 °C 5,5 °C 32,2 km/h (5 Bft)
09.12.2019 02:39 8,7 °C 70 % 1006,9 hPa 0,0 mm 24,5 km/h (4 Bft) W 276 ° 0 min 0,000 mm 0,0 UV-I 0 W/m² 3,5 °C 5,3 °C 38,6 km/h (5 Bft)
09.12.2019 02:40 8,7 °C 70 % 1006,9 hPa 0,0 mm 18,5 km/h (3 Bft) W-NW 302 ° 0 min 0,000 mm 0,0 UV-I 0 W/m² 3,5 °C 5,9 °C 30,6 km/h (5 Bft)
09.12.2019 02:41 8,7 °C 70 % 1006,9 hPa 0,0 mm 17,0 km/h (3 Bft) W-SW 254 ° 0 min 0,000 mm 0,0 UV-I 0 W/m² 3,5 °C 6,1 °C 32,2 km/h (5 Bft)
09.12.2019 02:42 8,7 °C 70 % 1007,0 hPa 0,0 mm 25,5 km/h (4 Bft) W 277 ° 0 min 0,000 mm 0,0 UV-I 0 W/m² 3,5 °C 5,2 °C 40,2 km/h (6 Bft)
09.12.2019 02:43 8,7 °C 70 % 1007,0 hPa 0,0 mm 15,2 km/h (3 Bft) W 263 ° 0 min 0,000 mm 0,0 UV-I 0 W/m² 3,5 °C 6,3 °C 22,5 km/h (4 Bft)
09.12.2019 02:44 8,7 °C 70 % 1007,0 hPa 0,0 mm 21,0 km/h (4 Bft) W 264 ° 0 min 0,000 mm 0,0 UV-I 0 W/m² 3,5 °C 5,6 °C 30,6 km/h (5 Bft)
09.12.2019 02:45 8,7 °C 70 % 1006,9 hPa 0,0 mm 25,3 km/h (4 Bft) W 273 ° 0 min 0,000 mm 0,0 UV-I 0 W/m² 3,5 °C 5,2 °C 30,6 km/h (5 Bft)
09.12.2019 02:46 8,7 °C 70 % 1006,9 hPa 0,0 mm 21,1 km/h (4 Bft) W 277 ° 0 min 0,000 mm 0,0 UV-I 0 W/m² 3,5 °C 5,6 °C 32,2 km/h (5 Bft)
09.12.2019 02:47 8,7 °C 70 % 1006,9 hPa 0,0 mm 18,9 km/h (3 Bft) W-NW 290 ° 0 min 0,000 mm 0,0 UV-I 0 W/m² 3,5 °C 5,9 °C 27,4 km/h (4 Bft)
09.12.2019 02:48 8,7 °C 70 % 1006,8 hPa 0,0 mm 16,6 km/h (3 Bft) W-NW 283 ° 0 min 0,000 mm 0,0 UV-I 0 W/m² 3,5 °C 6,1 °C 37,0 km/h (5 Bft)
09.12.2019 02:49 8,7 °C 70 % 1006,8 hPa 0,0 mm 21,1 km/h (4 Bft) W 274 ° 0 min 0,000 mm 0,0 UV-I 0 W/m² 3,5 °C 5,6 °C 30,6 km/h (5 Bft)
09.12.2019 02:50 8,7 °C 70 % 1006,8 hPa 0,0 mm 16,4 km/h (3 Bft) W-NW 290 ° 0 min 0,000 mm 0,0 UV-I 0 W/m² 3,5 °C 6,1 °C 24,1 km/h (4 Bft)
09.12.2019 02:51 8,7 °C 70 % 1006,8 hPa 0,0 mm 18,3 km/h (3 Bft) W-NW 286 ° 0 min 0,000 mm 0,0 UV-I 0 W/m² 3,5 °C 5,9 °C 27,4 km/h (4 Bft)
09.12.2019 02:52 8,7 °C 70 % 1006,8 hPa 0,0 mm 14,1 km/h (3 Bft) W-NW 294 ° 0 min 0,000 mm 0,0 UV-I 0 W/m² 3,5 °C 6,4 °C 17,7 km/h (3 Bft)
09.12.2019 02:53 8,6 °C 71 % 1006,8 hPa 0,0 mm 12,1 km/h (2 Bft) W 260 ° 0 min 0,000 mm 0,0 UV-I 0 W/m² 3,6 °C 6,6 °C 19,3 km/h (3 Bft)
09.12.2019 02:54 8,6 °C 71 % 1006,9 hPa 0,0 mm 15,5 km/h (3 Bft) W 268 ° 0 min 0,000 mm 0,0 UV-I 0 W/m² 3,6 °C 6,1 °C 22,5 km/h (4 Bft)
09.12.2019 02:55 8,6 °C 71 % 1006,8 hPa 0,0 mm 15,7 km/h (3 Bft) W-NW 282 ° 0 min 0,000 mm 0,0 UV-I 0 W/m² 3,6 °C 6,1 °C 24,1 km/h (4 Bft)
09.12.2019 02:56 8,6 °C 71 % 1006,9 hPa 0,0 mm 10,8 km/h (2 Bft) W 267 ° 0 min 0,000 mm 0,0 UV-I 0 W/m² 3,6 °C 6,8 °C 14,5 km/h (3 Bft)
09.12.2019 02:57 8,6 °C 71 % 1006,9 hPa 0,0 mm 15,5 km/h (3 Bft) W 278 ° 0 min 0,000 mm 0,0 UV-I 0 W/m² 3,6 °C 6,1 °C 20,9 km/h (4 Bft)
09.12.2019 02:58 8,6 °C 71 % 1006,9 hPa 0,0 mm 9,1 km/h (2 Bft) W 269 ° 0 min 0,000 mm 0,0 UV-I 0 W/m² 3,6 °C 7,1 °C 17,7 km/h (3 Bft)
09.12.2019 02:59 8,6 °C 71 % 1006,9 hPa 0,0 mm 15,3 km/h (3 Bft) W-NW 295 ° 0 min 0,000 mm 0,0 UV-I 0 W/m² 3,6 °C 6,1 °C 20,9 km/h (4 Bft)
09.12.2019 03:00 8,5 °C 71 % 1006,9 hPa 0,0 mm 10,2 km/h (2 Bft) W 277 ° 0 min 0,000 mm 0,0 UV-I 0 W/m² 3,5 °C 6,8 °C 16,1 km/h (3 Bft)
09.12.2019 03:01 8,4 °C 71 % 1007,0 hPa 0,0 mm 12,0 km/h (2 Bft) W 268 ° 0 min 0,050 mm 0,0 UV-I 0 W/m² 3,5 °C 6,4 °C 20,9 km/h (4 Bft)
09.12.2019 03:02 8,4 °C 71 % 1006,9 hPa 0,0 mm 18,5 km/h (3 Bft) W-SW 249 ° 0 min 0,000 mm 0,0 UV-I 0 W/m² 3,5 °C 5,5 °C 29,0 km/h (5 Bft)
09.12.2019 03:03 8,4 °C 71 % 1006,9 hPa 0,0 mm 11,9 km/h (2 Bft) W-NW 298 ° 0 min 0,000 mm 0,0 UV-I 0 W/m² 3,5 °C 6,4 °C 19,3 km/h (3 Bft)
09.12.2019 03:04 8,4 °C 71 % 1006,9 hPa 0,0 mm 16,8 km/h (3 Bft) W-SW 250 ° 0 min 0,000 mm 0,0 UV-I 0 W/m² 3,5 °C 5,7 °C 29,0 km/h (5 Bft)
09.12.2019 03:05 8,4 °C 71 % 1007,0 hPa 0,0 mm 19,8 km/h (3 Bft) W 281 ° 0 min 0,000 mm 0,0 UV-I 0 W/m² 3,5 °C 5,4 °C 25,7 km/h (4 Bft)
09.12.2019 03:06 8,4 °C 71 % 1007,0 hPa 0,0 mm 11,9 km/h (2 Bft) W-SW 249 ° 0 min 0,000 mm 0,0 UV-I 0 W/m² 3,5 °C 6,4 °C 17,7 km/h (3 Bft)
09.12.2019 03:07 8,4 °C 71 % 1006,8 hPa 0,0 mm 12,9 km/h (3 Bft) NW 315 ° 0 min 0,000 mm 0,0 UV-I 0 W/m² 3,5 °C 6,2 °C 19,3 km/h (3 Bft)
09.12.2019 03:08 8,4 °C 71 % 1007,0 hPa 0,0 mm 26,0 km/h (4 Bft) W 260 ° 0 min 0,000 mm 0,0 UV-I 0 W/m² 3,5 °C 4,8 °C 32,2 km/h (5 Bft)
09.12.2019 03:09 8,4 °C 70 % 1006,8 hPa 0,0 mm 27,2 km/h (4 Bft) W 265 ° 0 min 0,000 mm 0,0 UV-I 0 W/m² 3,3 °C 4,7 °C 38,6 km/h (5 Bft)
09.12.2019 03:10 8,4 °C 70 % 1006,8 hPa 0,0 mm 22,0 km/h (4 Bft) W 259 ° 0 min 0,000 mm 0,0 UV-I 0 W/m² 3,3 °C 5,2 °C 37,0 km/h (5 Bft)
09.12.2019 03:11 8,4 °C 70 % 1006,8 hPa 0,0 mm 14,1 km/h (3 Bft) W 275 ° 0 min 0,000 mm 0,0 UV-I 0 W/m² 3,3 °C 6,1 °C 20,9 km/h (4 Bft)
09.12.2019 03:12 8,4 °C 70 % 1006,8 hPa 0,0 mm 18,6 km/h (3 Bft) W 273 ° 0 min 0,000 mm 0,0 UV-I 0 W/m² 3,3 °C 5,5 °C 25,7 km/h (4 Bft)
09.12.2019 03:13 8,4 °C 70 % 1006,8 hPa 0,0 mm 16,0 km/h (3 Bft) W 267 ° 0 min 0,000 mm 0,0 UV-I 0 W/m² 3,3 °C 5,8 °C 27,4 km/h (4 Bft)
09.12.2019 03:14 8,4 °C 70 % 1006,8 hPa 0,0 mm 17,4 km/h (3 Bft) W 277 ° 0 min 0,000 mm 0,0 UV-I 0 W/m² 3,3 °C 5,6 °C 24,1 km/h (4 Bft)
09.12.2019 03:15 8,4 °C 70 % 1006,8 hPa 0,0 mm 16,0 km/h (3 Bft) W-SW 257 ° 0 min 0,000 mm 0,0 UV-I 0 W/m² 3,3 °C 5,8 °C 20,9 km/h (4 Bft)
09.12.2019 03:16 8,4 °C 70 % 1006,8 hPa 0,0 mm 9,7 km/h (2 Bft) SW 220 ° 0 min 0,000 mm 0,0 UV-I 0 W/m² 3,3 °C 6,8 °C 16,1 km/h (3 Bft)
09.12.2019 03:17 8,4 °C 70 % 1006,8 hPa 0,0 mm 16,6 km/h (3 Bft) W 279 ° 0 min 0,000 mm 0,0 UV-I 0 W/m² 3,3 °C 5,7 °C 25,7 km/h (4 Bft)
09.12.2019 03:18 8,3 °C 70 % 1006,8 hPa 0,0 mm 18,8 km/h (3 Bft) W 277 ° 0 min 0,000 mm 0,0 UV-I 0 W/m² 3,2 °C 5,4 °C 33,8 km/h (5 Bft)
09.12.2019 03:19 8,4 °C 70 % 1006,8 hPa 0,0 mm 20,1 km/h (4 Bft) W 263 ° 0 min 0,000 mm 0,0 UV-I 0 W/m² 3,3 °C 5,3 °C 27,4 km/h (4 Bft)
09.12.2019 03:20 8,3 °C 70 % 1006,8 hPa 0,0 mm 17,2 km/h (3 Bft) W-NW 291 ° 0 min 0,000 mm 0,0 UV-I 0 W/m² 3,2 °C 5,5 °C 25,7 km/h (4 Bft)
09.12.2019 03:21 8,4 °C 70 % 1006,8 hPa 0,0 mm 17,2 km/h (3 Bft) W-SW 251 ° 0 min 0,000 mm 0,0 UV-I 0 W/m² 3,3 °C 5,7 °C 22,5 km/h (4 Bft)
09.12.2019 03:22 8,3 °C 70 % 1006,7 hPa 0,0 mm 15,4 km/h (3 Bft) W 259 ° 0 min 0,000 mm 0,0 UV-I 0 W/m² 3,2 °C 5,8 °C 24,1 km/h (4 Bft)
09.12.2019 03:23 8,3 °C 70 % 1006,6 hPa 0,0 mm 13,1 km/h (3 Bft) W-NW 296 ° 0 min 0,000 mm 0,0 UV-I 0 W/m² 3,2 °C 6,1 °C 22,5 km/h (4 Bft)
09.12.2019 03:24 8,3 °C 70 % 1006,6 hPa 0,0 mm 14,3 km/h (3 Bft) W 259 ° 0 min 0,000 mm 0,0 UV-I 0 W/m² 3,2 °C 5,9 °C 19,3 km/h (3 Bft)
09.12.2019 03:25 8,3 °C 70 % 1006,5 hPa 0,0 mm 10,9 km/h (2 Bft) SW 229 ° 0 min 0,000 mm 0,0 UV-I 0 W/m² 3,2 °C 6,4 °C 24,1 km/h (4 Bft)
09.12.2019 03:26 8,3 °C 70 % 1006,5 hPa 0,0 mm 18,4 km/h (3 Bft) SW 233 ° 0 min 0,000 mm 0,0 UV-I 0 W/m² 3,2 °C 5,4 °C 24,1 km/h (4 Bft)
09.12.2019 03:27 8,3 °C 70 % 1006,7 hPa 0,0 mm 16,2 km/h (3 Bft) W-SW 252 ° 0 min 0,000 mm 0,0 UV-I 0 W/m² 3,2 °C 5,7 °C 27,4 km/h (4 Bft)
09.12.2019 03:28 8,3 °C 71 % 1006,7 hPa 0,0 mm 19,8 km/h (3 Bft) W-SW 239 ° 0 min 0,000 mm 0,0 UV-I 0 W/m² 3,4 °C 5,3 °C 30,6 km/h (5 Bft)
09.12.2019 03:29 8,3 °C 71 % 1006,6 hPa 0,0 mm 26,0 km/h (4 Bft) W 279 ° 0 min 0,000 mm 0,0 UV-I 0 W/m² 3,4 °C 4,7 °C 33,8 km/h (5 Bft)
09.12.2019 03:30 8,3 °C 71 % 1006,6 hPa 0,0 mm 14,0 km/h (3 Bft) W 277 ° 0 min 0,000 mm 0,0 UV-I 0 W/m² 3,4 °C 6,0 °C 27,4 km/h (4 Bft)
09.12.2019 03:31 8,3 °C 71 % 1006,6 hPa 0,0 mm 14,8 km/h (3 Bft) W 265 ° 0 min 0,000 mm 0,0 UV-I 0 W/m² 3,4 °C 5,8 °C 20,9 km/h (4 Bft)
09.12.2019 03:32 8,3 °C 71 % 1006,6 hPa 0,0 mm 6,9 km/h (2 Bft) W 263 ° 0 min 0,000 mm 0,0 UV-I 0 W/m² 3,4 °C 7,3 °C 14,5 km/h (3 Bft)
09.12.2019 03:33 8,2 °C 71 % 1006,6 hPa 0,0 mm 18,4 km/h (3 Bft) W-SW 253 ° 0 min 0,000 mm 0,0 UV-I 0 W/m² 3,3 °C 5,3 °C 30,6 km/h (5 Bft)
09.12.2019 03:34 8,2 °C 71 % 1006,6 hPa 0,0 mm 13,7 km/h (3 Bft) W-NW 288 ° 0 min 0,000 mm 0,0 UV-I 0 W/m² 3,3 °C 5,9 °C 17,7 km/h (3 Bft)
09.12.2019 03:35 8,2 °C 71 % 1006,6 hPa 0,0 mm 14,5 km/h (3 Bft) W-NW 282 ° 0 min 0,000 mm 0,0 UV-I 0 W/m² 3,3 °C 5,8 °C 20,9 km/h (4 Bft)
09.12.2019 03:36 8,2 °C 71 % 1006,6 hPa 0,0 mm 24,3 km/h (4 Bft) W 267 ° 0 min 0,000 mm 0,0 UV-I 0 W/m² 3,3 °C 4,7 °C 33,8 km/h (5 Bft)
09.12.2019 03:37 8,2 °C 71 % 1006,5 hPa 0,0 mm 14,5 km/h (3 Bft) W 265 ° 0 min 0,000 mm 0,0 UV-I 0 W/m² 3,3 °C 5,8 °C 20,9 km/h (4 Bft)
09.12.2019 03:38 8,2 °C 71 % 1006,5 hPa 0,0 mm 19,1 km/h (3 Bft) W-NW 293 ° 0 min 0,000 mm 0,0 UV-I 0 W/m² 3,3 °C 5,2 °C 25,7 km/h (4 Bft)
09.12.2019 03:39 8,2 °C 71 % 1006,5 hPa 0,0 mm 16,3 km/h (3 Bft) W-SW 257 ° 0 min 0,000 mm 0,0 UV-I 0 W/m² 3,3 °C 5,5 °C 22,5 km/h (4 Bft)
09.12.2019 03:40 8,2 °C 71 % 1006,5 hPa 0,0 mm 15,0 km/h (3 Bft) W-NW 286 ° 0 min 0,000 mm 0,0 UV-I 0 W/m² 3,3 °C 5,7 °C 19,3 km/h (3 Bft)
09.12.2019 03:41 8,2 °C 71 % 1006,5 hPa 0,0 mm 19,4 km/h (3 Bft) W-SW 250 ° 0 min 0,000 mm 0,0 UV-I 0 W/m² 3,3 °C 5,2 °C 29,0 km/h (5 Bft)
09.12.2019 03:42 8,2 °C 71 % 1006,4 hPa 0,0 mm 17,2 km/h (3 Bft) W 281 ° 0 min 0,000 mm 0,0 UV-I 0 W/m² 3,3 °C 5,4 °C 25,7 km/h (4 Bft)
09.12.2019 03:43 8,2 °C 71 % 1006,3 hPa 0,0 mm 26,4 km/h (4 Bft) W-SW 255 ° 0 min 0,000 mm 0,0 UV-I 0 W/m² 3,3 °C 4,5 °C 41,8 km/h (6 Bft)
09.12.2019 03:44 8,2 °C 71 % 1006,5 hPa 0,0 mm 25,4 km/h (4 Bft) W 273 ° 0 min 0,000 mm 0,0 UV-I 0 W/m² 3,3 °C 4,6 °C 35,4 km/h (5 Bft)
09.12.2019 03:45 8,2 °C 71 % 1006,4 hPa 0,0 mm 31,6 km/h (5 Bft) W-NW 283 ° 0 min 0,000 mm 0,0 UV-I 0 W/m² 3,3 °C 4,1 °C 43,5 km/h (6 Bft)
09.12.2019 03:46 8,2 °C 71 % 1006,3 hPa 0,0 mm 18,7 km/h (3 Bft) W-NW 283 ° 0 min 0,000 mm 0,0 UV-I 0 W/m² 3,3 °C 5,2 °C 27,4 km/h (4 Bft)
09.12.2019 03:47 8,2 °C 71 % 1006,4 hPa 0,0 mm 16,6 km/h (3 Bft) W 267 ° 0 min 0,000 mm 0,0 UV-I 0 W/m² 3,3 °C 5,5 °C 25,7 km/h (4 Bft)
09.12.2019 03:48 8,2 °C 71 % 1006,4 hPa 0,0 mm 13,7 km/h (3 Bft) W-NW 296 ° 0 min 0,000 mm 0,0 UV-I 0 W/m² 3,3 °C 5,9 °C 19,3 km/h (3 Bft)
09.12.2019 03:49 8,2 °C 71 % 1006,4 hPa 0,0 mm 13,6 km/h (3 Bft) W-NW 290 ° 0 min 0,000 mm 0,0 UV-I 0 W/m² 3,3 °C 5,9 °C 17,7 km/h (3 Bft)
09.12.2019 03:50 8,2 °C 71 % 1006,5 hPa 0,0 mm 17,1 km/h (3 Bft) W-NW 296 ° 0 min 0,000 mm 0,0 UV-I 0 W/m² 3,3 °C 5,4 °C 30,6 km/h (5 Bft)
09.12.2019 03:51 8,2 °C 71 % 1006,4 hPa 0,0 mm 24,0 km/h (4 Bft) W-SW 246 ° 0 min 0,000 mm 0,0 UV-I 0 W/m² 3,3 °C 4,7 °C 30,6 km/h (5 Bft)
09.12.2019 03:52 8,2 °C 72 % 1006,4 hPa 0,0 mm 19,9 km/h (4 Bft) W 269 ° 0 min 0,000 mm 0,0 UV-I 0 W/m² 3,5 °C 5,1 °C 24,1 km/h (4 Bft)
09.12.2019 03:53 8,2 °C 72 % 1006,4 hPa 0,0 mm 21,7 km/h (4 Bft) W-NW 294 ° 0 min 0,000 mm 0,0 UV-I 0 W/m² 3,5 °C 4,9 °C 30,6 km/h (5 Bft)
09.12.2019 03:54 8,2 °C 72 % 1006,4 hPa 0,0 mm 14,8 km/h (3 Bft) W 266 ° 0 min 0,000 mm 0,0 UV-I 0 W/m² 3,5 °C 5,7 °C 20,9 km/h (4 Bft)
09.12.2019 03:55 8,2 °C 72 % 1006,4 hPa 0,0 mm 13,4 km/h (3 Bft) W-NW 296 ° 0 min 0,000 mm 0,0 UV-I 0 W/m² 3,5 °C 5,9 °C 19,3 km/h (3 Bft)
09.12.2019 03:56 8,1 °C 72 % 1006,3 hPa 0,0 mm 15,3 km/h (3 Bft) W 271 ° 0 min 0,000 mm 0,0 UV-I 0 W/m² 3,4 °C 5,5 °C 20,9 km/h (4 Bft)
09.12.2019 03:57 8,1 °C 72 % 1006,4 hPa 0,0 mm 11,7 km/h (2 Bft) W-NW 286 ° 0 min 0,000 mm 0,0 UV-I 0 W/m² 3,4 °C 6,1 °C 14,5 km/h (3 Bft)
09.12.2019 03:58 8,1 °C 72 % 1006,3 hPa 0,0 mm 12,1 km/h (2 Bft) W-NW 302 ° 0 min 0,000 mm 0,0 UV-I 0 W/m² 3,4 °C 6,0 °C 20,9 km/h (4 Bft)
09.12.2019 03:59 8,1 °C 72 % 1006,3 hPa 0,0 mm 16,8 km/h (3 Bft) W-NW 294 ° 0 min 0,000 mm 0,0 UV-I 0 W/m² 3,4 °C 5,3 °C 22,5 km/h (4 Bft)
09.12.2019 04:00 8,1 °C 72 % 1006,4 hPa 0,0 mm 13,9 km/h (3 Bft) W-SW 258 ° 0 min 0,000 mm 0,0 UV-I 0 W/m² 3,4 °C 5,7 °C 16,1 km/h (3 Bft)
09.12.2019 04:02 8,1 °C 72 % 1006,4 hPa 0,0 mm 13,6 km/h (3 Bft) W-SW 258 ° 0 min 0,051 mm 0,0 UV-I 0 W/m² 3,4 °C 5,8 °C 22,5 km/h (4 Bft)
09.12.2019 04:03 8,1 °C 72 % 1006,4 hPa 0,0 mm 9,8 km/h (2 Bft) W-SW 252 ° 0 min 0,000 mm 0,0 UV-I 0 W/m² 3,4 °C 6,4 °C 14,5 km/h (3 Bft)
09.12.2019 04:04 8,1 °C 73 % 1006,4 hPa 0,0 mm 11,3 km/h (2 Bft) W 262 ° 0 min 0,000 mm 0,0 UV-I 0 W/m² 3,6 °C 6,1 °C 19,3 km/h (3 Bft)
09.12.2019 04:05 8,1 °C 73 % 1006,4 hPa 0,0 mm 11,9 km/h (2 Bft) W 270 ° 0 min 0,000 mm 0,0 UV-I 0 W/m² 3,6 °C 6,0 °C 16,1 km/h (3 Bft)
09.12.2019 04:06 8,0 °C 73 % 1006,4 hPa 0,0 mm 13,3 km/h (3 Bft) W-NW 292 ° 0 min 0,000 mm 0,0 UV-I 0 W/m² 3,5 °C 5,7 °C 17,7 km/h (3 Bft)
09.12.2019 04:07 8,0 °C 73 % 1006,3 hPa 0,0 mm 9,5 km/h (2 Bft) W-SW 251 ° 0 min 0,000 mm 0,0 UV-I 0 W/m² 3,5 °C 6,3 °C 14,5 km/h (3 Bft)
09.12.2019 04:08 8,0 °C 73 % 1006,2 hPa 0,0 mm 9,9 km/h (2 Bft) W-NW 286 ° 0 min 0,000 mm 0,0 UV-I 0 W/m² 3,5 °C 6,3 °C 14,5 km/h (3 Bft)
09.12.2019 04:09 8,0 °C 73 % 1006,3 hPa 0,0 mm 9,5 km/h (2 Bft) W-NW 286 ° 0 min 0,000 mm 0,0 UV-I 0 W/m² 3,5 °C 6,3 °C 12,9 km/h (3 Bft)
09.12.2019 04:10 7,9 °C 73 % 1006,3 hPa 0,0 mm 11,3 km/h (2 Bft) W-NW 284 ° 0 min 0,000 mm 0,0 UV-I 0 W/m² 3,4 °C 5,9 °C 16,1 km/h (3 Bft)
09.12.2019 04:11 7,9 °C 73 % 1006,4 hPa 0,0 mm 5,4 km/h (1 Bft) W-NW 290 ° 0 min 0,000 mm 0,0 UV-I 0 W/m² 3,4 °C 7,2 °C 8,0 km/h (2 Bft)
09.12.2019 04:12 7,9 °C 73 % 1006,4 hPa 0,0 mm 14,1 km/h (3 Bft) W-NW 292 ° 0 min 0,000 mm 0,0 UV-I 0 W/m² 3,4 °C 5,4 °C 20,9 km/h (4 Bft)
09.12.2019 04:13 7,9 °C 73 % 1006,4 hPa 0,0 mm 8,7 km/h (2 Bft) W-NW 287 ° 0 min 0,000 mm 0,0 UV-I 0 W/m² 3,4 °C 6,4 °C 14,5 km/h (3 Bft)
09.12.2019 04:14 7,9 °C 74 % 1006,4 hPa 0,0 mm 5,9 km/h (2 Bft) W-NW 286 ° 0 min 0,000 mm 0,0 UV-I 0 W/m² 3,6 °C 7,1 °C 11,3 km/h (2 Bft)
09.12.2019 04:15 7,9 °C 74 % 1006,4 hPa 0,0 mm 14,5 km/h (3 Bft) W-SW 257 ° 0 min 0,000 mm 0,0 UV-I 0 W/m² 3,6 °C 5,4 °C 19,3 km/h (3 Bft)
09.12.2019 04:16 7,8 °C 74 % 1006,4 hPa 0,0 mm 13,5 km/h (3 Bft) N-NW 336 ° 0 min 0,000 mm 0,0 UV-I 0 W/m² 3,5 °C 5,4 °C 20,9 km/h (4 Bft)
09.12.2019 04:17 7,8 °C 74 % 1006,5 hPa 0,0 mm 18,4 km/h (3 Bft) W-NW 292 ° 0 min 0,000 mm 0,0 UV-I 0 W/m² 3,5 °C 4,8 °C 30,6 km/h (5 Bft)
09.12.2019 04:18 7,8 °C 75 % 1006,5 hPa 0,0 mm 13,0 km/h (3 Bft) W 274 ° 0 min 0,000 mm 0,0 UV-I 0 W/m² 3,7 °C 5,5 °C 17,7 km/h (3 Bft)
09.12.2019 04:19 7,8 °C 75 % 1006,5 hPa 0,0 mm 13,3 km/h (3 Bft) W 277 ° 0 min 0,000 mm 0,0 UV-I 0 W/m² 3,7 °C 5,4 °C 20,9 km/h (4 Bft)
09.12.2019 04:20 7,7 °C 75 % 1006,5 hPa 0,0 mm 12,4 km/h (3 Bft) W-NW 293 ° 0 min 0,000 mm 0,0 UV-I 0 W/m² 3,6 °C 5,5 °C 17,7 km/h (3 Bft)
09.12.2019 04:21 7,7 °C 76 % 1006,6 hPa 0,0 mm 14,8 km/h (3 Bft) W-NW 294 ° 0 min 0,000 mm 0,0 UV-I 0 W/m² 3,7 °C 5,1 °C 19,3 km/h (3 Bft)
09.12.2019 04:22 7,7 °C 76 % 1006,6 hPa 0,0 mm 14,6 km/h (3 Bft) NW 305 ° 0 min 0,000 mm 0,0 UV-I 0 W/m² 3,7 °C 5,1 °C 22,5 km/h (4 Bft)
09.12.2019 04:23 7,7 °C 76 % 1006,5 hPa 0,0 mm 10,8 km/h (2 Bft) W-NW 295 ° 0 min 0,000 mm 0,0 UV-I 0 W/m² 3,7 °C 5,7 °C 14,5 km/h (3 Bft)
09.12.2019 04:24 7,6 °C 76 % 1006,6 hPa 0,0 mm 17,2 km/h (3 Bft) W-NW 292 ° 0 min 0,000 mm 0,0 UV-I 0 W/m² 3,6 °C 4,7 °C 25,7 km/h (4 Bft)
09.12.2019 04:25 7,6 °C 77 % 1006,6 hPa 0,0 mm 19,2 km/h (3 Bft) W-NW 300 ° 0 min 0,000 mm 0,0 UV-I 0 W/m² 3,8 °C 4,4 °C 27,4 km/h (4 Bft)
09.12.2019 04:26 7,6 °C 77 % 1006,7 hPa 0,0 mm 16,6 km/h (3 Bft) W-NW 296 ° 0 min 0,000 mm 0,0 UV-I 0 W/m² 3,8 °C 4,7 °C 24,1 km/h (4 Bft)
09.12.2019 04:27 7,5 °C 78 % 1006,7 hPa 0,0 mm 13,9 km/h (3 Bft) W 273 ° 0 min 0,000 mm 0,0 UV-I 0 W/m² 3,9 °C 5,0 °C 19,3 km/h (3 Bft)
09.12.2019 04:28 7,4 °C 78 % 1006,9 hPa 0,0 mm 20,4 km/h (4 Bft) W-NW 288 ° 0 min 0,000 mm 0,0 UV-I 0 W/m² 3,8 °C 4,1 °C 37,0 km/h (5 Bft)
09.12.2019 04:29 7,4 °C 79 % 1007,1 hPa 0,0 mm 18,8 km/h (3 Bft) W-NW 289 ° 0 min 0,000 mm 0,0 UV-I 0 W/m² 4,0 °C 4,2 °C 29,0 km/h (5 Bft)
09.12.2019 04:30 7,3 °C 79 % 1007,1 hPa 0,0 mm 15,3 km/h (3 Bft) W 269 ° 0 min 0,000 mm 0,0 UV-I 0 W/m² 3,9 °C 4,5 °C 33,8 km/h (5 Bft)
09.12.2019 04:31 7,2 °C 80 % 1007,1 hPa 0,0 mm 28,2 km/h (4 Bft) W 281 ° 0 min 0,000 mm 0,0 UV-I 0 W/m² 4,0 °C 3,1 °C 43,5 km/h (6 Bft)
09.12.2019 04:32 7,1 °C 80 % 1007,1 hPa 0,0 mm 26,3 km/h (4 Bft) W-NW 298 ° 0 min 0,000 mm 0,0 UV-I 0 W/m² 3,9 °C 3,1 °C 35,4 km/h (5 Bft)
09.12.2019 04:33 6,9 °C 81 % 1007,1 hPa 0,0 mm 18,3 km/h (3 Bft) W-NW 288 ° 0 min 0,000 mm 0,0 UV-I 0 W/m² 3,9 °C 3,7 °C 27,4 km/h (4 Bft)
09.12.2019 04:34 6,8 °C 81 % 1007,0 hPa 0,0 mm 18,2 km/h (3 Bft) W-NW 294 ° 0 min 0,000 mm 0,0 UV-I 0 W/m² 3,8 °C 3,5 °C 25,7 km/h (4 Bft)
09.12.2019 04:35 6,6 °C 82 % 1007,1 hPa 0,0 mm 14,2 km/h (3 Bft) W 275 ° 0 min 0,000 mm 0,0 UV-I 0 W/m² 3,8 °C 3,8 °C 19,3 km/h (3 Bft)
09.12.2019 04:36 6,6 °C 82 % 1007,1 hPa 0,0 mm 15,9 km/h (3 Bft) W 269 ° 0 min 0,000 mm 0,0 UV-I 0 W/m² 3,8 °C 3,6 °C 24,1 km/h (4 Bft)
09.12.2019 04:37 6,4 °C 82 % 1007,0 hPa 0,2 mm 22,3 km/h (4 Bft) W 260 ° 0 min 0,000 mm 0,0 UV-I 0 W/m² 3,6 °C 2,6 °C 40,2 km/h (6 Bft)
09.12.2019 04:38 6,3 °C 83 % 1007,2 hPa 0,0 mm 27,2 km/h (4 Bft) W-NW 288 ° 0 min 0,000 mm 0,0 UV-I 0 W/m² 3,6 °C 2,0 °C 38,6 km/h (5 Bft)
09.12.2019 04:39 6,1 °C 83 % 1007,2 hPa 0,0 mm 23,7 km/h (4 Bft) NW 321 ° 0 min 0,000 mm 0,0 UV-I 0 W/m² 3,4 °C 2,1 °C 30,6 km/h (5 Bft)
09.12.2019 04:40 6,0 °C 83 % 1007,3 hPa 0,0 mm 19,1 km/h (3 Bft) W-NW 290 ° 0 min 0,000 mm 0,0 UV-I 0 W/m² 3,3 °C 2,4 °C 32,2 km/h (5 Bft)
09.12.2019 04:41 5,9 °C 83 % 1007,3 hPa 0,0 mm 15,9 km/h (3 Bft) W 281 ° 0 min 0,000 mm 0,0 UV-I 0 W/m² 3,2 °C 2,7 °C 20,9 km/h (4 Bft)
09.12.2019 04:42 5,8 °C 84 % 1007,2 hPa 0,0 mm 15,5 km/h (3 Bft) NW 307 ° 0 min 0,000 mm 0,0 UV-I 0 W/m² 3,3 °C 2,7 °C 20,9 km/h (4 Bft)
09.12.2019 04:43 5,7 °C 84 % 1007,3 hPa 0,0 mm 13,3 km/h (3 Bft) W 277 ° 0 min 0,000 mm 0,0 UV-I 0 W/m² 3,2 °C 2,9 °C 27,4 km/h (4 Bft)
09.12.2019 04:44 5,6 °C 84 % 1007,2 hPa 0,0 mm 24,6 km/h (4 Bft) W-NW 295 ° 0 min 0,000 mm 0,0 UV-I 0 W/m² 3,1 °C 1,3 °C 33,8 km/h (5 Bft)
09.12.2019 04:45 5,6 °C 84 % 1007,2 hPa 0,0 mm 16,6 km/h (3 Bft) W-NW 292 ° 0 min 0,000 mm 0,0 UV-I 0 W/m² 3,1 °C 2,3 °C 24,1 km/h (4 Bft)
09.12.2019 04:46 5,5 °C 84 % 1007,3 hPa 0,0 mm 12,7 km/h (3 Bft) NW 310 ° 0 min 0,000 mm 0,0 UV-I 0 W/m² 3,0 °C 2,7 °C 17,7 km/h (3 Bft)
09.12.2019 04:47 5,4 °C 85 % 1007,3 hPa 0,0 mm 14,6 km/h (3 Bft) W-SW 245 ° 0 min 0,000 mm 0,0 UV-I 0 W/m² 3,1 °C 2,3 °C 17,7 km/h (3 Bft)
09.12.2019 04:48 5,3 °C 85 % 1007,2 hPa 0,0 mm 15,0 km/h (3 Bft) W 281 ° 0 min 0,000 mm 0,0 UV-I 0 W/m² 3,0 °C 2,1 °C 19,3 km/h (3 Bft)
09.12.2019 04:49 5,3 °C 85 % 1007,2 hPa 0,0 mm 11,8 km/h (2 Bft) W-SW 253 ° 0 min 0,000 mm 0,0 UV-I 0 W/m² 3,0 °C 2,7 °C 16,1 km/h (3 Bft)
09.12.2019 04:50 5,2 °C 85 % 1007,2 hPa 0,0 mm 17,3 km/h (3 Bft) W-NW 292 ° 0 min 0,000 mm 0,0 UV-I 0 W/m² 2,9 °C 1,7 °C 24,1 km/h (4 Bft)
09.12.2019 04:51 5,2 °C 85 % 1007,4 hPa 0,0 mm 17,9 km/h (3 Bft) W-NW 303 ° 0 min 0,000 mm 0,0 UV-I 0 W/m² 2,9 °C 1,6 °C 24,1 km/h (4 Bft)
09.12.2019 04:52 5,1 °C 85 % 1007,2 hPa 0,0 mm 17,9 km/h (3 Bft) W-SW 256 ° 0 min 0,000 mm 0,0 UV-I 0 W/m² 2,8 °C 1,5 °C 22,5 km/h (4 Bft)
09.12.2019 04:53 5,0 °C 85 % 1007,2 hPa 0,0 mm 15,1 km/h (3 Bft) W-NW 289 ° 0 min 0,000 mm 0,0 UV-I 0 W/m² 2,7 °C 1,7 °C 22,5 km/h (4 Bft)
09.12.2019 04:54 4,9 °C 85 % 1007,4 hPa 0,0 mm 15,4 km/h (3 Bft) W 261 ° 0 min 0,000 mm 0,0 UV-I 0 W/m² 2,6 °C 1,6 °C 25,7 km/h (4 Bft)
09.12.2019 04:55 4,9 °C 85 % 1007,4 hPa 0,0 mm 14,5 km/h (3 Bft) W-NW 284 ° 0 min 0,000 mm 0,0 UV-I 0 W/m² 2,6 °C 1,7 °C 20,9 km/h (4 Bft)
09.12.2019 04:56 4,8 °C 85 % 1007,5 hPa 0,0 mm 32,1 km/h (5 Bft) W 262 ° 0 min 0,000 mm 0,0 UV-I 0 W/m² 2,5 °C -0,4 °C 49,9 km/h (6 Bft)
09.12.2019 04:57 4,8 °C 85 % 1007,1 hPa 0,0 mm 21,8 km/h (4 Bft) W 268 ° 0 min 0,000 mm 0,0 UV-I 0 W/m² 2,5 °C 0,6 °C 30,6 km/h (5 Bft)
09.12.2019 04:58 4,7 °C 85 % 1007,1 hPa 0,0 mm 18,2 km/h (3 Bft) W 281 ° 0 min 0,000 mm 0,0 UV-I 0 W/m² 2,4 °C 0,9 °C 22,5 km/h (4 Bft)
09.12.2019 04:59 4,7 °C 86 % 1007,1 hPa 0,0 mm 16,2 km/h (3 Bft) W 270 ° 0 min 0,000 mm 0,0 UV-I 0 W/m² 2,6 °C 1,2 °C 25,7 km/h (4 Bft)
09.12.2019 05:00 4,6 °C 86 % 1007,1 hPa 0,0 mm 12,3 km/h (3 Bft) W 272 ° 0 min 0,026 mm 0,0 UV-I 0 W/m² 2,5 °C 1,7 °C 20,9 km/h (4 Bft)
09.12.2019 05:01 4,6 °C 86 % 1007,1 hPa 0,0 mm 21,6 km/h (4 Bft) W-NW 291 ° 0 min 0,000 mm 0,0 UV-I 0 W/m² 2,5 °C 0,4 °C 32,2 km/h (5 Bft)
09.12.2019 05:02 4,6 °C 86 % 1007,0 hPa 0,0 mm 23,8 km/h (4 Bft) W-SW 257 ° 0 min 0,000 mm 0,0 UV-I 0 W/m² 2,5 °C 0,1 °C 38,6 km/h (5 Bft)
09.12.2019 05:03 4,5 °C 86 % 1007,0 hPa 0,0 mm 17,6 km/h (3 Bft) W 277 ° 0 min 0,000 mm 0,0 UV-I 0 W/m² 2,4 °C 0,7 °C 22,5 km/h (4 Bft)
09.12.2019 05:04 4,5 °C 86 % 1007,0 hPa 0,0 mm 26,5 km/h (4 Bft) W 267 ° 0 min 0,000 mm 0,0 UV-I 0 W/m² 2,4 °C -0,3 °C 37,0 km/h (5 Bft)
09.12.2019 05:05 4,4 °C 86 % 1007,0 hPa 0,0 mm 18,6 km/h (3 Bft) W-SW 249 ° 0 min 0,000 mm 0,0 UV-I 0 W/m² 2,3 °C 0,5 °C 27,4 km/h (4 Bft)
09.12.2019 05:06 4,4 °C 86 % 1006,9 hPa 0,0 mm 22,3 km/h (4 Bft) W 270 ° 0 min 0,000 mm 0,0 UV-I 0 W/m² 2,3 °C 0,0 °C 27,4 km/h (4 Bft)
09.12.2019 05:07 4,4 °C 86 % 1007,0 hPa 0,0 mm 22,5 km/h (4 Bft) W 274 ° 0 min 0,000 mm 0,0 UV-I 0 W/m² 2,3 °C 0,0 °C 29,0 km/h (5 Bft)
09.12.2019 05:08 4,3 °C 86 % 1006,9 hPa 0,0 mm 21,4 km/h (4 Bft) W 268 ° 0 min 0,000 mm 0,0 UV-I 0 W/m² 2,2 °C 0,0 °C 25,7 km/h (4 Bft)
09.12.2019 05:09 4,3 °C 86 % 1007,0 hPa 0,0 mm 18,7 km/h (3 Bft) W-SW 250 ° 0 min 0,000 mm 0,0 UV-I 0 W/m² 2,2 °C 0,4 °C 29,0 km/h (5 Bft)
09.12.2019 05:10 4,3 °C 86 % 1007,0 hPa 0,0 mm 15,6 km/h (3 Bft) SW 223 ° 0 min 0,000 mm 0,0 UV-I 0 W/m² 2,2 °C 0,8 °C 22,5 km/h (4 Bft)
09.12.2019 05:11 4,3 °C 86 % 1007,0 hPa 0,0 mm 22,5 km/h (4 Bft) W 265 ° 0 min 0,000 mm 0,0 UV-I 0 W/m² 2,2 °C -0,1 °C 29,0 km/h (5 Bft)
09.12.2019 05:12 4,3 °C 86 % 1007,0 hPa 0,0 mm 17,1 km/h (3 Bft) W-NW 283 ° 0 min 0,000 mm 0,0 UV-I 0 W/m² 2,2 °C 0,6 °C 25,7 km/h (4 Bft)
09.12.2019 05:13 4,2 °C 86 % 1006,9 hPa 0,0 mm 19,8 km/h (3 Bft) SW 236 ° 0 min 0,000 mm 0,0 UV-I 0 W/m² 2,1 °C 0,1 °C 25,7 km/h (4 Bft)
09.12.2019 05:14 4,2 °C 87 % 1006,9 hPa 0,0 mm 16,4 km/h (3 Bft) W-SW 252 ° 0 min 0,000 mm 0,0 UV-I 0 W/m² 2,2 °C 0,5 °C 22,5 km/h (4 Bft)
09.12.2019 05:15 4,2 °C 87 % 1006,8 hPa 0,0 mm 10,8 km/h (2 Bft) W 276 ° 0 min 0,000 mm 0,0 UV-I 0 W/m² 2,2 °C 1,5 °C 22,5 km/h (4 Bft)
09.12.2019 05:16 4,2 °C 87 % 1006,7 hPa 0,0 mm 16,4 km/h (3 Bft) W-SW 249 ° 0 min 0,000 mm 0,0 UV-I 0 W/m² 2,2 °C 0,5 °C 27,4 km/h (4 Bft)
09.12.2019 05:17 4,2 °C 87 % 1006,6 hPa 0,0 mm 20,5 km/h (4 Bft) W-NW 298 ° 0 min 0,000 mm 0,0 UV-I 0 W/m² 2,2 °C -0,0 °C 25,7 km/h (4 Bft)
09.12.2019 05:18 4,2 °C 87 % 1006,6 hPa 0,0 mm 15,6 km/h (3 Bft) W-SW 256 ° 0 min 0,000 mm 0,0 UV-I 0 W/m² 2,2 °C 0,7 °C 22,5 km/h (4 Bft)
09.12.2019 05:19 4,2 °C 87 % 1006,7 hPa 0,0 mm 14,9 km/h (3 Bft) W-SW 249 ° 0 min 0,000 mm 0,0 UV-I 0 W/m² 2,2 °C 0,8 °C 22,5 km/h (4 Bft)
09.12.2019 05:20 4,2 °C 86 % 1006,5 hPa 0,0 mm 17,4 km/h (3 Bft) W-SW 251 ° 0 min 0,000 mm 0,0 UV-I 0 W/m² 2,1 °C 0,4 °C 27,4 km/h (4 Bft)
09.12.2019 05:21 4,2 °C 87 % 1006,5 hPa 0,0 mm 15,6 km/h (3 Bft) W-SW 252 ° 0 min 0,000 mm 0,0 UV-I 0 W/m² 2,2 °C 0,7 °C 20,9 km/h (4 Bft)
09.12.2019 05:22 4,2 °C 86 % 1006,5 hPa 0,0 mm 14,6 km/h (3 Bft) W-NW 293 ° 0 min 0,000 mm 0,0 UV-I 0 W/m² 2,1 °C 0,8 °C 22,5 km/h (4 Bft)
09.12.2019 05:23 4,2 °C 86 % 1006,5 hPa 0,0 mm 18,2 km/h (3 Bft) W-NW 290 ° 0 min 0,000 mm 0,0 UV-I 0 W/m² 2,1 °C 0,3 °C 27,4 km/h (4 Bft)
09.12.2019 05:24 4,2 °C 86 % 1006,4 hPa 0,0 mm 18,0 km/h (3 Bft) W 261 ° 0 min 0,000 mm 0,0 UV-I 0 W/m² 2,1 °C 0,3 °C 22,5 km/h (4 Bft)
09.12.2019 05:25 4,2 °C 86 % 1006,5 hPa 0,0 mm 17,0 km/h (3 Bft) W 259 ° 0 min 0,000 mm 0,0 UV-I 0 W/m² 2,1 °C 0,5 °C 25,7 km/h (4 Bft)
09.12.2019 05:26 4,2 °C 86 % 1006,4 hPa 0,0 mm 21,5 km/h (4 Bft) W-NW 284 ° 0 min 0,000 mm 0,0 UV-I 0 W/m² 2,1 °C -0,1 °C 38,6 km/h (5 Bft)
09.12.2019 05:27 4,2 °C 86 % 1006,4 hPa 0,0 mm 25,0 km/h (4 Bft) W 281 ° 0 min 0,000 mm 0,0 UV-I 0 W/m² 2,1 °C -0,5 °C 45,1 km/h (6 Bft)
09.12.2019 05:28 4,2 °C 86 % 1006,4 hPa 0,0 mm 20,5 km/h (4 Bft) NW 306 ° 0 min 0,000 mm 0,0 UV-I 0 W/m² 2,1 °C -0,0 °C 35,4 km/h (5 Bft)
09.12.2019 05:29 4,3 °C 86 % 1006,4 hPa 0,0 mm 29,7 km/h (5 Bft) W 264 ° 0 min 0,000 mm 0,0 UV-I 0 W/m² 2,2 °C -0,8 °C 46,7 km/h (6 Bft)
09.12.2019 05:30 4,3 °C 86 % 1006,4 hPa 0,0 mm 19,6 km/h (3 Bft) W-NW 290 ° 0 min 0,000 mm 0,0 UV-I 0 W/m² 2,2 °C 0,2 °C 37,0 km/h (5 Bft)
09.12.2019 05:31 4,3 °C 86 % 1006,4 hPa 0,0 mm 25,9 km/h (4 Bft) W-NW 290 ° 0 min 0,000 mm 0,0 UV-I 0 W/m² 2,2 °C -0,5 °C 38,6 km/h (5 Bft)
09.12.2019 05:32 4,3 °C 85 % 1006,3 hPa 0,0 mm 15,7 km/h (3 Bft) NW 323 ° 0 min 0,000 mm 0,0 UV-I 0 W/m² 2,0 °C 0,8 °C 22,5 km/h (4 Bft)
09.12.2019 05:33 4,3 °C 85 % 1006,3 hPa 0,0 mm 18,2 km/h (3 Bft) W-SW 249 ° 0 min 0,000 mm 0,0 UV-I 0 W/m² 2,0 °C 0,4 °C 29,0 km/h (5 Bft)
09.12.2019 05:34 4,4 °C 85 % 1006,3 hPa 0,0 mm 15,0 km/h (3 Bft) W 279 ° 0 min 0,000 mm 0,0 UV-I 0 W/m² 2,1 °C 1,0 °C 25,7 km/h (4 Bft)
09.12.2019 05:35 4,4 °C 85 % 1006,2 hPa 0,0 mm 15,2 km/h (3 Bft) W-SW 256 ° 0 min 0,000 mm 0,0 UV-I 0 W/m² 2,1 °C 1,0 °C 20,9 km/h (4 Bft)
09.12.2019 05:36 4,4 °C 85 % 1006,2 hPa 0,0 mm 18,2 km/h (3 Bft) W 264 ° 0 min 0,000 mm 0,0 UV-I 0 W/m² 2,1 °C 0,5 °C 27,4 km/h (4 Bft)
09.12.2019 05:37 4,4 °C 85 % 1006,2 hPa 0,0 mm 20,4 km/h (4 Bft) W 261 ° 0 min 0,000 mm 0,0 UV-I 0 W/m² 2,1 °C 0,3 °C 25,7 km/h (4 Bft)
09.12.2019 05:38 4,4 °C 85 % 1006,2 hPa 0,0 mm 18,8 km/h (3 Bft) SW 234 ° 0 min 0,000 mm 0,0 UV-I 0 W/m² 2,1 °C 0,5 °C 27,4 km/h (4 Bft)
09.12.2019 05:39 4,4 °C 85 % 1006,1 hPa 0,0 mm 21,7 km/h (4 Bft) W 280 ° 0 min 0,000 mm 0,0 UV-I 0 W/m² 2,1 °C 0,1 °C 29,0 km/h (5 Bft)
09.12.2019 05:40 4,4 °C 85 % 1006,0 hPa 0,0 mm 18,9 km/h (3 Bft) W-SW 238 ° 0 min 0,000 mm 0,0 UV-I 0 W/m² 2,1 °C 0,4 °C 25,7 km/h (4 Bft)
09.12.2019 05:41 4,4 °C 85 % 1006,0 hPa 0,0 mm 15,4 km/h (3 Bft) W-SW 257 ° 0 min 0,000 mm 0,0 UV-I 0 W/m² 2,1 °C 0,9 °C 29,0 km/h (5 Bft)
09.12.2019 05:42 4,4 °C 85 % 1006,0 hPa 0,0 mm 11,5 km/h (2 Bft) W 267 ° 0 min 0,000 mm 0,0 UV-I 0 W/m² 2,1 °C 1,6 °C 16,1 km/h (3 Bft)
09.12.2019 05:43 4,4 °C 85 % 1006,1 hPa 0,0 mm 15,7 km/h (3 Bft) W 270 ° 0 min 0,000 mm 0,0 UV-I 0 W/m² 2,1 °C 0,9 °C 22,5 km/h (4 Bft)
09.12.2019 05:44 4,4 °C 85 % 1006,1 hPa 0,0 mm 17,1 km/h (3 Bft) W 273 ° 0 min 0,000 mm 0,0 UV-I 0 W/m² 2,1 °C 0,7 °C 24,1 km/h (4 Bft)
09.12.2019 05:45 4,4 °C 85 % 1006,1 hPa 0,0 mm 14,4 km/h (3 Bft) W 269 ° 0 min 0,000 mm 0,0 UV-I 0 W/m² 2,1 °C 1,1 °C 20,9 km/h (4 Bft)
09.12.2019 05:46 4,4 °C 85 % 1006,0 hPa 0,0 mm 15,2 km/h (3 Bft) W-SW 250 ° 0 min 0,000 mm 0,0 UV-I 0 W/m² 2,1 °C 1,0 °C 25,7 km/h (4 Bft)
09.12.2019 05:47 4,4 °C 85 % 1006,0 hPa 0,0 mm 16,9 km/h (3 Bft) W 263 ° 0 min 0,000 mm 0,0 UV-I 0 W/m² 2,1 °C 0,7 °C 25,7 km/h (4 Bft)
09.12.2019 05:48 4,4 °C 85 % 1006,0 hPa 0,0 mm 13,3 km/h (3 Bft) W 279 ° 0 min 0,000 mm 0,0 UV-I 0 W/m² 2,1 °C 1,3 °C 19,3 km/h (3 Bft)
09.12.2019 05:49 4,4 °C 85 % 1006,0 hPa 0,0 mm 12,7 km/h (3 Bft) W-SW 254 ° 0 min 0,000 mm 0,0 UV-I 0 W/m² 2,1 °C 1,4 °C 16,1 km/h (3 Bft)
09.12.2019 05:50 4,4 °C 85 % 1006,0 hPa 0,0 mm 11,9 km/h (2 Bft) W 277 ° 0 min 0,000 mm 0,0 UV-I 0 W/m² 2,1 °C 1,5 °C 16,1 km/h (3 Bft)
09.12.2019 05:51 4,3 °C 85 % 1006,0 hPa 0,0 mm 17,9 km/h (3 Bft) W-SW 258 ° 0 min 0,000 mm 0,0 UV-I 0 W/m² 2,0 °C 0,5 °C 24,1 km/h (4 Bft)
09.12.2019 05:52 4,4 °C 85 % 1006,0 hPa 0,0 mm 12,9 km/h (3 Bft) W 262 ° 0 min 0,000 mm 0,0 UV-I 0 W/m² 2,1 °C 1,4 °C 20,9 km/h (4 Bft)
09.12.2019 05:53 4,4 °C 85 % 1006,0 hPa 0,0 mm 11,4 km/h (2 Bft) W-SW 257 ° 0 min 0,000 mm 0,0 UV-I 0 W/m² 2,1 °C 1,6 °C 16,1 km/h (3 Bft)
09.12.2019 05:54 4,4 °C 85 % 1005,9 hPa 0,0 mm 14,2 km/h (3 Bft) W-SW 254 ° 0 min 0,000 mm 0,0 UV-I 0 W/m² 2,1 °C 1,1 °C 19,3 km/h (3 Bft)
09.12.2019 05:55 4,4 °C 85 % 1005,9 hPa 0,0 mm 18,1 km/h (3 Bft) NW 306 ° 0 min 0,000 mm 0,0 UV-I 0 W/m² 2,1 °C 0,6 °C 22,5 km/h (4 Bft)
09.12.2019 05:56 4,4 °C 85 % 1005,8 hPa 0,0 mm 17,8 km/h (3 Bft) W 271 ° 0 min 0,000 mm 0,0 UV-I 0 W/m² 2,1 °C 0,6 °C 22,5 km/h (4 Bft)
09.12.2019 05:57 4,4 °C 85 % 1005,8 hPa 0,0 mm 17,8 km/h (3 Bft) W 272 ° 0 min 0,000 mm 0,0 UV-I 0 W/m² 2,1 °C 0,6 °C 27,4 km/h (4 Bft)
09.12.2019 05:58 4,4 °C 85 % 1005,8 hPa 0,0 mm 18,9 km/h (3 Bft) W 271 ° 0 min 0,000 mm 0,0 UV-I 0 W/m² 2,1 °C 0,4 °C 25,7 km/h (4 Bft)
09.12.2019 05:59 4,4 °C 85 % 1005,7 hPa 0,0 mm 21,2 km/h (4 Bft) W-SW 251 ° 0 min 0,000 mm 0,0 UV-I 0 W/m² 2,1 °C 0,2 °C 29,0 km/h (5 Bft)
09.12.2019 06:00 4,4 °C 84 % 1005,7 hPa 0,0 mm 17,3 km/h (3 Bft) NW 313 ° 0 min 0,025 mm 0,0 UV-I 0 W/m² 1,9 °C 0,7 °C 25,7 km/h (4 Bft)
09.12.2019 06:01 4,4 °C 84 % 1005,7 hPa 0,0 mm 18,6 km/h (3 Bft) W 268 ° 0 min 0,000 mm 0,0 UV-I 0 W/m² 1,9 °C 0,5 °C 27,4 km/h (4 Bft)
09.12.2019 06:02 4,4 °C 84 % 1005,7 hPa 0,0 mm 16,8 km/h (3 Bft) W-NW 298 ° 0 min 0,000 mm 0,0 UV-I 0 W/m² 1,9 °C 0,7 °C 29,0 km/h (5 Bft)
09.12.2019 06:03 4,4 °C 84 % 1005,7 hPa 0,0 mm 14,3 km/h (3 Bft) W-SW 254 ° 0 min 0,000 mm 0,0 UV-I 0 W/m² 1,9 °C 1,1 °C 22,5 km/h (4 Bft)
09.12.2019 06:04 4,5 °C 84 % 1005,7 hPa 0,0 mm 19,2 km/h (3 Bft) W-SW 248 ° 0 min 0,000 mm 0,0 UV-I 0 W/m² 2,0 °C 0,5 °C 29,0 km/h (5 Bft)
09.12.2019 06:05 4,5 °C 84 % 1005,6 hPa 0,0 mm 14,4 km/h (3 Bft) W 267 ° 0 min 0,000 mm 0,0 UV-I 0 W/m² 2,0 °C 1,2 °C 20,9 km/h (4 Bft)
09.12.2019 06:06 4,4 °C 84 % 1005,7 hPa 0,0 mm 18,1 km/h (3 Bft) W-SW 246 ° 0 min 0,000 mm 0,0 UV-I 0 W/m² 1,9 °C 0,6 °C 25,7 km/h (4 Bft)
09.12.2019 06:07 4,5 °C 83 % 1005,6 hPa 0,0 mm 15,8 km/h (3 Bft) W-SW 252 ° 0 min 0,000 mm 0,0 UV-I 0 W/m² 1,9 °C 1,0 °C 22,5 km/h (4 Bft)
09.12.2019 06:08 4,5 °C 83 % 1005,7 hPa 0,0 mm 16,2 km/h (3 Bft) W 267 ° 0 min 0,000 mm 0,0 UV-I 0 W/m² 1,9 °C 0,9 °C 27,4 km/h (4 Bft)
09.12.2019 06:09 4,6 °C 83 % 1005,6 hPa 0,0 mm 18,1 km/h (3 Bft) W 259 ° 0 min 0,000 mm 0,0 UV-I 0 W/m² 2,0 °C 0,8 °C 25,7 km/h (4 Bft)
09.12.2019 06:10 4,6 °C 83 % 1005,5 hPa 0,0 mm 22,5 km/h (4 Bft) W-SW 237 ° 0 min 0,000 mm 0,0 UV-I 0 W/m² 2,0 °C 0,3 °C 27,4 km/h (4 Bft)
09.12.2019 06:11 4,6 °C 83 % 1005,7 hPa 0,0 mm 19,2 km/h (3 Bft) W 265 ° 0 min 0,000 mm 0,0 UV-I 0 W/m² 2,0 °C 0,7 °C 25,7 km/h (4 Bft)
09.12.2019 06:12 4,6 °C 82 % 1005,6 hPa 0,0 mm 18,6 km/h (3 Bft) W 269 ° 0 min 0,000 mm 0,0 UV-I 0 W/m² 1,8 °C 0,7 °C 25,7 km/h (4 Bft)
09.12.2019 06:13 4,6 °C 82 % 1005,7 hPa 0,0 mm 15,9 km/h (3 Bft) W-SW 248 ° 0 min 0,000 mm 0,0 UV-I 0 W/m² 1,8 °C 1,1 °C 22,5 km/h (4 Bft)
09.12.2019 06:14 4,6 °C 82 % 1005,6 hPa 0,0 mm 16,7 km/h (3 Bft) W 279 ° 0 min 0,000 mm 0,0 UV-I 0 W/m² 1,8 °C 1,0 °C 19,3 km/h (3 Bft)
09.12.2019 06:15 4,6 °C 81 % 1005,7 hPa 0,0 mm 16,4 km/h (3 Bft) NW 304 ° 0 min 0,000 mm 0,0 UV-I 0 W/m² 1,6 °C 1,0 °C 29,0 km/h (5 Bft)
09.12.2019 06:16 4,7 °C 81 % 1005,8 hPa 0,0 mm 11,5 km/h (2 Bft) W 279 ° 0 min 0,000 mm 0,0 UV-I 0 W/m² 1,7 °C 2,0 °C 16,1 km/h (3 Bft)
09.12.2019 06:17 4,7 °C 81 % 1005,8 hPa 0,0 mm 17,6 km/h (3 Bft) NW 305 ° 0 min 0,000 mm 0,0 UV-I 0 W/m² 1,7 °C 1,0 °C 27,4 km/h (4 Bft)
09.12.2019 06:18 4,7 °C 80 % 1005,8 hPa 0,0 mm 14,7 km/h (3 Bft) W 270 ° 0 min 0,000 mm 0,0 UV-I 0 W/m² 1,6 °C 1,4 °C 22,5 km/h (4 Bft)
09.12.2019 06:19 4,7 °C 80 % 1005,8 hPa 0,0 mm 15,0 km/h (3 Bft) W 279 ° 0 min 0,000 mm 0,0 UV-I 0 W/m² 1,6 °C 1,4 °C 22,5 km/h (4 Bft)
09.12.2019 06:20 4,8 °C 80 % 1005,8 hPa 0,0 mm 15,8 km/h (3 Bft) W-NW 286 ° 0 min 0,000 mm 0,0 UV-I 0 W/m² 1,6 °C 1,4 °C 22,5 km/h (4 Bft)
09.12.2019 06:21 4,8 °C 79 % 1005,8 hPa 0,0 mm 19,0 km/h (3 Bft) W-SW 246 ° 0 min 0,000 mm 0,0 UV-I 0 W/m² 1,5 °C 0,9 °C 27,4 km/h (4 Bft)
09.12.2019 06:22 4,8 °C 79 % 1005,8 hPa 0,0 mm 20,5 km/h (4 Bft) W-SW 250 ° 0 min 0,000 mm 0,0 UV-I 0 W/m² 1,5 °C 0,8 °C 27,4 km/h (4 Bft)
09.12.2019 06:23 4,9 °C 78 % 1005,8 hPa 0,0 mm 17,2 km/h (3 Bft) W 277 ° 0 min 0,000 mm 0,0 UV-I 0 W/m² 1,4 °C 1,3 °C 29,0 km/h (5 Bft)
09.12.2019 06:24 4,9 °C 78 % 1005,8 hPa 0,0 mm 23,7 km/h (4 Bft) W 267 ° 0 min 0,000 mm 0,0 UV-I 0 W/m² 1,4 °C 0,5 °C 32,2 km/h (5 Bft)
09.12.2019 06:25 4,9 °C 77 % 1005,7 hPa 0,0 mm 19,5 km/h (3 Bft) W 261 ° 0 min 0,000 mm 0,0 UV-I 0 W/m² 1,2 °C 1,0 °C 25,7 km/h (4 Bft)
09.12.2019 06:26 5,0 °C 77 % 1005,7 hPa 0,0 mm 22,3 km/h (4 Bft) W 263 ° 0 min 0,000 mm 0,0 UV-I 0 W/m² 1,3 °C 0,8 °C 41,8 km/h (6 Bft)
09.12.2019 06:27 5,1 °C 77 % 1005,8 hPa 0,0 mm 22,0 km/h (4 Bft) W 268 ° 0 min 0,000 mm 0,0 UV-I 0 W/m² 1,4 °C 1,0 °C 32,2 km/h (5 Bft)
09.12.2019 06:28 5,1 °C 77 % 1005,8 hPa 0,0 mm 20,0 km/h (4 Bft) W-SW 249 ° 0 min 0,000 mm 0,0 UV-I 0 W/m² 1,4 °C 1,2 °C 25,7 km/h (4 Bft)
09.12.2019 06:29 5,1 °C 76 % 1005,8 hPa 0,0 mm 26,4 km/h (4 Bft) W 267 ° 0 min 0,000 mm 0,0 UV-I 0 W/m² 1,2 °C 0,5 °C 35,4 km/h (5 Bft)
09.12.2019 06:30 5,1 °C 76 % 1005,8 hPa 0,0 mm 22,1 km/h (4 Bft) W 261 ° 0 min 0,000 mm 0,0 UV-I 0 W/m² 1,2 °C 1,0 °C 32,2 km/h (5 Bft)
09.12.2019 06:31 5,1 °C 76 % 1005,8 hPa 0,0 mm 17,4 km/h (3 Bft) SW 230 ° 0 min 0,000 mm 0,0 UV-I 0 W/m² 1,2 °C 1,5 °C 22,5 km/h (4 Bft)
09.12.2019 06:32 5,1 °C 76 % 1005,8 hPa 0,0 mm 19,6 km/h (3 Bft) W 272 ° 0 min 0,000 mm 0,0 UV-I 0 W/m² 1,2 °C 1,2 °C 25,7 km/h (4 Bft)
09.12.2019 06:33 5,2 °C 76 % 1005,8 hPa 0,0 mm 20,1 km/h (4 Bft) W-SW 256 ° 0 min 0,000 mm 0,0 UV-I 0 W/m² 1,3 °C 1,3 °C 29,0 km/h (5 Bft)
09.12.2019 06:34 5,2 °C 76 % 1005,8 hPa 0,0 mm 16,6 km/h (3 Bft) W-SW 257 ° 0 min 0,000 mm 0,0 UV-I 0 W/m² 1,3 °C 1,8 °C 24,1 km/h (4 Bft)
09.12.2019 06:35 5,2 °C 76 % 1005,8 hPa 0,0 mm 19,1 km/h (3 Bft) W 264 ° 0 min 0,000 mm 0,0 UV-I 0 W/m² 1,3 °C 1,4 °C 25,7 km/h (4 Bft)
09.12.2019 06:36 5,2 °C 75 % 1005,7 hPa 0,0 mm 22,6 km/h (4 Bft) W-SW 252 ° 0 min 0,000 mm 0,0 UV-I 0 W/m² 1,1 °C 1,0 °C 29,0 km/h (5 Bft)
09.12.2019 06:37 5,2 °C 75 % 1005,7 hPa 0,0 mm 23,3 km/h (4 Bft) W 261 ° 0 min 0,000 mm 0,0 UV-I 0 W/m² 1,1 °C 0,9 °C 29,0 km/h (5 Bft)
09.12.2019 06:38 5,2 °C 74 % 1005,6 hPa 0,0 mm 19,0 km/h (3 Bft) W 261 ° 0 min 0,000 mm 0,0 UV-I 0 W/m² 1,0 °C 1,4 °C 27,4 km/h (4 Bft)
09.12.2019 06:39 5,2 °C 74 % 1005,7 hPa 0,0 mm 23,3 km/h (4 Bft) W-SW 254 ° 0 min 0,000 mm 0,0 UV-I 0 W/m² 1,0 °C 0,9 °C 29,0 km/h (5 Bft)
09.12.2019 06:40 5,3 °C 74 % 1005,7 hPa 0,0 mm 17,3 km/h (3 Bft) W 259 ° 0 min 0,000 mm 0,0 UV-I 0 W/m² 1,0 °C 1,8 °C 24,1 km/h (4 Bft)
09.12.2019 06:41 5,3 °C 74 % 1005,7 hPa 0,0 mm 13,5 km/h (3 Bft) W 267 ° 0 min 0,000 mm 0,0 UV-I 0 W/m² 1,0 °C 2,4 °C 20,9 km/h (4 Bft)
09.12.2019 06:42 5,3 °C 74 % 1005,7 hPa 0,0 mm 17,1 km/h (3 Bft) W-SW 258 ° 0 min 0,000 mm 0,0 UV-I 0 W/m² 1,0 °C 1,8 °C 24,1 km/h (4 Bft)
09.12.2019 06:43 5,3 °C 74 % 1005,8 hPa 0,0 mm 28,3 km/h (4 Bft) W 267 ° 0 min 0,000 mm 0,0 UV-I 0 W/m² 1,0 °C 0,6 °C 45,1 km/h (6 Bft)
09.12.2019 06:44 5,3 °C 73 % 1005,7 hPa 0,0 mm 32,1 km/h (5 Bft) W-NW 298 ° 0 min 0,000 mm 0,0 UV-I 0 W/m² 0,9 °C 0,3 °C 57,9 km/h (7 Bft)
09.12.2019 06:45 5,4 °C 72 % 1005,7 hPa 0,0 mm 28,1 km/h (4 Bft) W-NW 287 ° 0 min 0,000 mm 0,0 UV-I 0 W/m² 0,8 °C 0,7 °C 37,0 km/h (5 Bft)
09.12.2019 06:46 5,4 °C 72 % 1005,6 hPa 0,0 mm 17,8 km/h (3 Bft) W 277 ° 0 min 0,000 mm 0,0 UV-I 0 W/m² 0,8 °C 1,8 °C 27,4 km/h (4 Bft)
09.12.2019 06:47 5,5 °C 72 % 1005,8 hPa 0,0 mm 22,3 km/h (4 Bft) W 259 ° 0 min 0,000 mm 0,0 UV-I 0 W/m² 0,9 °C 1,4 °C 32,2 km/h (5 Bft)
09.12.2019 06:48 5,5 °C 72 % 1005,7 hPa 0,0 mm 21,7 km/h (4 Bft) W 265 ° 0 min 0,000 mm 0,0 UV-I 0 W/m² 0,9 °C 1,5 °C 30,6 km/h (5 Bft)
09.12.2019 06:49 5,5 °C 72 % 1005,7 hPa 0,0 mm 23,9 km/h (4 Bft) W-SW 246 ° 0 min 0,000 mm 0,0 UV-I 0 W/m² 0,9 °C 1,3 °C 33,8 km/h (5 Bft)
09.12.2019 06:50 5,5 °C 72 % 1005,6 hPa 0,0 mm 20,4 km/h (4 Bft) W 271 ° 0 min 0,000 mm 0,0 UV-I 0 W/m² 0,9 °C 1,7 °C 27,4 km/h (4 Bft)
09.12.2019 06:51 5,5 °C 72 % 1005,7 hPa 0,0 mm 21,1 km/h (4 Bft) W-NW 295 ° 0 min 0,000 mm 0,0 UV-I 0 W/m² 0,9 °C 1,6 °C 32,2 km/h (5 Bft)
09.12.2019 06:52 5,6 °C 72 % 1005,7 hPa 0,0 mm 17,1 km/h (3 Bft) W 277 ° 0 min 0,000 mm 0,0 UV-I 0 W/m² 1,0 °C 2,2 °C 24,1 km/h (4 Bft)
09.12.2019 06:53 5,6 °C 71 % 1005,6 hPa 0,0 mm 23,9 km/h (4 Bft) W-NW 284 ° 0 min 0,000 mm 0,0 UV-I 0 W/m² 0,8 °C 1,4 °C 32,2 km/h (5 Bft)
09.12.2019 06:54 5,6 °C 71 % 1005,6 hPa 0,0 mm 18,5 km/h (3 Bft) W 273 ° 0 min 0,000 mm 0,0 UV-I 0 W/m² 0,8 °C 2,0 °C 24,1 km/h (4 Bft)
09.12.2019 06:55 5,6 °C 72 % 1005,6 hPa 0,0 mm 14,7 km/h (3 Bft) W-SW 249 ° 0 min 0,000 mm 0,0 UV-I 0 W/m² 1,0 °C 2,5 °C 20,9 km/h (4 Bft)
09.12.2019 06:56 5,6 °C 72 % 1005,6 hPa 0,0 mm 15,6 km/h (3 Bft) W-SW 248 ° 0 min 0,000 mm 0,0 UV-I 0 W/m² 1,0 °C 2,4 °C 20,9 km/h (4 Bft)
09.12.2019 06:57 5,6 °C 72 % 1005,6 hPa 0,0 mm 12,5 km/h (3 Bft) W 271 ° 0 min 0,000 mm 0,0 UV-I 0 W/m² 1,0 °C 2,9 °C 17,7 km/h (3 Bft)
09.12.2019 06:58 5,5 °C 72 % 1005,6 hPa 0,0 mm 10,3 km/h (2 Bft) W-NW 296 ° 0 min 0,000 mm 0,0 UV-I 0 W/m² 0,9 °C 3,2 °C 16,1 km/h (3 Bft)
09.12.2019 06:59 5,4 °C 72 % 1005,6 hPa 0,0 mm 14,3 km/h (3 Bft) W-NW 288 ° 0 min 0,000 mm 0,0 UV-I 0 W/m² 0,8 °C 2,4 °C 20,9 km/h (4 Bft)
09.12.2019 07:00 5,5 °C 72 % 1005,6 hPa 0,0 mm 14,4 km/h (3 Bft) NW 305 ° 0 min 0,051 mm 0,0 UV-I 0 W/m² 0,9 °C 2,5 °C 19,3 km/h (3 Bft)
09.12.2019 07:01 5,4 °C 72 % 1005,5 hPa 0,0 mm 12,2 km/h (2 Bft) W 268 ° 0 min 0,000 mm 0,0 UV-I 0 W/m² 0,8 °C 2,7 °C 19,3 km/h (3 Bft)
09.12.2019 07:02 5,4 °C 72 % 1005,5 hPa 0,0 mm 8,8 km/h (2 Bft) W 261 ° 0 min 0,000 mm 0,0 UV-I 0 W/m² 0,8 °C 3,4 °C 12,9 km/h (3 Bft)
09.12.2019 07:03 5,4 °C 72 % 1005,6 hPa 0,0 mm 16,4 km/h (3 Bft) W-SW 257 ° 0 min 0,000 mm 0,0 UV-I 0 W/m² 0,8 °C 2,0 °C 24,1 km/h (4 Bft)
09.12.2019 07:04 5,4 °C 72 % 1005,5 hPa 0,0 mm 11,0 km/h (2 Bft) W 275 ° 0 min 0,000 mm 0,0 UV-I 0 W/m² 0,8 °C 2,9 °C 16,1 km/h (3 Bft)
09.12.2019 07:05 5,4 °C 72 % 1005,6 hPa 0,0 mm 13,8 km/h (3 Bft) NW 312 ° 0 min 0,000 mm 0,0 UV-I 0 W/m² 0,8 °C 2,4 °C 19,3 km/h (3 Bft)
09.12.2019 07:06 5,3 °C 72 % 1005,6 hPa 0,0 mm 15,4 km/h (3 Bft) W-SW 238 ° 0 min 0,000 mm 0,0 UV-I 0 W/m² 0,7 °C 2,1 °C 20,9 km/h (4 Bft)
09.12.2019 07:07 5,3 °C 72 % 1005,5 hPa 0,0 mm 14,8 km/h (3 Bft) W-SW 251 ° 0 min 0,000 mm 0,0 UV-I 0 W/m² 0,7 °C 2,1 °C 19,3 km/h (3 Bft)
09.12.2019 07:08 5,3 °C 72 % 1005,5 hPa 0,0 mm 26,5 km/h (4 Bft) W 265 ° 0 min 0,000 mm 0,0 UV-I 0 W/m² 0,7 °C 0,8 °C 40,2 km/h (6 Bft)
09.12.2019 07:09 5,3 °C 72 % 1005,5 hPa 0,0 mm 20,3 km/h (4 Bft) W 260 ° 0 min 0,000 mm 0,0 UV-I 0 W/m² 0,7 °C 1,4 °C 27,4 km/h (4 Bft)
09.12.2019 07:10 5,3 °C 72 % 1005,6 hPa 0,0 mm 14,3 km/h (3 Bft) W 272 ° 0 min 0,000 mm 0,0 UV-I 0 W/m² 0,7 °C 2,2 °C 22,5 km/h (4 Bft)
09.12.2019 07:11 5,3 °C 72 % 1005,5 hPa 0,0 mm 16,7 km/h (3 Bft) W 261 ° 0 min 0,000 mm 0,0 UV-I 0 W/m² 0,7 °C 1,9 °C 25,7 km/h (4 Bft)
09.12.2019 07:12 5,4 °C 72 % 1005,7 hPa 0,0 mm 27,7 km/h (4 Bft) W-SW 244 ° 0 min 0,000 mm 0,0 UV-I 0 W/m² 0,8 °C 0,8 °C 40,2 km/h (6 Bft)
09.12.2019 07:13 5,4 °C 71 % 1005,5 hPa 0,0 mm 15,2 km/h (3 Bft) S 180 ° 0 min 0,000 mm 0,0 UV-I 0 W/m² 0,6 °C 2,2 °C 20,9 km/h (4 Bft)
09.12.2019 07:14 5,4 °C 71 % 1005,4 hPa 0,0 mm 19,0 km/h (3 Bft) W-SW 256 ° 0 min 0,000 mm 0,0 UV-I 0 W/m² 0,6 °C 1,7 °C 27,4 km/h (4 Bft)
09.12.2019 07:15 5,4 °C 71 % 1005,5 hPa 0,0 mm 16,2 km/h (3 Bft) W 279 ° 0 min 0,000 mm 0,0 UV-I 0 W/m² 0,6 °C 2,1 °C 22,5 km/h (4 Bft)
09.12.2019 07:16 5,4 °C 71 % 1005,5 hPa 0,0 mm 13,9 km/h (3 Bft) S-SW 197 ° 0 min 0,000 mm 0,0 UV-I 0 W/m² 0,6 °C 2,4 °C 24,1 km/h (4 Bft)
09.12.2019 07:17 5,4 °C 71 % 1005,4 hPa 0,0 mm 17,0 km/h (3 Bft) W-SW 257 ° 0 min 0,000 mm 0,0 UV-I 0 W/m² 0,6 °C 2,0 °C 24,1 km/h (4 Bft)
09.12.2019 07:18 5,5 °C 71 % 1005,4 hPa 0,0 mm 20,9 km/h (4 Bft) S-SW 200 ° 0 min 0,000 mm 0,0 UV-I 0 W/m² 0,7 °C 1,6 °C 27,4 km/h (4 Bft)
09.12.2019 07:19 5,5 °C 71 % 1005,4 hPa 0,0 mm 14,9 km/h (3 Bft) W 260 ° 0 min 0,000 mm 0,0 UV-I 0 W/m² 0,7 °C 2,4 °C 22,5 km/h (4 Bft)
09.12.2019 07:20 5,5 °C 71 % 1005,4 hPa 0,0 mm 20,7 km/h (4 Bft) W-NW 302 ° 0 min 0,000 mm 0,0 UV-I 0 W/m² 0,7 °C 1,6 °C 30,6 km/h (5 Bft)
09.12.2019 07:21 5,5 °C 70 % 1005,4 hPa 0,0 mm 16,6 km/h (3 Bft) W 265 ° 0 min 0,000 mm 0,0 UV-I 0 W/m² 0,5 °C 2,1 °C 22,5 km/h (4 Bft)
09.12.2019 07:22 5,5 °C 70 % 1005,3 hPa 0,0 mm 27,3 km/h (4 Bft) W 265 ° 0 min 0,000 mm 0,0 UV-I 0 W/m² 0,5 °C 0,9 °C 33,8 km/h (5 Bft)
09.12.2019 07:23 5,6 °C 70 % 1005,3 hPa 0,0 mm 19,0 km/h (3 Bft) W-NW 288 ° 0 min 0,000 mm 0,0 UV-I 0 W/m² 0,6 °C 1,9 °C 30,6 km/h (5 Bft)
09.12.2019 07:24 5,6 °C 70 % 1005,4 hPa 0,0 mm 18,9 km/h (3 Bft) W 281 ° 0 min 0,000 mm 0,0 UV-I 0 W/m² 0,6 °C 2,0 °C 27,4 km/h (4 Bft)
09.12.2019 07:25 5,6 °C 69 % 1005,4 hPa 0,0 mm 21,3 km/h (4 Bft) W 270 ° 0 min 0,000 mm 0,0 UV-I 0 W/m² 0,4 °C 1,7 °C 30,6 km/h (5 Bft)
09.12.2019 07:26 5,6 °C 70 % 1005,4 hPa 0,0 mm 15,2 km/h (3 Bft) W 260 ° 0 min 0,000 mm 0,0 UV-I 0 W/m² 0,6 °C 2,5 °C 24,1 km/h (4 Bft)
09.12.2019 07:27 5,6 °C 70 % 1005,4 hPa 0,0 mm 18,2 km/h (3 Bft) S-SW 212 ° 0 min 0,000 mm 0,0 UV-I 0 W/m² 0,6 °C 2,0 °C 27,4 km/h (4 Bft)
09.12.2019 07:28 5,6 °C 69 % 1005,3 hPa 0,0 mm 13,3 km/h (3 Bft) SW 234 ° 0 min 0,000 mm 0,0 UV-I 0 W/m² 0,4 °C 2,8 °C 25,7 km/h (4 Bft)
09.12.2019 07:29 5,6 °C 69 % 1005,4 hPa 0,0 mm 22,0 km/h (4 Bft) W 273 ° 0 min 0,000 mm 0,0 UV-I 0 W/m² 0,4 °C 1,6 °C 38,6 km/h (5 Bft)
09.12.2019 07:30 5,6 °C 69 % 1005,2 hPa 0,0 mm 24,5 km/h (4 Bft) W-SW 254 ° 0 min 0,000 mm 0,0 UV-I 0 W/m² 0,4 °C 1,3 °C 37,0 km/h (5 Bft)
09.12.2019 07:31 5,7 °C 68 % 1005,2 hPa 0,0 mm 16,5 km/h (3 Bft) W-SW 242 ° 0 min 0,000 mm 0,0 UV-I 0 W/m² 0,3 °C 2,4 °C 24,1 km/h (4 Bft)
09.12.2019 07:32 5,7 °C 69 % 1005,5 hPa 0,0 mm 18,3 km/h (3 Bft) W-SW 252 ° 0 min 0,000 mm 0,0 UV-I 0 W/m² 0,5 °C 2,2 °C 29,0 km/h (5 Bft)
09.12.2019 07:33 5,7 °C 69 % 1005,5 hPa 0,0 mm 24,3 km/h (4 Bft) W-SW 256 ° 0 min 0,000 mm 0,0 UV-I 0 W/m² 0,5 °C 1,5 °C 32,2 km/h (5 Bft)
09.12.2019 07:34 5,7 °C 69 % 1005,3 hPa 0,0 mm 18,2 km/h (3 Bft) W 274 ° 0 min 0,000 mm 0,0 UV-I 0 W/m² 0,5 °C 2,2 °C 25,7 km/h (4 Bft)
09.12.2019 07:35 5,7 °C 69 % 1005,3 hPa 0,0 mm 14,1 km/h (3 Bft) S-SW 207 ° 0 min 0,000 mm 0,0 UV-I 0 W/m² 0,5 °C 2,8 °C 25,7 km/h (4 Bft)
09.12.2019 07:36 5,7 °C 69 % 1005,4 hPa 0,0 mm 23,5 km/h (4 Bft) W 261 ° 0 min 0,000 mm 0,0 UV-I 0 W/m² 0,5 °C 1,6 °C 46,7 km/h (6 Bft)
09.12.2019 07:37 5,7 °C 69 % 1005,5 hPa 0,0 mm 28,6 km/h (4 Bft) W-SW 256 ° 0 min 0,000 mm 0,0 UV-I 0 W/m² 0,5 °C 1,1 °C 37,0 km/h (5 Bft)
09.12.2019 07:38 5,7 °C 69 % 1005,5 hPa 0,0 mm 27,4 km/h (4 Bft) W-SW 249 ° 0 min 0,000 mm 0,0 UV-I 0 W/m² 0,5 °C 1,2 °C 38,6 km/h (5 Bft)
09.12.2019 07:39 5,7 °C 69 % 1005,5 hPa 0,0 mm 21,5 km/h (4 Bft) W 270 ° 0 min 0,000 mm 0,0 UV-I 0 W/m² 0,5 °C 1,8 °C 27,4 km/h (4 Bft)
09.12.2019 07:40 5,7 °C 69 % 1005,4 hPa 0,0 mm 17,4 km/h (3 Bft) W-SW 238 ° 0 min 0,000 mm 0,0 UV-I 0 W/m² 0,5 °C 2,3 °C 25,7 km/h (4 Bft)
09.12.2019 07:41 5,7 °C 69 % 1005,4 hPa 0,0 mm 16,2 km/h (3 Bft) W-SW 257 ° 0 min 0,000 mm 0,0 UV-I 0 W/m² 0,5 °C 2,4 °C 20,9 km/h (4 Bft)
09.12.2019 07:42 5,7 °C 69 % 1005,4 hPa 0,0 mm 17,7 km/h (3 Bft) W 263 ° 0 min 0,000 mm 0,0 UV-I 0 W/m² 0,5 °C 2,2 °C 24,1 km/h (4 Bft)
09.12.2019 07:43 5,7 °C 69 % 1005,5 hPa 0,0 mm 13,5 km/h (3 Bft) W 271 ° 0 min 0,000 mm 0,0 UV-I 0 W/m² 0,5 °C 2,8 °C 22,5 km/h (4 Bft)
09.12.2019 07:44 5,7 °C 69 % 1005,3 hPa 0,0 mm 16,4 km/h (3 Bft) W-SW 252 ° 0 min 0,000 mm 0,0 UV-I 0 W/m² 0,5 °C 2,4 °C 20,9 km/h (4 Bft)
09.12.2019 07:45 5,7 °C 69 % 1005,4 hPa 0,0 mm 12,1 km/h (2 Bft) S 173 ° 0 min 0,000 mm 0,0 UV-I 0 W/m² 0,5 °C 3,1 °C 16,1 km/h (3 Bft)
09.12.2019 07:46 5,6 °C 70 % 1005,4 hPa 0,0 mm 15,9 km/h (3 Bft) SW 236 ° 0 min 0,000 mm 0,0 UV-I 0 W/m² 0,6 °C 2,4 °C 24,1 km/h (4 Bft)
09.12.2019 07:47 5,6 °C 70 % 1005,4 hPa 0,0 mm 19,1 km/h (3 Bft) W 265 ° 0 min 0,000 mm 0,0 UV-I 0 W/m² 0,6 °C 1,9 °C 33,8 km/h (5 Bft)
09.12.2019 07:48 5,6 °C 69 % 1005,4 hPa 0,0 mm 21,9 km/h (4 Bft) NO 39 ° 0 min 0,000 mm 0,0 UV-I 0 W/m² 0,4 °C 1,6 °C 30,6 km/h (5 Bft)
09.12.2019 07:49 5,6 °C 70 % 1005,4 hPa 0,0 mm 19,0 km/h (3 Bft) W 261 ° 0 min 0,000 mm 0,0 UV-I 0 W/m² 0,6 °C 1,9 °C 29,0 km/h (5 Bft)
09.12.2019 07:50 5,6 °C 70 % 1005,4 hPa 0,0 mm 18,3 km/h (3 Bft) W 265 ° 0 min 0,000 mm 0,0 UV-I 0 W/m² 0,6 °C 2,0 °C 29,0 km/h (5 Bft)
09.12.2019 07:51 5,6 °C 70 % 1005,4 hPa 0,0 mm 10,7 km/h (2 Bft) W-SW 255 ° 0 min 0,000 mm 0,0 UV-I 0 W/m² 0,6 °C 3,2 °C 14,5 km/h (3 Bft)
09.12.2019 07:52 5,5 °C 71 % 1005,4 hPa 0,0 mm 10,6 km/h (2 Bft) W-SW 248 ° 0 min 0,000 mm 0,0 UV-I 0 W/m² 0,7 °C 3,1 °C 14,5 km/h (3 Bft)
09.12.2019 07:53 5,5 °C 71 % 1005,4 hPa 0,0 mm 15,2 km/h (3 Bft) W-SW 254 ° 0 min 0,000 mm 0,0 UV-I 0 W/m² 0,7 °C 2,3 °C 20,9 km/h (4 Bft)
09.12.2019 07:54 5,4 °C 71 % 1005,4 hPa 0,0 mm 12,4 km/h (3 Bft) W-NW 301 ° 0 min 0,000 mm 0,0 UV-I 0 W/m² 0,6 °C 2,7 °C 20,9 km/h (4 Bft)
09.12.2019 07:55 5,4 °C 71 % 1005,4 hPa 0,0 mm 11,5 km/h (2 Bft) W 261 ° 0 min 0,000 mm 0,0 UV-I 0 W/m² 0,6 °C 2,8 °C 20,9 km/h (4 Bft)
09.12.2019 07:56 5,4 °C 71 % 1005,5 hPa 0,0 mm 18,6 km/h (3 Bft) W-SW 254 ° 0 min 0,000 mm 0,0 UV-I 0 W/m² 0,6 °C 1,7 °C 24,1 km/h (4 Bft)
09.12.2019 07:57 5,4 °C 71 % 1005,4 hPa 0,0 mm 14,3 km/h (3 Bft) W-NW 286 ° 0 min 0,000 mm 0,0 UV-I 0 W/m² 0,6 °C 2,4 °C 20,9 km/h (4 Bft)
09.12.2019 07:58 5,4 °C 71 % 1005,5 hPa 0,0 mm 10,9 km/h (2 Bft) W 269 ° 0 min 0,000 mm 0,0 UV-I 0 W/m² 0,6 °C 3,0 °C 14,5 km/h (3 Bft)
09.12.2019 07:59 5,3 °C 71 % 1005,5 hPa 0,0 mm 17,3 km/h (3 Bft) W 270 ° 0 min 0,000 mm 0,0 UV-I 0 W/m² 0,5 °C 1,8 °C 22,5 km/h (4 Bft)
09.12.2019 08:00 5,3 °C 71 % 1005,4 hPa 0,0 mm 14,5 km/h (3 Bft) W 262 ° 0 min 0,000 mm 0,0 UV-I 0 W/m² 0,5 °C 2,2 °C 19,3 km/h (3 Bft)
09.12.2019 08:01 5,3 °C 71 % 1005,4 hPa 0,0 mm 15,7 km/h (3 Bft) W-NW 298 ° 0 min 0,051 mm 0,0 UV-I 0 W/m² 0,5 °C 2,0 °C 19,3 km/h (3 Bft)
09.12.2019 08:02 5,3 °C 72 % 1005,4 hPa 0,0 mm 13,4 km/h (3 Bft) W 263 ° 0 min 0,000 mm 0,0 UV-I 0 W/m² 0,7 °C 2,4 °C 22,5 km/h (4 Bft)
09.12.2019 08:03 5,3 °C 72 % 1005,5 hPa 0,0 mm 11,1 km/h (2 Bft) SW 228 ° 0 min 0,000 mm 0,0 UV-I 0 W/m² 0,7 °C 2,8 °C 19,3 km/h (3 Bft)
09.12.2019 08:04 5,2 °C 72 % 1005,4 hPa 0,0 mm 18,1 km/h (3 Bft) W 281 ° 0 min 0,000 mm 0,0 UV-I 0 W/m² 0,6 °C 1,6 °C 25,7 km/h (4 Bft)
09.12.2019 08:05 5,2 °C 72 % 1005,4 hPa 0,0 mm 16,6 km/h (3 Bft) W 281 ° 0 min 0,000 mm 0,0 UV-I 0 W/m² 0,6 °C 1,8 °C 22,5 km/h (4 Bft)
09.12.2019 08:06 5,2 °C 72 % 1005,5 hPa 0,0 mm 14,3 km/h (3 Bft) W 264 ° 0 min 0,000 mm 0,0 UV-I 5 W/m² 0,6 °C 2,1 °C 22,5 km/h (4 Bft)
09.12.2019 08:07 5,2 °C 72 % 1005,3 hPa 0,0 mm 15,6 km/h (3 Bft) W-NW 284 ° 0 min 0,000 mm 0,0 UV-I 5 W/m² 0,6 °C 1,9 °C 20,9 km/h (4 Bft)
09.12.2019 08:08 5,1 °C 73 % 1005,3 hPa 0,0 mm 15,2 km/h (3 Bft) W 262 ° 0 min 0,000 mm 0,0 UV-I 5 W/m² 0,7 °C 1,8 °C 19,3 km/h (3 Bft)
09.12.2019 08:09 5,1 °C 73 % 1005,3 hPa 0,0 mm 8,4 km/h (2 Bft) W 281 ° 0 min 0,000 mm 0,0 UV-I 5 W/m² 0,7 °C 3,1 °C 11,3 km/h (2 Bft)
09.12.2019 08:10 5,1 °C 73 % 1005,4 hPa 0,0 mm 9,0 km/h (2 Bft) W-SW 252 ° 0 min 0,000 mm 0,0 UV-I 5 W/m² 0,7 °C 3,0 °C 12,9 km/h (3 Bft)
09.12.2019 08:11 5,1 °C 73 % 1005,4 hPa 0,0 mm 10,5 km/h (2 Bft) W-SW 257 ° 0 min 0,000 mm 0,0 UV-I 5 W/m² 0,7 °C 2,7 °C 14,5 km/h (3 Bft)
09.12.2019 08:12 5,1 °C 73 % 1005,5 hPa 0,0 mm 9,7 km/h (2 Bft) W 267 ° 0 min 0,000 mm 0,0 UV-I 5 W/m² 0,7 °C 2,8 °C 14,5 km/h (3 Bft)
09.12.2019 08:13 5,0 °C 73 % 1005,5 hPa 0,0 mm 11,0 km/h (2 Bft) W 259 ° 0 min 0,000 mm 0,0 UV-I 5 W/m² 0,6 °C 2,4 °C 17,7 km/h (3 Bft)
09.12.2019 08:14 5,0 °C 73 % 1005,5 hPa 0,0 mm 9,9 km/h (2 Bft) SW 234 ° 0 min 0,000 mm 0,0 UV-I 5 W/m² 0,6 °C 2,7 °C 14,5 km/h (3 Bft)
09.12.2019 08:15 4,9 °C 73 % 1005,5 hPa 0,0 mm 11,6 km/h (2 Bft) W-SW 250 ° 0 min 0,000 mm 0,0 UV-I 7 W/m² 0,5 °C 2,2 °C 14,5 km/h (3 Bft)
09.12.2019 08:16 4,9 °C 73 % 1005,5 hPa 0,0 mm 9,9 km/h (2 Bft) W-NW 287 ° 0 min 0,000 mm 0,0 UV-I 7 W/m² 0,5 °C 2,6 °C 16,1 km/h (3 Bft)
09.12.2019 08:17 4,9 °C 73 % 1005,6 hPa 0,0 mm 12,7 km/h (3 Bft) W 268 ° 0 min 0,000 mm 0,0 UV-I 7 W/m² 0,5 °C 2,0 °C 17,7 km/h (3 Bft)
09.12.2019 08:18 4,9 °C 74 % 1005,6 hPa 0,0 mm 10,0 km/h (2 Bft) W-SW 254 ° 0 min 0,000 mm 0,0 UV-I 9 W/m² 0,7 °C 2,5 °C 12,9 km/h (3 Bft)
09.12.2019 08:19 4,9 °C 74 % 1005,6 hPa 0,0 mm 9,5 km/h (2 Bft) W-NW 284 ° 0 min 0,000 mm 0,0 UV-I 11 W/m² 0,7 °C 2,7 °C 12,9 km/h (3 Bft)
09.12.2019 08:20 4,8 °C 74 % 1005,6 hPa 0,0 mm 9,3 km/h (2 Bft) W 263 ° 0 min 0,000 mm 0,0 UV-I 11 W/m² 0,6 °C 2,6 °C 12,9 km/h (3 Bft)
09.12.2019 08:21 4,8 °C 74 % 1005,6 hPa 0,0 mm 6,6 km/h (2 Bft) W-SW 252 ° 0 min 0,000 mm 0,0 UV-I 11 W/m² 0,6 °C 3,3 °C 12,9 km/h (3 Bft)
09.12.2019 08:22 4,8 °C 74 % 1005,6 hPa 0,0 mm 8,4 km/h (2 Bft) W-NW 293 ° 0 min 0,000 mm 0,0 UV-I 11 W/m² 0,6 °C 2,8 °C 14,5 km/h (3 Bft)
09.12.2019 08:23 4,8 °C 74 % 1005,6 hPa 0,0 mm 9,0 km/h (2 Bft) SW 234 ° 0 min 0,000 mm 0,0 UV-I 11 W/m² 0,6 °C 2,6 °C 16,1 km/h (3 Bft)
09.12.2019 08:24 4,8 °C 74 % 1005,6 hPa 0,0 mm 6,9 km/h (2 Bft) W 267 ° 0 min 0,000 mm 0,0 UV-I 12 W/m² 0,6 °C 3,2 °C 14,5 km/h (3 Bft)
09.12.2019 08:25 4,7 °C 74 % 1005,6 hPa 0,0 mm 7,4 km/h (2 Bft) S-SW 202 ° 0 min 0,000 mm 0,0 UV-I 12 W/m² 0,5 °C 2,9 °C 11,3 km/h (2 Bft)
09.12.2019 08:26 4,7 °C 74 % 1005,6 hPa 0,0 mm 5,5 km/h (1 Bft) W 267 ° 0 min 0,000 mm 0,0 UV-I 12 W/m² 0,5 °C 3,6 °C 11,3 km/h (2 Bft)
09.12.2019 08:27 4,7 °C 74 % 1005,5 hPa 0,0 mm 7,7 km/h (2 Bft) W-SW 242 ° 0 min 0,000 mm 0,0 UV-I 14 W/m² 0,5 °C 2,9 °C 12,9 km/h (3 Bft)
09.12.2019 08:28 4,7 °C 74 % 1005,5 hPa 0,0 mm 12,6 km/h (3 Bft) W-SW 257 ° 0 min 0,000 mm 0,0 UV-I 16 W/m² 0,5 °C 1,8 °C 19,3 km/h (3 Bft)
09.12.2019 08:29 4,7 °C 74 % 1005,5 hPa 0,0 mm 9,8 km/h (2 Bft) W 268 ° 0 min 0,000 mm 0,0 UV-I 18 W/m² 0,5 °C 2,3 °C 14,5 km/h (3 Bft)
09.12.2019 08:30 4,7 °C 74 % 1005,6 hPa 0,0 mm 7,7 km/h (2 Bft) W-SW 256 ° 0 min 0,000 mm 0,0 UV-I 19 W/m² 0,5 °C 2,9 °C 11,3 km/h (2 Bft)
09.12.2019 08:31 4,7 °C 75 % 1005,5 hPa 0,0 mm 4,3 km/h (1 Bft) W 260 ° 0 min 0,000 mm 0,0 UV-I 18 W/m² 0,7 °C 4,7 °C 9,7 km/h (2 Bft)
09.12.2019 08:32 4,7 °C 74 % 1005,5 hPa 0,0 mm 6,3 km/h (2 Bft) W-SW 246 ° 0 min 0,000 mm 0,0 UV-I 19 W/m² 0,5 °C 3,3 °C 9,7 km/h (2 Bft)
09.12.2019 08:33 4,7 °C 74 % 1005,6 hPa 0,0 mm 4,1 km/h (1 Bft) W-SW 249 ° 0 min 0,000 mm 0,0 UV-I 18 W/m² 0,5 °C 4,7 °C 4,8 km/h (1 Bft)
09.12.2019 08:34 4,7 °C 74 % 1005,5 hPa 0,0 mm 5,0 km/h (1 Bft) S-SW 202 ° 0 min 0,000 mm 0,0 UV-I 18 W/m² 0,5 °C 3,7 °C 8,0 km/h (2 Bft)
09.12.2019 08:35 4,7 °C 75 % 1005,5 hPa 0,0 mm 5,3 km/h (1 Bft) S-SW 208 ° 0 min 0,000 mm 0,0 UV-I 19 W/m² 0,7 °C 3,6 °C 8,0 km/h (2 Bft)
09.12.2019 08:36 4,7 °C 74 % 1005,6 hPa 0,0 mm 3,8 km/h (1 Bft) W-NW 288 ° 0 min 0,000 mm 0,0 UV-I 19 W/m² 0,5 °C 4,7 °C 6,4 km/h (2 Bft)
09.12.2019 08:37 4,7 °C 75 % 1005,5 hPa 0,0 mm 2,7 km/h (1 Bft) SW 215 ° 0 min 0,000 mm 0,0 UV-I 19 W/m² 0,7 °C 4,7 °C 4,8 km/h (1 Bft)
09.12.2019 08:38 4,7 °C 75 % 1005,6 hPa 0,0 mm 4,2 km/h (1 Bft) W-SW 237 ° 0 min 0,000 mm 0,0 UV-I 18 W/m² 0,7 °C 4,7 °C 4,8 km/h (1 Bft)
09.12.2019 08:39 4,7 °C 75 % 1005,5 hPa 0,0 mm 2,7 km/h (1 Bft) SW 226 ° 0 min 0,000 mm 0,0 UV-I 19 W/m² 0,7 °C 4,7 °C 4,8 km/h (1 Bft)
09.12.2019 08:40 4,7 °C 75 % 1005,5 hPa 0,0 mm 2,7 km/h (1 Bft) SW 222 ° 0 min 0,000 mm 0,0 UV-I 21 W/m² 0,7 °C 4,7 °C 4,8 km/h (1 Bft)
09.12.2019 08:41 4,7 °C 74 % 1005,5 hPa 0,0 mm 3,8 km/h (1 Bft) S-SW 208 ° 0 min 0,000 mm 0,0 UV-I 26 W/m² 0,5 °C 4,7 °C 8,0 km/h (2 Bft)
09.12.2019 08:42 4,7 °C 75 % 1005,4 hPa 0,0 mm 2,7 km/h (1 Bft) W-SW 251 ° 0 min 0,000 mm 0,0 UV-I 28 W/m² 0,7 °C 4,7 °C 4,8 km/h (1 Bft)
09.12.2019 08:43 4,7 °C 74 % 1005,4 hPa 0,0 mm 0,6 km/h (0 Bft) W-SW 250 ° 0 min 0,000 mm 0,0 UV-I 30 W/m² 0,5 °C 4,7 °C 3,2 km/h (1 Bft)
09.12.2019 08:44 4,7 °C 75 % 1005,6 hPa 0,0 mm 3,7 km/h (1 Bft) W-SW 248 ° 0 min 0,000 mm 0,0 UV-I 30 W/m² 0,7 °C 4,7 °C 4,8 km/h (1 Bft)
09.12.2019 08:45 4,7 °C 74 % 1005,5 hPa 0,0 mm 4,4 km/h (1 Bft) SW 232 ° 0 min 0,000 mm 0,0 UV-I 32 W/m² 0,5 °C 4,7 °C 6,4 km/h (2 Bft)
09.12.2019 08:46 4,6 °C 74 % 1005,4 hPa 0,0 mm 1,9 km/h (1 Bft) SW 232 ° 0 min 0,000 mm 0,0 UV-I 32 W/m² 0,4 °C 4,6 °C 3,2 km/h (1 Bft)
09.12.2019 08:47 4,6 °C 74 % 1005,5 hPa 0,0 mm 2,4 km/h (1 Bft) SW 236 ° 0 min 0,000 mm 0,0 UV-I 26 W/m² 0,4 °C 4,6 °C 4,8 km/h (1 Bft)
09.12.2019 08:48 4,7 °C 74 % 1005,4 hPa 0,0 mm 2,2 km/h (1 Bft) W-SW 237 ° 0 min 0,000 mm 0,0 UV-I 28 W/m² 0,5 °C 4,7 °C 3,2 km/h (1 Bft)
09.12.2019 08:49 4,6 °C 74 % 1005,5 hPa 0,0 mm 1,5 km/h (1 Bft) W-SW 237 ° 0 min 0,000 mm 0,0 UV-I 30 W/m² 0,4 °C 4,6 °C 1,6 km/h (1 Bft)
09.12.2019 08:50 4,6 °C 74 % 1005,5 hPa 0,0 mm 3,6 km/h (1 Bft) W 269 ° 0 min 0,000 mm 0,0 UV-I 32 W/m² 0,4 °C 4,6 °C 9,7 km/h (2 Bft)
09.12.2019 08:51 4,6 °C 74 % 1005,5 hPa 0,0 mm 3,3 km/h (1 Bft) W-SW 240 ° 0 min 0,000 mm 0,0 UV-I 32 W/m² 0,4 °C 4,6 °C 6,4 km/h (2 Bft)
09.12.2019 08:52 4,6 °C 74 % 1005,5 hPa 0,0 mm 2,1 km/h (1 Bft) W-SW 240 ° 0 min 0,000 mm 0,0 UV-I 33 W/m² 0,4 °C 4,6 °C 4,8 km/h (1 Bft)
09.12.2019 08:53 4,6 °C 74 % 1005,4 hPa 0,0 mm 0,3 km/h (0 Bft) W-SW 240 ° 0 min 0,000 mm 0,0 UV-I 33 W/m² 0,4 °C 4,6 °C 1,6 km/h (1 Bft)
09.12.2019 08:54 4,6 °C 74 % 1005,3 hPa 0,0 mm 1,2 km/h (1 Bft) W-SW 240 ° 0 min 0,000 mm 0,0 UV-I 33 W/m² 0,4 °C 4,6 °C 3,2 km/h (1 Bft)
09.12.2019 08:55 4,6 °C 74 % 1005,4 hPa 0,0 mm 1,0 km/h (0 Bft) SW 215 ° 0 min 0,000 mm 0,0 UV-I 33 W/m² 0,4 °C 4,6 °C 6,4 km/h (2 Bft)
09.12.2019 08:56 4,6 °C 74 % 1005,4 hPa 0,0 mm 4,4 km/h (1 Bft) SW 217 ° 0 min 0,000 mm 0,0 UV-I 33 W/m² 0,4 °C 4,6 °C 6,4 km/h (2 Bft)
09.12.2019 08:57 4,6 °C 74 % 1005,3 hPa 0,0 mm 3,9 km/h (1 Bft) W-SW 242 ° 0 min 0,000 mm 0,0 UV-I 32 W/m² 0,4 °C 4,6 °C 6,4 km/h (2 Bft)
09.12.2019 08:58 4,6 °C 74 % 1005,4 hPa 0,0 mm 6,4 km/h (2 Bft) S-SO 168 ° 0 min 0,000 mm 0,0 UV-I 30 W/m² 0,4 °C 3,1 °C 11,3 km/h (2 Bft)
09.12.2019 08:59 4,6 °C 74 % 1005,3 hPa 0,0 mm 4,4 km/h (1 Bft) S-SW 202 ° 0 min 0,000 mm 0,0 UV-I 32 W/m² 0,4 °C 4,6 °C 6,4 km/h (2 Bft)
09.12.2019 09:00 4,6 °C 74 % 1005,4 hPa 0,0 mm 4,9 km/h (1 Bft) SW 223 ° 0 min 0,000 mm 0,0 UV-I 33 W/m² 0,4 °C 3,7 °C 6,4 km/h (2 Bft)
09.12.2019 09:01 4,6 °C 74 % 1005,3 hPa 0,0 mm 5,4 km/h (1 Bft) S 186 ° 0 min 0,025 mm 0,0 UV-I 35 W/m² 0,4 °C 3,5 °C 9,7 km/h (2 Bft)
09.12.2019 09:02 4,6 °C 74 % 1005,3 hPa 0,0 mm 2,9 km/h (1 Bft) S 189 ° 0 min 0,000 mm 0,0 UV-I 35 W/m² 0,4 °C 4,6 °C 4,8 km/h (1 Bft)
09.12.2019 09:03 4,6 °C 74 % 1005,4 hPa 0,0 mm 4,7 km/h (1 Bft) W-SW 254 ° 0 min 0,000 mm 0,0 UV-I 37 W/m² 0,4 °C 3,8 °C 6,4 km/h (2 Bft)
09.12.2019 09:04 4,7 °C 74 % 1005,4 hPa 0,0 mm 1,6 km/h (1 Bft) W-SW 254 ° 0 min 0,000 mm 0,0 UV-I 39 W/m² 0,5 °C 4,7 °C 3,2 km/h (1 Bft)
09.12.2019 09:05 4,7 °C 74 % 1005,4 hPa 0,0 mm 6,2 km/h (2 Bft) S-SW 202 ° 0 min 0,000 mm 0,0 UV-I 40 W/m² 0,5 °C 3,3 °C 14,5 km/h (3 Bft)
09.12.2019 09:06 4,7 °C 74 % 1005,4 hPa 0,0 mm 3,8 km/h (1 Bft) SW 216 ° 0 min 0,000 mm 0,0 UV-I 40 W/m² 0,5 °C 4,7 °C 4,8 km/h (1 Bft)
09.12.2019 09:07 4,7 °C 74 % 1005,4 hPa 0,0 mm 4,1 km/h (1 Bft) SW 232 ° 0 min 0,000 mm 0,0 UV-I 40 W/m² 0,5 °C 4,7 °C 4,8 km/h (1 Bft)
09.12.2019 09:08 4,7 °C 73 % 1005,4 hPa 0,0 mm 4,4 km/h (1 Bft) S-SW 211 ° 0 min 0,000 mm 0,0 UV-I 42 W/m² 0,3 °C 4,7 °C 6,4 km/h (2 Bft)
09.12.2019 09:09 4,8 °C 73 % 1005,4 hPa 0,0 mm 2,9 km/h (1 Bft) SW 215 ° 0 min 0,000 mm 0,0 UV-I 40 W/m² 0,4 °C 4,8 °C 4,8 km/h (1 Bft)
09.12.2019 09:10 4,8 °C 73 % 1005,5 hPa 0,0 mm 8,5 km/h (2 Bft) NW 307 ° 0 min 0,000 mm 0,0 UV-I 37 W/m² 0,4 °C 2,8 °C 16,1 km/h (3 Bft)
09.12.2019 09:11 4,8 °C 73 % 1005,3 hPa 0,0 mm 6,6 km/h (2 Bft) S-SW 213 ° 0 min 0,000 mm 0,0 UV-I 37 W/m² 0,4 °C 3,3 °C 8,0 km/h (2 Bft)
09.12.2019 09:12 4,8 °C 73 % 1005,5 hPa 0,0 mm 7,5 km/h (2 Bft) W 265 ° 0 min 0,000 mm 0,0 UV-I 44 W/m² 0,4 °C 3,0 °C 11,3 km/h (2 Bft)
09.12.2019 09:13 4,9 °C 73 % 1005,4 hPa 0,0 mm 8,0 km/h (2 Bft) W 269 ° 0 min 0,000 mm 0,0 UV-I 44 W/m² 0,5 °C 3,0 °C 11,3 km/h (2 Bft)
09.12.2019 09:14 4,9 °C 73 % 1005,4 hPa 0,0 mm 6,8 km/h (2 Bft) W-SW 246 ° 0 min 0,000 mm 0,0 UV-I 42 W/m² 0,5 °C 3,4 °C 11,3 km/h (2 Bft)
09.12.2019 09:15 4,9 °C 73 % 1005,4 hPa 0,0 mm 4,0 km/h (1 Bft) W-SW 257 ° 0 min 0,000 mm 0,0 UV-I 40 W/m² 0,5 °C 4,9 °C 6,4 km/h (2 Bft)
09.12.2019 09:16 4,9 °C 73 % 1005,4 hPa 0,0 mm 4,5 km/h (1 Bft) W 261 ° 0 min 0,000 mm 0,0 UV-I 42 W/m² 0,5 °C 4,9 °C 11,3 km/h (2 Bft)
09.12.2019 09:17 4,9 °C 73 % 1005,4 hPa 0,0 mm 4,6 km/h (1 Bft) W-NW 284 ° 0 min 0,000 mm 0,0 UV-I 37 W/m² 0,5 °C 4,1 °C 6,4 km/h (2 Bft)
09.12.2019 09:18 5,0 °C 73 % 1005,3 hPa 0,0 mm 6,3 km/h (2 Bft) W-SW 250 ° 0 min 0,000 mm 0,0 UV-I 33 W/m² 0,6 °C 3,6 °C 11,3 km/h (2 Bft)
09.12.2019 09:19 5,0 °C 73 % 1005,4 hPa 0,0 mm 9,8 km/h (2 Bft) S 184 ° 0 min 0,000 mm 0,0 UV-I 33 W/m² 0,6 °C 2,7 °C 16,1 km/h (3 Bft)
09.12.2019 09:20 5,0 °C 72 % 1005,3 hPa 0,0 mm 3,4 km/h (1 Bft) SW 225 ° 0 min 0,000 mm 0,0 UV-I 30 W/m² 0,4 °C 5,0 °C 4,8 km/h (1 Bft)
09.12.2019 09:21 5,1 °C 73 % 1005,4 hPa 0,0 mm 3,8 km/h (1 Bft) S-SO 163 ° 0 min 0,000 mm 0,0 UV-I 26 W/m² 0,7 °C 5,1 °C 6,4 km/h (2 Bft)
09.12.2019 09:22 5,1 °C 73 % 1005,3 hPa 0,0 mm 3,9 km/h (1 Bft) S 182 ° 0 min 0,000 mm 0,0 UV-I 26 W/m² 0,7 °C 5,1 °C 8,0 km/h (2 Bft)
09.12.2019 09:23 5,1 °C 72 % 1005,4 hPa 0,0 mm 7,6 km/h (2 Bft) SW 222 ° 0 min 0,000 mm 0,0 UV-I 23 W/m² 0,5 °C 3,4 °C 11,3 km/h (2 Bft)
09.12.2019 09:24 5,1 °C 72 % 1005,4 hPa 0,0 mm 5,6 km/h (1 Bft) W-SW 248 ° 0 min 0,000 mm 0,0 UV-I 19 W/m² 0,5 °C 4,0 °C 11,3 km/h (2 Bft)
09.12.2019 09:25 5,1 °C 72 % 1005,5 hPa 0,0 mm 3,6 km/h (1 Bft) W-SW 247 ° 0 min 0,000 mm 0,0 UV-I 16 W/m² 0,5 °C 5,1 °C 6,4 km/h (2 Bft)
09.12.2019 09:26 5,2 °C 72 % 1005,5 hPa 0,0 mm 2,5 km/h (1 Bft) S-SW 204 ° 0 min 0,000 mm 0,0 UV-I 16 W/m² 0,6 °C 5,2 °C 4,8 km/h (1 Bft)
09.12.2019 09:27 5,1 °C 72 % 1005,4 hPa 0,0 mm 3,2 km/h (1 Bft) W-SW 251 ° 0 min 0,000 mm 0,0 UV-I 16 W/m² 0,5 °C 5,1 °C 6,4 km/h (2 Bft)
09.12.2019 09:28 5,2 °C 72 % 1005,4 hPa 0,0 mm 4,3 km/h (1 Bft) W-SW 240 ° 0 min 0,000 mm 0,0 UV-I 16 W/m² 0,6 °C 5,2 °C 6,4 km/h (2 Bft)
09.12.2019 09:29 5,2 °C 72 % 1005,5 hPa 0,0 mm 2,5 km/h (1 Bft) W-SW 237 ° 0 min 0,000 mm 0,0 UV-I 16 W/m² 0,6 °C 5,2 °C 4,8 km/h (1 Bft)
09.12.2019 09:30 5,2 °C 72 % 1005,4 hPa 0,0 mm 3,6 km/h (1 Bft) S-SW 202 ° 0 min 0,000 mm 0,0 UV-I 16 W/m² 0,6 °C 5,2 °C 6,4 km/h (2 Bft)
09.12.2019 09:31 5,2 °C 72 % 1005,4 hPa 0,0 mm 5,8 km/h (2 Bft) S-SW 209 ° 0 min 0,000 mm 0,0 UV-I 16 W/m² 0,6 °C 4,0 °C 8,0 km/h (2 Bft)
09.12.2019 09:32 5,2 °C 71 % 1005,5 hPa 0,0 mm 4,0 km/h (1 Bft) S-SW 194 ° 0 min 0,000 mm 0,0 UV-I 18 W/m² 0,4 °C 5,2 °C 9,7 km/h (2 Bft)
09.12.2019 09:33 5,2 °C 72 % 1005,5 hPa 0,0 mm 1,2 km/h (1 Bft) S-SW 194 ° 0 min 0,000 mm 0,0 UV-I 18 W/m² 0,6 °C 5,2 °C 3,2 km/h (1 Bft)
09.12.2019 09:34 5,2 °C 72 % 1005,5 hPa 0,0 mm 3,3 km/h (1 Bft) W 270 ° 0 min 0,000 mm 0,0 UV-I 18 W/m² 0,6 °C 5,2 °C 6,4 km/h (2 Bft)
09.12.2019 09:35 5,2 °C 72 % 1005,6 hPa 0,0 mm 3,8 km/h (1 Bft) SW 216 ° 0 min 0,000 mm 0,0 UV-I 18 W/m² 0,6 °C 5,2 °C 4,8 km/h (1 Bft)
09.12.2019 09:36 5,2 °C 72 % 1005,6 hPa 0,0 mm 2,9 km/h (1 Bft) W-SW 255 ° 0 min 0,000 mm 0,0 UV-I 18 W/m² 0,6 °C 5,2 °C 9,7 km/h (2 Bft)
09.12.2019 09:37 5,2 °C 72 % 1005,5 hPa 0,0 mm 6,8 km/h (2 Bft) SW 222 ° 0 min 0,000 mm 0,0 UV-I 18 W/m² 0,6 °C 3,7 °C 11,3 km/h (2 Bft)
09.12.2019 09:38 5,2 °C 72 % 1005,5 hPa 0,0 mm 5,4 km/h (1 Bft) SW 229 ° 0 min 0,000 mm 0,0 UV-I 18 W/m² 0,6 °C 4,2 °C 8,0 km/h (2 Bft)
09.12.2019 09:39 5,2 °C 72 % 1005,5 hPa 0,0 mm 5,8 km/h (2 Bft) W-NW 298 ° 0 min 0,000 mm 0,0 UV-I 19 W/m² 0,6 °C 4,0 °C 9,7 km/h (2 Bft)
09.12.2019 09:40 5,2 °C 72 % 1005,5 hPa 0,0 mm 5,6 km/h (1 Bft) W-NW 286 ° 0 min 0,000 mm 0,0 UV-I 19 W/m² 0,6 °C 4,1 °C 9,7 km/h (2 Bft)
09.12.2019 09:41 5,2 °C 72 % 1005,5 hPa 0,0 mm 5,1 km/h (1 Bft) S 191 ° 0 min 0,000 mm 0,0 UV-I 19 W/m² 0,6 °C 4,3 °C 9,7 km/h (2 Bft)
09.12.2019 09:42 5,1 °C 72 % 1005,5 hPa 0,0 mm 4,6 km/h (1 Bft) W-NW 283 ° 0 min 0,000 mm 0,0 UV-I 21 W/m² 0,5 °C 4,4 °C 9,7 km/h (2 Bft)
09.12.2019 09:43 5,1 °C 72 % 1005,5 hPa 0,0 mm 7,5 km/h (2 Bft) SW 222 ° 0 min 0,000 mm 0,0 UV-I 21 W/m² 0,5 °C 3,4 °C 12,9 km/h (3 Bft)
09.12.2019 09:44 5,1 °C 72 % 1005,4 hPa 0,0 mm 5,5 km/h (1 Bft) SW 235 ° 0 min 0,000 mm 0,0 UV-I 21 W/m² 0,5 °C 4,0 °C 11,3 km/h (2 Bft)
09.12.2019 09:45 5,1 °C 72 % 1005,4 hPa 0,0 mm 8,5 km/h (2 Bft) W-SW 257 ° 0 min 0,000 mm 0,0 UV-I 21 W/m² 0,5 °C 3,1 °C 12,9 km/h (3 Bft)
09.12.2019 09:46 5,1 °C 72 % 1005,4 hPa 0,0 mm 7,5 km/h (2 Bft) W-SW 241 ° 0 min 0,000 mm 0,0 UV-I 21 W/m² 0,5 °C 3,4 °C 11,3 km/h (2 Bft)
09.12.2019 09:47 5,1 °C 72 % 1005,3 hPa 0,0 mm 4,8 km/h (1 Bft) S-SO 158 ° 0 min 0,000 mm 0,0 UV-I 23 W/m² 0,5 °C 4,3 °C 9,7 km/h (2 Bft)
09.12.2019 09:48 5,1 °C 72 % 1005,3 hPa 0,0 mm 7,2 km/h (2 Bft) W-SW 245 ° 0 min 0,000 mm 0,0 UV-I 23 W/m² 0,5 °C 3,5 °C 17,7 km/h (3 Bft)
09.12.2019 09:49 5,1 °C 72 % 1005,3 hPa 0,0 mm 7,1 km/h (2 Bft) W 266 ° 0 min 0,000 mm 0,0 UV-I 23 W/m² 0,5 °C 3,5 °C 11,3 km/h (2 Bft)
09.12.2019 09:50 5,1 °C 72 % 1005,3 hPa 0,0 mm 5,7 km/h (1 Bft) S-SW 213 ° 0 min 0,000 mm 0,0 UV-I 23 W/m² 0,5 °C 3,9 °C 16,1 km/h (3 Bft)
09.12.2019 09:51 5,1 °C 72 % 1005,2 hPa 0,0 mm 6,0 km/h (2 Bft) W 264 ° 0 min 0,000 mm 0,0 UV-I 23 W/m² 0,5 °C 3,8 °C 11,3 km/h (2 Bft)
09.12.2019 09:52 5,1 °C 72 % 1005,1 hPa 0,0 mm 5,1 km/h (1 Bft) S-SW 199 ° 0 min 0,000 mm 0,0 UV-I 23 W/m² 0,5 °C 4,2 °C 8,0 km/h (2 Bft)
09.12.2019 09:53 5,1 °C 72 % 1005,1 hPa 0,0 mm 6,0 km/h (2 Bft) SW 218 ° 0 min 0,000 mm 0,0 UV-I 23 W/m² 0,5 °C 3,8 °C 9,7 km/h (2 Bft)
09.12.2019 09:54 5,1 °C 71 % 1005,1 hPa 0,0 mm 7,8 km/h (2 Bft) W 259 ° 0 min 0,000 mm 0,0 UV-I 23 W/m² 0,3 °C 3,3 °C 12,9 km/h (3 Bft)
09.12.2019 09:55 5,1 °C 72 % 1005,1 hPa 0,0 mm 13,8 km/h (3 Bft) S 171 ° 0 min 0,000 mm 0,0 UV-I 23 W/m² 0,5 °C 2,1 °C 19,3 km/h (3 Bft)
09.12.2019 09:56 5,1 °C 71 % 1005,2 hPa 0,0 mm 5,4 km/h (1 Bft) W 268 ° 0 min 0,000 mm 0,0 UV-I 25 W/m² 0,3 °C 4,0 °C 9,7 km/h (2 Bft)
09.12.2019 09:57 5,1 °C 71 % 1005,1 hPa 0,0 mm 5,7 km/h (1 Bft) S-SW 206 ° 0 min 0,000 mm 0,0 UV-I 25 W/m² 0,3 °C 3,9 °C 14,5 km/h (3 Bft)
09.12.2019 09:58 5,2 °C 71 % 1005,2 hPa 0,0 mm 5,0 km/h (1 Bft) S 181 ° 0 min 0,000 mm 0,0 UV-I 25 W/m² 0,4 °C 4,3 °C 6,4 km/h (2 Bft)
09.12.2019 09:59 5,2 °C 71 % 1005,3 hPa 0,0 mm 8,6 km/h (2 Bft) S-SW 193 ° 0 min 0,000 mm 0,0 UV-I 25 W/m² 0,4 °C 3,2 °C 14,5 km/h (3 Bft)
09.12.2019 10:00 5,2 °C 71 % 1005,2 hPa 0,0 mm 13,9 km/h (3 Bft) SW 229 ° 0 min 0,025 mm 0,0 UV-I 26 W/m² 0,4 °C 2,2 °C 20,9 km/h (4 Bft)
09.12.2019 10:01 5,2 °C 71 % 1005,1 hPa 0,0 mm 6,4 km/h (2 Bft) W-SW 255 ° 0 min 0,000 mm 0,0 UV-I 26 W/m² 0,4 °C 3,8 °C 11,3 km/h (2 Bft)
09.12.2019 10:02 5,3 °C 71 % 1005,2 hPa 0,0 mm 6,7 km/h (2 Bft) W-SW 244 ° 0 min 0,000 mm 0,0 UV-I 26 W/m² 0,5 °C 3,8 °C 12,9 km/h (3 Bft)
09.12.2019 10:03 5,3 °C 71 % 1005,2 hPa 0,0 mm 10,0 km/h (2 Bft) S 184 ° 0 min 0,000 mm 0,0 UV-I 28 W/m² 0,5 °C 3,0 °C 20,9 km/h (4 Bft)
09.12.2019 10:04 5,3 °C 70 % 1005,2 hPa 0,0 mm 23,1 km/h (4 Bft) W-SW 246 ° 0 min 0,000 mm 0,0 UV-I 30 W/m² 0,3 °C 1,1 °C 32,2 km/h (5 Bft)
09.12.2019 10:05 5,3 °C 70 % 1005,2 hPa 0,0 mm 15,5 km/h (3 Bft) SW 236 ° 0 min 0,000 mm 0,0 UV-I 30 W/m² 0,3 °C 2,0 °C 27,4 km/h (4 Bft)
09.12.2019 10:06 5,3 °C 70 % 1005,1 hPa 0,0 mm 13,2 km/h (3 Bft) SW 234 ° 0 min 0,000 mm 0,0 UV-I 32 W/m² 0,3 °C 2,4 °C 17,7 km/h (3 Bft)
09.12.2019 10:07 5,4 °C 69 % 1005,0 hPa 0,0 mm 17,4 km/h (3 Bft) W 277 ° 0 min 0,000 mm 0,0 UV-I 33 W/m² 0,2 °C 1,9 °C 22,5 km/h (4 Bft)
09.12.2019 10:08 5,4 °C 70 % 1005,1 hPa 0,0 mm 14,4 km/h (3 Bft) SW 232 ° 0 min 0,000 mm 0,0 UV-I 35 W/m² 0,4 °C 2,3 °C 20,9 km/h (4 Bft)
09.12.2019 10:09 5,4 °C 69 % 1005,1 hPa 0,0 mm 11,5 km/h (2 Bft) SW 236 ° 0 min 0,000 mm 0,0 UV-I 39 W/m² 0,2 °C 2,8 °C 16,1 km/h (3 Bft)
09.12.2019 10:10 5,5 °C 69 % 1005,1 hPa 0,0 mm 9,8 km/h (2 Bft) W-SW 252 ° 0 min 0,000 mm 0,0 UV-I 40 W/m² 0,3 °C 3,3 °C 16,1 km/h (3 Bft)
09.12.2019 10:11 5,5 °C 69 % 1005,1 hPa 0,0 mm 12,6 km/h (3 Bft) W 268 ° 0 min 0,000 mm 0,0 UV-I 42 W/m² 0,3 °C 2,8 °C 14,5 km/h (3 Bft)
09.12.2019 10:12 5,6 °C 69 % 1005,0 hPa 0,0 mm 9,7 km/h (2 Bft) W-SW 237 ° 0 min 0,000 mm 0,0 UV-I 44 W/m² 0,4 °C 3,4 °C 19,3 km/h (3 Bft)
09.12.2019 10:13 5,6 °C 69 % 1005,1 hPa 0,0 mm 9,1 km/h (2 Bft) W 273 ° 0 min 0,000 mm 0,0 UV-I 46 W/m² 0,4 °C 3,6 °C 12,9 km/h (3 Bft)
09.12.2019 10:14 5,6 °C 68 % 1005,1 hPa 0,0 mm 14,7 km/h (3 Bft) W 263 ° 0 min 0,000 mm 0,0 UV-I 47 W/m² 0,2 °C 2,5 °C 19,3 km/h (3 Bft)
09.12.2019 10:15 5,6 °C 69 % 1005,1 hPa 0,0 mm 12,0 km/h (2 Bft) W 262 ° 0 min 0,000 mm 0,0 UV-I 49 W/m² 0,4 °C 3,0 °C 17,7 km/h (3 Bft)
09.12.2019 10:16 5,7 °C 69 % 1005,0 hPa 0,0 mm 5,6 km/h (1 Bft) W-SW 246 ° 0 min 0,000 mm 0,0 UV-I 51 W/m² 0,5 °C 4,7 °C 11,3 km/h (2 Bft)
09.12.2019 10:17 5,7 °C 69 % 1005,1 hPa 0,0 mm 10,0 km/h (2 Bft) W-SW 241 ° 0 min 0,000 mm 0,0 UV-I 53 W/m² 0,5 °C 3,5 °C 16,1 km/h (3 Bft)
09.12.2019 10:18 5,7 °C 68 % 1005,1 hPa 0,0 mm 17,3 km/h (3 Bft) W-SW 246 ° 0 min 0,000 mm 0,0 UV-I 54 W/m² 0,3 °C 2,3 °C 24,1 km/h (4 Bft)
09.12.2019 10:19 5,7 °C 68 % 1005,0 hPa 0,0 mm 12,3 km/h (3 Bft) S-SW 204 ° 0 min 0,000 mm 0,7 UV-I 56 W/m² 0,3 °C 3,1 °C 20,9 km/h (4 Bft)
09.12.2019 10:20 5,8 °C 67 % 1005,0 hPa 0,0 mm 10,6 km/h (2 Bft) SW 219 ° 0 min 0,000 mm 0,7 UV-I 58 W/m² 0,2 °C 3,5 °C 16,1 km/h (3 Bft)
09.12.2019 10:21 5,8 °C 67 % 1004,9 hPa 0,0 mm 8,0 km/h (2 Bft) S-SW 209 ° 0 min 0,000 mm 0,7 UV-I 62 W/m² 0,2 °C 4,1 °C 14,5 km/h (3 Bft)
09.12.2019 10:22 5,8 °C 67 % 1004,9 hPa 0,0 mm 6,0 km/h (2 Bft) W-SW 242 ° 0 min 0,000 mm 0,7 UV-I 65 W/m² 0,2 °C 4,6 °C 9,7 km/h (2 Bft)
09.12.2019 10:23 5,8 °C 67 % 1004,9 hPa 0,0 mm 9,9 km/h (2 Bft) W-SW 251 ° 0 min 0,000 mm 0,7 UV-I 69 W/m² 0,2 °C 3,6 °C 17,7 km/h (3 Bft)
09.12.2019 10:24 5,8 °C 67 % 1004,9 hPa 0,0 mm 5,9 km/h (2 Bft) S-SW 202 ° 0 min 0,000 mm 0,7 UV-I 72 W/m² 0,2 °C 4,7 °C 8,0 km/h (2 Bft)
09.12.2019 10:25 5,9 °C 67 % 1004,9 hPa 0,0 mm 8,6 km/h (2 Bft) W 278 ° 0 min 0,000 mm 0,7 UV-I 76 W/m² 0,3 °C 4,0 °C 12,9 km/h (3 Bft)
09.12.2019 10:26 5,9 °C 67 % 1004,9 hPa 0,0 mm 10,2 km/h (2 Bft) SW 216 ° 0 min 0,000 mm 0,7 UV-I 77 W/m² 0,3 °C 3,7 °C 12,9 km/h (3 Bft)
09.12.2019 10:27 5,9 °C 66 % 1005,0 hPa 0,0 mm 13,6 km/h (3 Bft) W-SW 257 ° 0 min 0,000 mm 0,8 UV-I 83 W/m² 0,0 °C 3,1 °C 20,9 km/h (4 Bft)
09.12.2019 10:28 5,9 °C 67 % 1005,0 hPa 0,0 mm 15,4 km/h (3 Bft) W-SW 254 ° 0 min 0,000 mm 0,8 UV-I 84 W/m² 0,3 °C 2,8 °C 22,5 km/h (4 Bft)
09.12.2019 10:29 6,0 °C 67 % 1005,0 hPa 0,0 mm 10,3 km/h (2 Bft) W-SW 253 ° 0 min 0,000 mm 0,8 UV-I 86 W/m² 0,3 °C 3,8 °C 14,5 km/h (3 Bft)
09.12.2019 10:30 6,0 °C 67 % 1005,0 hPa 0,0 mm 6,2 km/h (2 Bft) S 188 ° 0 min 0,000 mm 0,8 UV-I 88 W/m² 0,3 °C 4,8 °C 12,9 km/h (3 Bft)
09.12.2019 10:31 6,0 °C 67 % 1004,9 hPa 0,0 mm 7,9 km/h (2 Bft) W-SW 252 ° 0 min 0,000 mm 0,8 UV-I 90 W/m² 0,3 °C 4,3 °C 12,9 km/h (3 Bft)
09.12.2019 10:32 6,1 °C 67 % 1004,9 hPa 0,0 mm 9,9 km/h (2 Bft) S-SW 212 ° 0 min 0,000 mm 0,8 UV-I 90 W/m² 0,4 °C 4,0 °C 12,9 km/h (3 Bft)
09.12.2019 10:33 6,1 °C 67 % 1005,0 hPa 0,0 mm 7,7 km/h (2 Bft) W-SW 238 ° 0 min 0,000 mm 0,8 UV-I 88 W/m² 0,4 °C 4,5 °C 12,9 km/h (3 Bft)
09.12.2019 10:34 6,1 °C 67 % 1004,9 hPa 0,0 mm 5,3 km/h (1 Bft) W 261 ° 0 min 0,000 mm 0,8 UV-I 88 W/m² 0,4 °C 5,2 °C 6,4 km/h (2 Bft)
09.12.2019 10:35 6,2 °C 66 % 1004,9 hPa 0,0 mm 4,8 km/h (1 Bft) W 269 ° 0 min 0,000 mm 0,8 UV-I 88 W/m² 0,3 °C 5,5 °C 9,7 km/h (2 Bft)
09.12.2019 10:36 6,2 °C 67 % 1004,9 hPa 0,0 mm 6,8 km/h (2 Bft) W 267 ° 0 min 0,000 mm 0,8 UV-I 88 W/m² 0,5 °C 4,9 °C 11,3 km/h (2 Bft)
09.12.2019 10:37 6,2 °C 67 % 1004,9 hPa 0,0 mm 3,6 km/h (1 Bft) W 259 ° 0 min 0,000 mm 0,8 UV-I 90 W/m² 0,5 °C 6,2 °C 4,8 km/h (1 Bft)
09.12.2019 10:38 6,2 °C 66 % 1004,9 hPa 0,0 mm 6,2 km/h (2 Bft) W-NW 296 ° 0 min 0,000 mm 0,8 UV-I 90 W/m² 0,3 °C 5,0 °C 11,3 km/h (2 Bft)
09.12.2019 10:39 6,2 °C 65 % 1004,9 hPa 0,0 mm 10,4 km/h (2 Bft) W-SW 248 ° 0 min 0,000 mm 0,8 UV-I 90 W/m² 0,1 °C 4,0 °C 17,7 km/h (3 Bft)
09.12.2019 10:40 6,2 °C 65 % 1004,9 hPa 0,0 mm 12,5 km/h (3 Bft) W-SW 257 ° 0 min 0,000 mm 0,8 UV-I 90 W/m² 0,1 °C 3,6 °C 17,7 km/h (3 Bft)
09.12.2019 10:41 6,2 °C 66 % 1004,9 hPa 0,0 mm 9,0 km/h (2 Bft) SW 215 ° 0 min 0,000 mm 0,8 UV-I 88 W/m² 0,3 °C 4,3 °C 14,5 km/h (3 Bft)
09.12.2019 10:42 6,3 °C 65 % 1004,9 hPa 0,0 mm 5,4 km/h (1 Bft) SW 221 ° 0 min 0,000 mm 0,8 UV-I 86 W/m² 0,2 °C 5,4 °C 9,7 km/h (2 Bft)
09.12.2019 10:43 6,3 °C 65 % 1004,8 hPa 0,0 mm 7,4 km/h (2 Bft) W 264 ° 0 min 0,000 mm 0,8 UV-I 86 W/m² 0,2 °C 4,8 °C 9,7 km/h (2 Bft)
09.12.2019 10:44 6,3 °C 65 % 1004,8 hPa 0,0 mm 8,2 km/h (2 Bft) W-SW 246 ° 0 min 0,000 mm 0,8 UV-I 83 W/m² 0,2 °C 4,6 °C 12,9 km/h (3 Bft)
09.12.2019 10:45 6,3 °C 66 % 1004,8 hPa 0,0 mm 9,1 km/h (2 Bft) SW 236 ° 0 min 0,000 mm 0,8 UV-I 81 W/m² 0,4 °C 4,4 °C 12,9 km/h (3 Bft)
09.12.2019 10:46 6,3 °C 66 % 1004,8 hPa 0,0 mm 4,2 km/h (1 Bft) W-SW 240 ° 0 min 0,000 mm 0,8 UV-I 81 W/m² 0,4 °C 6,3 °C 6,4 km/h (2 Bft)
09.12.2019 10:47 6,3 °C 66 % 1004,8 hPa 0,0 mm 6,8 km/h (2 Bft) W-SW 258 ° 0 min 0,000 mm 0,8 UV-I 81 W/m² 0,4 °C 5,0 °C 11,3 km/h (2 Bft)
09.12.2019 10:48 6,2 °C 66 % 1004,8 hPa 0,0 mm 3,9 km/h (1 Bft) W-SW 244 ° 0 min 0,000 mm 0,8 UV-I 81 W/m² 0,3 °C 6,2 °C 11,3 km/h (2 Bft)
09.12.2019 10:49 6,2 °C 66 % 1004,7 hPa 0,0 mm 12,6 km/h (3 Bft) W 266 ° 0 min 0,000 mm 0,8 UV-I 79 W/m² 0,3 °C 3,6 °C 19,3 km/h (3 Bft)
09.12.2019 10:50 6,2 °C 66 % 1004,7 hPa 0,0 mm 6,5 km/h (2 Bft) SW 236 ° 0 min 0,000 mm 0,8 UV-I 77 W/m² 0,3 °C 4,9 °C 11,3 km/h (2 Bft)
09.12.2019 10:51 6,2 °C 66 % 1004,7 hPa 0,0 mm 5,6 km/h (1 Bft) W-SW 254 ° 0 min 0,000 mm 0,8 UV-I 77 W/m² 0,3 °C 5,2 °C 11,3 km/h (2 Bft)
09.12.2019 10:52 6,2 °C 66 % 1004,7 hPa 0,0 mm 8,3 km/h (2 Bft) W-SW 240 ° 0 min 0,000 mm 0,8 UV-I 76 W/m² 0,3 °C 4,5 °C 12,9 km/h (3 Bft)
09.12.2019 10:53 6,1 °C 66 % 1004,6 hPa 0,0 mm 5,6 km/h (1 Bft) W 275 ° 0 min 0,000 mm 0,8 UV-I 74 W/m² 0,2 °C 5,1 °C 9,7 km/h (2 Bft)
09.12.2019 10:54 6,2 °C 66 % 1004,6 hPa 0,0 mm 13,1 km/h (3 Bft) W-SW 257 ° 0 min 0,000 mm 0,8 UV-I 72 W/m² 0,3 °C 3,5 °C 20,9 km/h (4 Bft)
09.12.2019 10:55 6,2 °C 65 % 1004,6 hPa 0,0 mm 12,5 km/h (3 Bft) NW 325 ° 0 min 0,000 mm 0,8 UV-I 72 W/m² 0,1 °C 3,6 °C 20,9 km/h (4 Bft)
09.12.2019 10:56 6,2 °C 64 % 1004,5 hPa 0,0 mm 8,4 km/h (2 Bft) SW 235 ° 0 min 0,000 mm 0,8 UV-I 70 W/m² -0,1 °C 4,4 °C 16,1 km/h (3 Bft)
09.12.2019 10:57 6,2 °C 65 % 1004,6 hPa 0,0 mm 11,4 km/h (2 Bft) W 259 ° 0 min 0,000 mm 0,8 UV-I 69 W/m² 0,1 °C 3,8 °C 17,7 km/h (3 Bft)
09.12.2019 10:58 6,2 °C 65 % 1004,6 hPa 0,0 mm 13,0 km/h (3 Bft) SW 224 ° 0 min 0,000 mm 0,8 UV-I 67 W/m² 0,1 °C 3,5 °C 17,7 km/h (3 Bft)
09.12.2019 10:59 6,3 °C 65 % 1004,6 hPa 0,0 mm 9,3 km/h (2 Bft) W-SW 252 ° 0 min 0,000 mm 0,8 UV-I 67 W/m² 0,2 °C 4,4 °C 16,1 km/h (3 Bft)
09.12.2019 11:00 6,3 °C 64 % 1004,5 hPa 0,0 mm 13,5 km/h (3 Bft) W 268 ° 0 min 0,000 mm 0,9 UV-I 67 W/m² 0,0 °C 3,6 °C 20,9 km/h (4 Bft)
09.12.2019 11:01 6,4 °C 64 % 1004,5 hPa 0,0 mm 15,0 km/h (3 Bft) W 263 ° 0 min 0,051 mm 0,9 UV-I 69 W/m² 0,1 °C 3,5 °C 25,7 km/h (4 Bft)
09.12.2019 11:02 6,4 °C 64 % 1004,6 hPa 0,0 mm 13,3 km/h (3 Bft) W 264 ° 0 min 0,000 mm 0,9 UV-I 69 W/m² 0,1 °C 3,7 °C 16,1 km/h (3 Bft)
09.12.2019 11:03 6,4 °C 64 % 1004,5 hPa 0,0 mm 8,6 km/h (2 Bft) W 275 ° 0 min 0,000 mm 0,9 UV-I 69 W/m² 0,1 °C 4,6 °C 12,9 km/h (3 Bft)
09.12.2019 11:04 6,4 °C 64 % 1004,5 hPa 0,0 mm 8,0 km/h (2 Bft) W 269 ° 0 min 0,000 mm 0,9 UV-I 67 W/m² 0,1 °C 4,8 °C 12,9 km/h (3 Bft)
09.12.2019 11:05 6,5 °C 64 % 1004,4 hPa 0,0 mm 9,4 km/h (2 Bft) W-SW 252 ° 0 min 0,000 mm 0,9 UV-I 65 W/m² 0,2 °C 4,6 °C 12,9 km/h (3 Bft)
09.12.2019 11:06 6,5 °C 64 % 1004,4 hPa 0,0 mm 6,1 km/h (2 Bft) W 273 ° 0 min 0,000 mm 0,9 UV-I 65 W/m² 0,2 °C 5,4 °C 11,3 km/h (2 Bft)
09.12.2019 11:07 6,5 °C 64 % 1004,3 hPa 0,0 mm 8,4 km/h (2 Bft) W-SW 258 ° 0 min 0,000 mm 0,9 UV-I 67 W/m² 0,2 °C 4,8 °C 12,9 km/h (3 Bft)
09.12.2019 11:08 6,5 °C 64 % 1004,3 hPa 0,0 mm 8,9 km/h (2 Bft) NW 304 ° 0 min 0,000 mm 0,9 UV-I 67 W/m² 0,2 °C 4,7 °C 12,9 km/h (3 Bft)
09.12.2019 11:09 6,6 °C 64 % 1004,3 hPa 0,0 mm 14,1 km/h (3 Bft) W-SW 244 ° 0 min 0,000 mm 0,9 UV-I 69 W/m² 0,3 °C 3,9 °C 22,5 km/h (4 Bft)
09.12.2019 11:10 6,6 °C 63 % 1004,3 hPa 0,0 mm 9,9 km/h (2 Bft) W 260 ° 0 min 0,000 mm 0,9 UV-I 69 W/m² 0,1 °C 4,6 °C 16,1 km/h (3 Bft)
09.12.2019 11:11 6,6 °C 63 % 1004,3 hPa 0,0 mm 12,4 km/h (3 Bft) W 267 ° 0 min 0,000 mm 0,9 UV-I 72 W/m² 0,1 °C 4,1 °C 17,7 km/h (3 Bft)
09.12.2019 11:12 6,6 °C 63 % 1004,3 hPa 0,0 mm 14,3 km/h (3 Bft) W-NW 283 ° 0 min 0,000 mm 0,9 UV-I 74 W/m² 0,1 °C 3,8 °C 16,1 km/h (3 Bft)
09.12.2019 11:13 6,6 °C 64 % 1004,3 hPa 0,0 mm 12,8 km/h (3 Bft) W 264 ° 0 min 0,000 mm 0,9 UV-I 76 W/m² 0,3 °C 4,1 °C 17,7 km/h (3 Bft)
09.12.2019 11:14 6,7 °C 64 % 1004,3 hPa 0,0 mm 16,3 km/h (3 Bft) W-SW 252 ° 0 min 0,000 mm 0,9 UV-I 81 W/m² 0,4 °C 3,7 °C 22,5 km/h (4 Bft)
09.12.2019 11:15 6,6 °C 64 % 1004,2 hPa 0,0 mm 8,9 km/h (2 Bft) W-SW 246 ° 0 min 0,000 mm 0,9 UV-I 83 W/m² 0,3 °C 4,8 °C 12,9 km/h (3 Bft)
09.12.2019 11:16 6,7 °C 63 % 1004,3 hPa 0,0 mm 15,2 km/h (3 Bft) W-NW 300 ° 0 min 0,000 mm 0,9 UV-I 83 W/m² 0,2 °C 3,8 °C 20,9 km/h (4 Bft)
09.12.2019 11:17 6,7 °C 63 % 1004,3 hPa 0,0 mm 11,2 km/h (2 Bft) W 266 ° 0 min 0,000 mm 0,9 UV-I 84 W/m² 0,2 °C 4,5 °C 14,5 km/h (3 Bft)
09.12.2019 11:18 6,7 °C 63 % 1004,3 hPa 0,0 mm 6,9 km/h (2 Bft) W 259 ° 0 min 0,000 mm 0,9 UV-I 83 W/m² 0,2 °C 5,4 °C 11,3 km/h (2 Bft)
09.12.2019 11:19 6,7 °C 63 % 1004,3 hPa 0,0 mm 13,4 km/h (3 Bft) W-SW 250 ° 0 min 0,000 mm 0,9 UV-I 81 W/m² 0,2 °C 4,1 °C 17,7 km/h (3 Bft)
09.12.2019 11:20 6,7 °C 64 % 1004,3 hPa 0,0 mm 9,3 km/h (2 Bft) SW 236 ° 0 min 0,000 mm 0,9 UV-I 79 W/m² 0,4 °C 4,8 °C 16,1 km/h (3 Bft)
09.12.2019 11:21 6,8 °C 64 % 1004,3 hPa 0,0 mm 10,9 km/h (2 Bft) NW 307 ° 0 min 0,000 mm 0,9 UV-I 77 W/m² 0,5 °C 4,6 °C 22,5 km/h (4 Bft)
09.12.2019 11:22 6,8 °C 63 % 1004,2 hPa 0,0 mm 7,4 km/h (2 Bft) SW 232 ° 0 min 0,000 mm 0,9 UV-I 74 W/m² 0,3 °C 5,4 °C 9,7 km/h (2 Bft)
09.12.2019 11:23 6,8 °C 63 % 1004,3 hPa 0,0 mm 11,1 km/h (2 Bft) SW 231 ° 0 min 0,000 mm 0,9 UV-I 72 W/m² 0,3 °C 4,6 °C 14,5 km/h (3 Bft)
09.12.2019 11:24 6,8 °C 63 % 1004,2 hPa 0,0 mm 15,1 km/h (3 Bft) W-NW 303 ° 0 min 0,000 mm 0,9 UV-I 70 W/m² 0,3 °C 4,0 °C 20,9 km/h (4 Bft)
09.12.2019 11:25 6,8 °C 63 % 1004,1 hPa 0,0 mm 12,3 km/h (3 Bft) W 262 ° 0 min 0,000 mm 0,9 UV-I 65 W/m² 0,3 °C 4,4 °C 19,3 km/h (3 Bft)
09.12.2019 11:26 6,8 °C 63 % 1004,2 hPa 0,0 mm 14,0 km/h (3 Bft) W 277 ° 0 min 0,000 mm 0,9 UV-I 63 W/m² 0,3 °C 4,1 °C 22,5 km/h (4 Bft)
09.12.2019 11:27 6,8 °C 63 % 1004,1 hPa 0,0 mm 12,1 km/h (2 Bft) W-SW 238 ° 0 min 0,000 mm 0,9 UV-I 62 W/m² 0,3 °C 4,4 °C 19,3 km/h (3 Bft)
09.12.2019 11:28 6,8 °C 63 % 1004,1 hPa 0,0 mm 12,9 km/h (3 Bft) W-NW 286 ° 0 min 0,000 mm 0,9 UV-I 58 W/m² 0,3 °C 4,3 °C 19,3 km/h (3 Bft)
09.12.2019 11:29 6,8 °C 64 % 1004,1 hPa 0,0 mm 9,8 km/h (2 Bft) W 269 ° 0 min 0,000 mm 0,0 UV-I 54 W/m² 0,5 °C 4,8 °C 16,1 km/h (3 Bft)
09.12.2019 11:30 6,8 °C 64 % 1004,1 hPa 0,0 mm 12,5 km/h (3 Bft) SW 231 ° 0 min 0,000 mm 0,0 UV-I 53 W/m² 0,5 °C 4,4 °C 16,1 km/h (3 Bft)
09.12.2019 11:31 6,8 °C 64 % 1004,2 hPa 0,0 mm 7,4 km/h (2 Bft) W-SW 258 ° 0 min 0,000 mm 0,0 UV-I 47 W/m² 0,5 °C 5,4 °C 12,9 km/h (3 Bft)
09.12.2019 11:32 6,8 °C 64 % 1004,2 hPa 0,0 mm 13,1 km/h (3 Bft) W 259 ° 0 min 0,000 mm 0,0 UV-I 46 W/m² 0,5 °C 4,3 °C 20,9 km/h (4 Bft)
09.12.2019 11:33 6,8 °C 65 % 1004,2 hPa 0,0 mm 14,7 km/h (3 Bft) SW 236 ° 0 min 0,000 mm 0,0 UV-I 44 W/m² 0,7 °C 4,0 °C 19,3 km/h (3 Bft)
09.12.2019 11:34 6,7 °C 64 % 1004,2 hPa 0,0 mm 8,6 km/h (2 Bft) SW 227 ° 0 min 0,000 mm 0,0 UV-I 42 W/m² 0,4 °C 5,0 °C 9,7 km/h (2 Bft)
09.12.2019 11:35 6,8 °C 64 % 1004,2 hPa 0,0 mm 7,2 km/h (2 Bft) W 275 ° 0 min 0,000 mm 0,0 UV-I 42 W/m² 0,5 °C 5,5 °C 12,9 km/h (3 Bft)
09.12.2019 11:36 6,7 °C 64 % 1004,2 hPa 0,0 mm 14,6 km/h (3 Bft) W 264 ° 0 min 0,000 mm 0,0 UV-I 40 W/m² 0,4 °C 3,9 °C 20,9 km/h (4 Bft)
09.12.2019 11:37 6,7 °C 64 % 1004,2 hPa 0,0 mm 16,0 km/h (3 Bft) W-NW 283 ° 0 min 0,000 mm 0,0 UV-I 39 W/m² 0,4 °C 3,7 °C 20,9 km/h (4 Bft)
09.12.2019 11:38 6,8 °C 63 % 1004,0 hPa 0,0 mm 11,1 km/h (2 Bft) S 191 ° 0 min 0,000 mm 0,0 UV-I 39 W/m² 0,3 °C 4,6 °C 19,3 km/h (3 Bft)
09.12.2019 11:39 6,8 °C 64 % 1004,0 hPa 0,0 mm 12,3 km/h (3 Bft) W-SW 256 ° 0 min 0,000 mm 0,0 UV-I 39 W/m² 0,5 °C 4,4 °C 20,9 km/h (4 Bft)
09.12.2019 11:40 6,8 °C 64 % 1004,1 hPa 0,0 mm 16,4 km/h (3 Bft) W-NW 290 ° 0 min 0,000 mm 0,0 UV-I 39 W/m² 0,5 °C 3,8 °C 19,3 km/h (3 Bft)
09.12.2019 11:41 6,8 °C 64 % 1004,2 hPa 0,0 mm 7,0 km/h (2 Bft) W-SW 254 ° 0 min 0,000 mm 0,0 UV-I 39 W/m² 0,5 °C 5,5 °C 11,3 km/h (2 Bft)
09.12.2019 11:42 6,8 °C 64 % 1004,2 hPa 0,0 mm 6,4 km/h (2 Bft) W 264 ° 0 min 0,000 mm 0,0 UV-I 39 W/m² 0,5 °C 5,7 °C 9,7 km/h (2 Bft)
09.12.2019 11:43 6,8 °C 64 % 1004,1 hPa 0,0 mm 4,6 km/h (1 Bft) SW 215 ° 0 min 0,000 mm 0,0 UV-I 37 W/m² 0,5 °C 6,3 °C 8,0 km/h (2 Bft)
09.12.2019 11:44 6,8 °C 64 % 1004,2 hPa 0,0 mm 6,4 km/h (2 Bft) SW 232 ° 0 min 0,000 mm 0,0 UV-I 37 W/m² 0,5 °C 5,7 °C 9,7 km/h (2 Bft)
09.12.2019 11:45 6,8 °C 64 % 1004,1 hPa 0,0 mm 13,2 km/h (3 Bft) NW 306 ° 0 min 0,000 mm 0,0 UV-I 39 W/m² 0,5 °C 4,2 °C 16,1 km/h (3 Bft)
09.12.2019 11:46 6,8 °C 64 % 1004,1 hPa 0,0 mm 12,7 km/h (3 Bft) W-NW 297 ° 0 min 0,000 mm 0,0 UV-I 39 W/m² 0,5 °C 4,3 °C 20,9 km/h (4 Bft)
09.12.2019 11:47 6,8 °C 64 % 1004,1 hPa 0,0 mm 8,2 km/h (2 Bft) SW 236 ° 0 min 0,000 mm 0,0 UV-I 39 W/m² 0,5 °C 5,2 °C 14,5 km/h (3 Bft)
09.12.2019 11:48 6,8 °C 64 % 1004,1 hPa 0,0 mm 10,9 km/h (2 Bft) W 267 ° 0 min 0,000 mm 0,0 UV-I 40 W/m² 0,5 °C 4,6 °C 17,7 km/h (3 Bft)
09.12.2019 11:49 6,8 °C 64 % 1004,1 hPa 0,0 mm 9,9 km/h (2 Bft) W-SW 245 ° 0 min 0,000 mm 0,0 UV-I 47 W/m² 0,5 °C 4,8 °C 12,9 km/h (3 Bft)
09.12.2019 11:50 6,8 °C 64 % 1004,1 hPa 0,0 mm 7,3 km/h (2 Bft) W 269 ° 0 min 0,000 mm 0,0 UV-I 46 W/m² 0,5 °C 5,4 °C 9,7 km/h (2 Bft)
09.12.2019 11:51 6,8 °C 64 % 1004,1 hPa 0,0 mm 9,9 km/h (2 Bft) SW 217 ° 0 min 0,000 mm 0,0 UV-I 51 W/m² 0,5 °C 4,8 °C 16,1 km/h (3 Bft)
09.12.2019 11:52 6,9 °C 63 % 1004,1 hPa 0,0 mm 6,8 km/h (2 Bft) SW 231 ° 0 min 0,000 mm 1,0 UV-I 70 W/m² 0,4 °C 5,7 °C 12,9 km/h (3 Bft)
09.12.2019 11:53 6,9 °C 63 % 1004,1 hPa 0,0 mm 6,8 km/h (2 Bft) W-SW 248 ° 0 min 0,000 mm 1,0 UV-I 84 W/m² 0,4 °C 5,7 °C 11,3 km/h (2 Bft)
09.12.2019 11:54 6,9 °C 63 % 1004,2 hPa 0,0 mm 11,5 km/h (2 Bft) W-NW 296 ° 0 min 0,000 mm 0,0 UV-I 33 W/m² 0,4 °C 4,6 °C 16,1 km/h (3 Bft)
09.12.2019 11:55 6,9 °C 63 % 1004,1 hPa 0,0 mm 9,6 km/h (2 Bft) W 267 ° 0 min 0,000 mm 0,0 UV-I 33 W/m² 0,4 °C 5,0 °C 12,9 km/h (3 Bft)
09.12.2019 11:56 7,0 °C 63 % 1004,1 hPa 0,0 mm 10,8 km/h (2 Bft) W 264 ° 0 min 0,000 mm 0,0 UV-I 35 W/m² 0,4 °C 4,9 °C 12,9 km/h (3 Bft)
09.12.2019 11:57 7,1 °C 62 % 1004,1 hPa 0,0 mm 6,0 km/h (2 Bft) W-SW 257 ° 0 min 0,000 mm 0,0 UV-I 37 W/m² 0,3 °C 6,1 °C 9,7 km/h (2 Bft)
09.12.2019 11:58 7,1 °C 63 % 1004,2 hPa 0,0 mm 2,2 km/h (1 Bft) W-NW 284 ° 0 min 0,000 mm 0,0 UV-I 37 W/m² 0,5 °C 7,1 °C 4,8 km/h (1 Bft)
09.12.2019 11:59 7,1 °C 64 % 1004,1 hPa 0,0 mm 4,8 km/h (1 Bft) W-SW 253 ° 0 min 0,000 mm 0,0 UV-I 35 W/m² 0,8 °C 6,5 °C 8,0 km/h (2 Bft)
09.12.2019 12:00 7,0 °C 63 % 1004,1 hPa 0,0 mm 4,8 km/h (1 Bft) W-SW 244 ° 0 min 0,000 mm 0,0 UV-I 32 W/m² 0,4 °C 6,4 °C 6,4 km/h (2 Bft)
09.12.2019 12:01 7,1 °C 64 % 1004,1 hPa 0,0 mm 6,8 km/h (2 Bft) W-NW 282 ° 0 min 0,051 mm 0,0 UV-I 32 W/m² 0,8 °C 5,9 °C 14,5 km/h (3 Bft)
09.12.2019 12:02 7,0 °C 64 % 1004,1 hPa 0,0 mm 6,1 km/h (2 Bft) NW 317 ° 0 min 0,000 mm 0,0 UV-I 32 W/m² 0,7 °C 6,0 °C 12,9 km/h (3 Bft)
09.12.2019 12:03 7,1 °C 64 % 1004,1 hPa 0,0 mm 4,7 km/h (1 Bft) NW 306 ° 0 min 0,000 mm 0,0 UV-I 32 W/m² 0,8 °C 6,6 °C 9,7 km/h (2 Bft)
09.12.2019 12:04 7,0 °C 64 % 1004,1 hPa 0,0 mm 12,5 km/h (3 Bft) W-NW 302 ° 0 min 0,000 mm 0,0 UV-I 35 W/m² 0,7 °C 4,6 °C 22,5 km/h (4 Bft)
09.12.2019 12:05 7,0 °C 63 % 1004,1 hPa 0,0 mm 13,5 km/h (3 Bft) W 265 ° 0 min 0,000 mm 0,0 UV-I 37 W/m² 0,4 °C 4,4 °C 16,1 km/h (3 Bft)
09.12.2019 12:06 7,0 °C 63 % 1004,0 hPa 0,0 mm 13,0 km/h (3 Bft) W-SW 256 ° 0 min 0,000 mm 0,0 UV-I 39 W/m² 0,4 °C 4,5 °C 17,7 km/h (3 Bft)
09.12.2019 12:07 7,1 °C 63 % 1004,0 hPa 0,0 mm 10,9 km/h (2 Bft) W-SW 252 ° 0 min 0,000 mm 0,0 UV-I 44 W/m² 0,5 °C 5,0 °C 12,9 km/h (3 Bft)
09.12.2019 12:08 7,1 °C 64 % 1004,0 hPa 0,0 mm 5,8 km/h (2 Bft) W 278 ° 0 min 0,000 mm 0,0 UV-I 40 W/m² 0,8 °C 6,2 °C 12,9 km/h (3 Bft)
09.12.2019 12:09 7,1 °C 63 % 1004,1 hPa 0,0 mm 8,6 km/h (2 Bft) W-SW 244 ° 0 min 0,000 mm 0,0 UV-I 30 W/m² 0,5 °C 5,5 °C 12,9 km/h (3 Bft)
09.12.2019 12:10 7,1 °C 64 % 1004,0 hPa 0,0 mm 11,9 km/h (2 Bft) W-NW 289 ° 0 min 0,000 mm 0,0 UV-I 30 W/m² 0,8 °C 4,8 °C 20,9 km/h (4 Bft)
09.12.2019 12:11 7,1 °C 63 % 1004,0 hPa 0,0 mm 9,2 km/h (2 Bft) W 276 ° 0 min 0,000 mm 0,0 UV-I 30 W/m² 0,5 °C 5,3 °C 16,1 km/h (3 Bft)
09.12.2019 12:12 7,1 °C 63 % 1004,0 hPa 0,0 mm 6,8 km/h (2 Bft) W-NW 298 ° 0 min 0,000 mm 0,0 UV-I 30 W/m² 0,5 °C 5,9 °C 11,3 km/h (2 Bft)
09.12.2019 12:13 7,1 °C 63 % 1004,0 hPa 0,0 mm 11,9 km/h (2 Bft) W-SW 252 ° 0 min 0,000 mm 0,0 UV-I 30 W/m² 0,5 °C 4,8 °C 17,7 km/h (3 Bft)
09.12.2019 12:14 7,0 °C 64 % 1004,0 hPa 0,0 mm 8,1 km/h (2 Bft) W-NW 287 ° 0 min 0,000 mm 0,0 UV-I 30 W/m² 0,7 °C 5,5 °C 14,5 km/h (3 Bft)
09.12.2019 12:15 7,0 °C 64 % 1004,0 hPa 0,0 mm 11,5 km/h (2 Bft) W 268 ° 0 min 0,000 mm 0,0 UV-I 32 W/m² 0,7 °C 4,8 °C 19,3 km/h (3 Bft)
09.12.2019 12:16 7,1 °C 64 % 1004,0 hPa 0,0 mm 11,9 km/h (2 Bft) W 270 ° 0 min 0,000 mm 0,0 UV-I 32 W/m² 0,8 °C 4,8 °C 17,7 km/h (3 Bft)
09.12.2019 12:17 7,0 °C 63 % 1004,0 hPa 0,0 mm 13,0 km/h (3 Bft) NW 315 ° 0 min 0,000 mm 0,0 UV-I 30 W/m² 0,4 °C 4,5 °C 20,9 km/h (4 Bft)
09.12.2019 12:18 6,9 °C 63 % 1003,9 hPa 0,0 mm 9,7 km/h (2 Bft) W 277 ° 0 min 0,000 mm 0,0 UV-I 30 W/m² 0,4 °C 5,0 °C 12,9 km/h (3 Bft)
09.12.2019 12:19 6,9 °C 63 % 1003,9 hPa 0,0 mm 12,0 km/h (2 Bft) W-NW 291 ° 0 min 0,000 mm 0,0 UV-I 30 W/m² 0,4 °C 4,6 °C 16,1 km/h (3 Bft)
09.12.2019 12:20 7,0 °C 63 % 1003,8 hPa 0,0 mm 7,8 km/h (2 Bft) W-NW 287 ° 0 min 0,000 mm 0,0 UV-I 32 W/m² 0,4 °C 5,5 °C 11,3 km/h (2 Bft)
09.12.2019 12:21 7,0 °C 64 % 1003,9 hPa 0,0 mm 7,1 km/h (2 Bft) W-NW 298 ° 0 min 0,000 mm 0,0 UV-I 39 W/m² 0,7 °C 5,7 °C 11,3 km/h (2 Bft)
09.12.2019 12:22 7,0 °C 64 % 1003,8 hPa 0,0 mm 7,0 km/h (2 Bft) W-NW 292 ° 0 min 0,000 mm 0,0 UV-I 51 W/m² 0,7 °C 5,7 °C 11,3 km/h (2 Bft)
09.12.2019 12:23 7,1 °C 64 % 1003,8 hPa 0,0 mm 4,6 km/h (1 Bft) W-SW 255 ° 0 min 0,000 mm 0,0 UV-I 49 W/m² 0,8 °C 6,6 °C 11,3 km/h (2 Bft)
09.12.2019 12:24 7,1 °C 64 % 1003,8 hPa 0,0 mm 6,9 km/h (2 Bft) W 269 ° 0 min 0,000 mm 0,0 UV-I 42 W/m² 0,8 °C 5,9 °C 9,7 km/h (2 Bft)
09.12.2019 12:25 7,1 °C 64 % 1003,8 hPa 0,0 mm 6,8 km/h (2 Bft) W 277 ° 0 min 0,000 mm 0,0 UV-I 39 W/m² 0,8 °C 5,9 °C 11,3 km/h (2 Bft)
09.12.2019 12:26 7,1 °C 64 % 1003,7 hPa 0,0 mm 4,8 km/h (1 Bft) W-NW 303 ° 0 min 0,000 mm 0,0 UV-I 39 W/m² 0,8 °C 6,5 °C 12,9 km/h (3 Bft)
09.12.2019 12:27 7,0 °C 65 % 1003,7 hPa 0,0 mm 9,1 km/h (2 Bft) W-NW 299 ° 0 min 0,000 mm 0,0 UV-I 39 W/m² 0,9 °C 5,2 °C 12,9 km/h (3 Bft)
09.12.2019 12:28 7,0 °C 65 % 1003,7 hPa 0,0 mm 10,3 km/h (2 Bft) W-NW 286 ° 0 min 0,000 mm 0,0 UV-I 37 W/m² 0,9 °C 5,0 °C 14,5 km/h (3 Bft)
09.12.2019 12:29 6,9 °C 65 % 1003,7 hPa 0,0 mm 14,1 km/h (3 Bft) W 269 ° 0 min 0,000 mm 0,0 UV-I 30 W/m² 0,8 °C 4,2 °C 17,7 km/h (3 Bft)
09.12.2019 12:30 6,9 °C 64 % 1003,7 hPa 0,0 mm 14,1 km/h (3 Bft) W 273 ° 0 min 0,000 mm 0,0 UV-I 30 W/m² 0,6 °C 4,2 °C 20,9 km/h (4 Bft)
09.12.2019 12:31 7,0 °C 64 % 1003,6 hPa 0,0 mm 15,0 km/h (3 Bft) W-NW 295 ° 0 min 0,000 mm 0,0 UV-I 30 W/m² 0,7 °C 4,2 °C 20,9 km/h (4 Bft)
09.12.2019 12:32 7,1 °C 64 % 1003,6 hPa 0,0 mm 16,4 km/h (3 Bft) W-NW 286 ° 0 min 0,000 mm 0,0 UV-I 30 W/m² 0,8 °C 4,1 °C 20,9 km/h (4 Bft)
09.12.2019 12:33 7,0 °C 64 % 1003,7 hPa 0,0 mm 9,2 km/h (2 Bft) W-NW 297 ° 0 min 0,000 mm 0,0 UV-I 33 W/m² 0,7 °C 5,2 °C 16,1 km/h (3 Bft)
09.12.2019 12:34 7,0 °C 64 % 1003,7 hPa 0,0 mm 14,1 km/h (3 Bft) W-NW 286 ° 0 min 0,000 mm 0,0 UV-I 32 W/m² 0,7 °C 4,3 °C 17,7 km/h (3 Bft)
09.12.2019 12:35 7,0 °C 64 % 1003,7 hPa 0,0 mm 9,7 km/h (2 Bft) W-NW 291 ° 0 min 0,000 mm 0,0 UV-I 32 W/m² 0,7 °C 5,1 °C 12,9 km/h (3 Bft)
09.12.2019 12:36 6,9 °C 65 % 1003,6 hPa 0,0 mm 12,4 km/h (3 Bft) NW 317 ° 0 min 0,000 mm 0,0 UV-I 30 W/m² 0,8 °C 4,5 °C 17,7 km/h (3 Bft)
09.12.2019 12:37 6,9 °C 65 % 1003,5 hPa 0,0 mm 7,3 km/h (2 Bft) W 279 ° 0 min 0,000 mm 0,0 UV-I 30 W/m² 0,8 °C 5,5 °C 11,3 km/h (2 Bft)
09.12.2019 12:38 6,9 °C 65 % 1003,5 hPa 0,0 mm 7,5 km/h (2 Bft) W 277 ° 0 min 0,000 mm 0,0 UV-I 30 W/m² 0,8 °C 5,5 °C 11,3 km/h (2 Bft)
09.12.2019 12:39 6,9 °C 65 % 1003,4 hPa 0,0 mm 5,6 km/h (1 Bft) W-NW 284 ° 0 min 0,000 mm 0,0 UV-I 30 W/m² 0,8 °C 6,0 °C 9,7 km/h (2 Bft)
09.12.2019 12:40 6,9 °C 65 % 1003,4 hPa 0,0 mm 10,8 km/h (2 Bft) W-NW 290 ° 0 min 0,000 mm 0,0 UV-I 30 W/m² 0,8 °C 4,8 °C 16,1 km/h (3 Bft)
09.12.2019 12:41 6,9 °C 64 % 1003,4 hPa 0,0 mm 7,9 km/h (2 Bft) W-NW 301 ° 0 min 0,000 mm 0,0 UV-I 30 W/m² 0,6 °C 5,4 °C 16,1 km/h (3 Bft)
09.12.2019 12:42 6,9 °C 64 % 1003,4 hPa 0,0 mm 5,2 km/h (1 Bft) W 281 ° 0 min 0,000 mm 0,0 UV-I 33 W/m² 0,6 °C 6,2 °C 11,3 km/h (2 Bft)
09.12.2019 12:43 6,9 °C 64 % 1003,5 hPa 0,0 mm 9,7 km/h (2 Bft) W 272 ° 0 min 0,000 mm 0,0 UV-I 33 W/m² 0,6 °C 5,0 °C 17,7 km/h (3 Bft)
09.12.2019 12:44 6,9 °C 64 % 1003,5 hPa 0,0 mm 5,6 km/h (1 Bft) W-NW 292 ° 0 min 0,000 mm 0,0 UV-I 35 W/m² 0,6 °C 6,0 °C 9,7 km/h (2 Bft)
09.12.2019 12:45 7,0 °C 65 % 1003,5 hPa 0,0 mm 9,7 km/h (2 Bft) NW 319 ° 0 min 0,000 mm 0,0 UV-I 33 W/m² 0,9 °C 5,1 °C 16,1 km/h (3 Bft)
09.12.2019 12:46 7,0 °C 65 % 1003,5 hPa 0,0 mm 10,2 km/h (2 Bft) W-NW 288 ° 0 min 0,000 mm 0,0 UV-I 33 W/m² 0,9 °C 5,0 °C 12,9 km/h (3 Bft)
09.12.2019 12:47 6,9 °C 65 % 1003,5 hPa 0,0 mm 10,1 km/h (2 Bft) W 264 ° 0 min 0,000 mm 0,0 UV-I 30 W/m² 0,8 °C 4,9 °C 19,3 km/h (3 Bft)
09.12.2019 12:48 7,0 °C 65 % 1003,4 hPa 0,0 mm 10,1 km/h (2 Bft) W-NW 286 ° 0 min 0,000 mm 0,0 UV-I 30 W/m² 0,9 °C 5,0 °C 12,9 km/h (3 Bft)
09.12.2019 12:49 7,0 °C 65 % 1003,4 hPa 0,0 mm 5,4 km/h (1 Bft) NW 308 ° 0 min 0,000 mm 0,0 UV-I 30 W/m² 0,9 °C 6,2 °C 8,0 km/h (2 Bft)
09.12.2019 12:50 7,0 °C 65 % 1003,4 hPa 0,0 mm 9,5 km/h (2 Bft) NW 313 ° 0 min 0,000 mm 0,0 UV-I 32 W/m² 0,9 °C 5,1 °C 14,5 km/h (3 Bft)
09.12.2019 12:51 7,0 °C 65 % 1003,4 hPa 0,0 mm 11,7 km/h (2 Bft) W-NW 285 ° 0 min 0,000 mm 0,0 UV-I 33 W/m² 0,9 °C 4,7 °C 16,1 km/h (3 Bft)
09.12.2019 12:52 6,9 °C 65 % 1003,5 hPa 0,0 mm 11,8 km/h (2 Bft) W-SW 257 ° 0 min 0,000 mm 0,0 UV-I 35 W/m² 0,8 °C 4,6 °C 17,7 km/h (3 Bft)
09.12.2019 12:53 6,9 °C 64 % 1003,4 hPa 0,0 mm 8,6 km/h (2 Bft) W 264 ° 0 min 0,000 mm 0,0 UV-I 32 W/m² 0,6 °C 5,2 °C 12,9 km/h (3 Bft)
09.12.2019 12:54 6,9 °C 65 % 1003,4 hPa 0,0 mm 6,1 km/h (2 Bft) W-NW 303 ° 0 min 0,000 mm 0,0 UV-I 32 W/m² 0,8 °C 5,9 °C 8,0 km/h (2 Bft)
09.12.2019 12:55 6,9 °C 65 % 1003,4 hPa 0,0 mm 8,1 km/h (2 Bft) W-NW 296 ° 0 min 0,000 mm 0,0 UV-I 32 W/m² 0,8 °C 5,3 °C 14,5 km/h (3 Bft)
09.12.2019 12:56 6,9 °C 65 % 1003,4 hPa 0,0 mm 6,3 km/h (2 Bft) W-NW 288 ° 0 min 0,000 mm 0,0 UV-I 32 W/m² 0,8 °C 5,8 °C 9,7 km/h (2 Bft)
09.12.2019 12:57 6,9 °C 65 % 1003,3 hPa 0,0 mm 10,5 km/h (2 Bft) W-NW 298 ° 0 min 0,000 mm 0,0 UV-I 32 W/m² 0,8 °C 4,8 °C 14,5 km/h (3 Bft)
09.12.2019 12:58 6,8 °C 65 % 1003,4 hPa 0,0 mm 11,3 km/h (2 Bft) W 272 ° 0 min 0,000 mm 0,0 UV-I 35 W/m² 0,7 °C 4,6 °C 17,7 km/h (3 Bft)
09.12.2019 12:59 6,8 °C 65 % 1003,4 hPa 0,0 mm 12,3 km/h (3 Bft) W 263 ° 0 min 0,000 mm 0,0 UV-I 44 W/m² 0,7 °C 4,4 °C 16,1 km/h (3 Bft)
09.12.2019 13:00 6,8 °C 65 % 1003,4 hPa 0,0 mm 12,3 km/h (3 Bft) W-NW 288 ° 0 min 0,000 mm 0,0 UV-I 51 W/m² 0,7 °C 4,4 °C 17,7 km/h (3 Bft)
09.12.2019 13:01 6,8 °C 65 % 1003,4 hPa 0,0 mm 8,3 km/h (2 Bft) W-NW 295 ° 0 min 0,051 mm 0,0 UV-I 54 W/m² 0,7 °C 5,2 °C 14,5 km/h (3 Bft)
09.12.2019 13:02 6,8 °C 64 % 1003,4 hPa 0,0 mm 10,3 km/h (2 Bft) W-NW 292 ° 0 min 0,000 mm 0,0 UV-I 40 W/m² 0,5 °C 4,7 °C 17,7 km/h (3 Bft)
09.12.2019 13:03 6,8 °C 65 % 1003,4 hPa 0,0 mm 6,4 km/h (2 Bft) W-NW 286 ° 0 min 0,000 mm 0,0 UV-I 33 W/m² 0,7 °C 5,7 °C 12,9 km/h (3 Bft)
09.12.2019 13:04 6,8 °C 64 % 1003,4 hPa 0,0 mm 6,8 km/h (2 Bft) W-NW 300 ° 0 min 0,000 mm 0,0 UV-I 33 W/m² 0,5 °C 5,6 °C 12,9 km/h (3 Bft)
09.12.2019 13:05 6,8 °C 65 % 1003,3 hPa 0,0 mm 8,1 km/h (2 Bft) NW 315 ° 0 min 0,000 mm 0,0 UV-I 39 W/m² 0,7 °C 5,2 °C 14,5 km/h (3 Bft)
09.12.2019 13:06 6,8 °C 65 % 1003,4 hPa 0,0 mm 7,1 km/h (2 Bft) W 271 ° 0 min 0,000 mm 0,0 UV-I 39 W/m² 0,7 °C 5,5 °C 11,3 km/h (2 Bft)
09.12.2019 13:07 6,8 °C 65 % 1003,4 hPa 0,0 mm 9,7 km/h (2 Bft) W 281 ° 0 min 0,000 mm 0,0 UV-I 35 W/m² 0,7 °C 4,9 °C 14,5 km/h (3 Bft)
09.12.2019 13:08 6,8 °C 65 % 1003,4 hPa 0,0 mm 12,5 km/h (3 Bft) W-NW 290 ° 0 min 0,000 mm 0,0 UV-I 32 W/m² 0,7 °C 4,4 °C 17,7 km/h (3 Bft)
09.12.2019 13:09 6,8 °C 65 % 1003,4 hPa 0,0 mm 10,6 km/h (2 Bft) NW 305 ° 0 min 0,000 mm 0,0 UV-I 32 W/m² 0,7 °C 4,7 °C 14,5 km/h (3 Bft)
09.12.2019 13:10 6,8 °C 65 % 1003,4 hPa 0,0 mm 7,0 km/h (2 Bft) N-NW 334 ° 0 min 0,000 mm 0,0 UV-I 33 W/m² 0,7 °C 5,5 °C 11,3 km/h (2 Bft)
09.12.2019 13:11 6,9 °C 65 % 1003,4 hPa 0,0 mm 11,5 km/h (2 Bft) W-NW 284 ° 0 min 0,000 mm 0,0 UV-I 35 W/m² 0,8 °C 4,6 °C 17,7 km/h (3 Bft)
09.12.2019 13:12 6,8 °C 64 % 1003,4 hPa 0,0 mm 11,4 km/h (2 Bft) W-NW 294 ° 0 min 0,000 mm 0,0 UV-I 33 W/m² 0,5 °C 4,5 °C 14,5 km/h (3 Bft)
09.12.2019 13:13 6,9 °C 64 % 1003,4 hPa 0,0 mm 9,7 km/h (2 Bft) W 280 ° 0 min 0,000 mm 0,0 UV-I 35 W/m² 0,6 °C 5,0 °C 19,3 km/h (3 Bft)
09.12.2019 13:14 6,8 °C 64 % 1003,5 hPa 0,0 mm 13,4 km/h (3 Bft) W 277 ° 0 min 0,000 mm 0,0 UV-I 37 W/m² 0,5 °C 4,2 °C 17,7 km/h (3 Bft)
09.12.2019 13:15 6,8 °C 64 % 1003,4 hPa 0,0 mm 9,5 km/h (2 Bft) W-SW 257 ° 0 min 0,000 mm 0,0 UV-I 40 W/m² 0,5 °C 4,9 °C 16,1 km/h (3 Bft)
09.12.2019 13:16 6,8 °C 65 % 1003,4 hPa 0,0 mm 11,7 km/h (2 Bft) W 274 ° 0 min 0,000 mm 0,0 UV-I 46 W/m² 0,7 °C 4,5 °C 16,1 km/h (3 Bft)
09.12.2019 13:17 6,8 °C 65 % 1003,5 hPa 0,0 mm 8,1 km/h (2 Bft) W-NW 294 ° 0 min 0,000 mm 0,0 UV-I 47 W/m² 0,7 °C 5,2 °C 12,9 km/h (3 Bft)
09.12.2019 13:18 6,8 °C 65 % 1003,4 hPa 0,0 mm 9,4 km/h (2 Bft) W-NW 286 ° 0 min 0,000 mm 0,0 UV-I 47 W/m² 0,7 °C 4,9 °C 17,7 km/h (3 Bft)
09.12.2019 13:19 6,8 °C 64 % 1003,5 hPa 0,0 mm 8,6 km/h (2 Bft) W-NW 284 ° 0 min 0,000 mm 0,0 UV-I 49 W/m² 0,5 °C 5,1 °C 14,5 km/h (3 Bft)
09.12.2019 13:20 6,8 °C 65 % 1003,5 hPa 0,0 mm 4,5 km/h (1 Bft) W 275 ° 0 min 0,000 mm 0,0 UV-I 46 W/m² 0,7 °C 6,8 °C 8,0 km/h (2 Bft)
09.12.2019 13:21 6,7 °C 65 % 1003,5 hPa 0,0 mm 10,6 km/h (2 Bft) S-SW 208 ° 0 min 0,000 mm 0,0 UV-I 46 W/m² 0,6 °C 4,6 °C 19,3 km/h (3 Bft)
09.12.2019 13:22 6,7 °C 65 % 1003,4 hPa 0,0 mm 13,6 km/h (3 Bft) W-NW 302 ° 0 min 0,000 mm 0,0 UV-I 54 W/m² 0,6 °C 4,1 °C 20,9 km/h (4 Bft)
09.12.2019 13:23 6,7 °C 65 % 1003,5 hPa 0,0 mm 12,8 km/h (3 Bft) W 272 ° 0 min 0,000 mm 0,0 UV-I 54 W/m² 0,6 °C 4,2 °C 17,7 km/h (3 Bft)
09.12.2019 13:24 6,7 °C 65 % 1003,5 hPa 0,0 mm 9,9 km/h (2 Bft) W-SW 242 ° 0 min 0,000 mm 0,0 UV-I 51 W/m² 0,6 °C 4,7 °C 16,1 km/h (3 Bft)
09.12.2019 13:25 6,6 °C 65 % 1003,5 hPa 0,0 mm 10,4 km/h (2 Bft) W 261 ° 0 min 0,000 mm 0,0 UV-I 53 W/m² 0,5 °C 4,5 °C 17,7 km/h (3 Bft)
09.12.2019 13:26 6,6 °C 66 % 1003,4 hPa 0,0 mm 13,4 km/h (3 Bft) SW 234 ° 0 min 0,000 mm 0,0 UV-I 53 W/m² 0,7 °C 4,0 °C 19,3 km/h (3 Bft)
09.12.2019 13:27 6,6 °C 65 % 1003,4 hPa 0,0 mm 11,7 km/h (2 Bft) W 267 ° 0 min 0,000 mm 0,8 UV-I 62 W/m² 0,5 °C 4,2 °C 14,5 km/h (3 Bft)
09.12.2019 13:28 6,6 °C 66 % 1003,4 hPa 0,0 mm 8,7 km/h (2 Bft) W-SW 258 ° 0 min 0,000 mm 0,8 UV-I 65 W/m² 0,7 °C 4,8 °C 16,1 km/h (3 Bft)
09.12.2019 13:29 6,6 °C 65 % 1003,4 hPa 0,0 mm 6,3 km/h (2 Bft) W-SW 253 ° 0 min 0,000 mm 0,8 UV-I 67 W/m² 0,5 °C 5,5 °C 11,3 km/h (2 Bft)
09.12.2019 13:30 6,6 °C 66 % 1003,4 hPa 0,0 mm 6,3 km/h (2 Bft) W-SW 242 ° 0 min 0,000 mm 0,8 UV-I 65 W/m² 0,7 °C 5,5 °C 11,3 km/h (2 Bft)
09.12.2019 13:31 6,6 °C 66 % 1003,4 hPa 0,0 mm 9,9 km/h (2 Bft) S-SW 206 ° 0 min 0,000 mm 0,8 UV-I 62 W/m² 0,7 °C 4,6 °C 16,1 km/h (3 Bft)
09.12.2019 13:32 6,6 °C 65 % 1003,4 hPa 0,0 mm 11,2 km/h (2 Bft) W-SW 252 ° 0 min 0,000 mm 0,8 UV-I 56 W/m² 0,5 °C 4,3 °C 20,9 km/h (4 Bft)
09.12.2019 13:33 6,6 °C 65 % 1003,4 hPa 0,0 mm 6,8 km/h (2 Bft) W 266 ° 0 min 0,000 mm 0,8 UV-I 56 W/m² 0,5 °C 5,3 °C 11,3 km/h (2 Bft)
09.12.2019 13:34 6,6 °C 65 % 1003,4 hPa 0,0 mm 9,3 km/h (2 Bft) W-SW 251 ° 0 min 0,000 mm 0,0 UV-I 49 W/m² 0,5 °C 4,7 °C 16,1 km/h (3 Bft)
09.12.2019 13:35 6,6 °C 66 % 1003,4 hPa 0,0 mm 6,5 km/h (2 Bft) W 270 ° 0 min 0,000 mm 0,0 UV-I 46 W/m² 0,7 °C 5,4 °C 11,3 km/h (2 Bft)
09.12.2019 13:36 6,5 °C 66 % 1003,4 hPa 0,0 mm 6,4 km/h (2 Bft) W-SW 250 ° 0 min 0,000 mm 0,0 UV-I 49 W/m² 0,6 °C 5,3 °C 9,7 km/h (2 Bft)
09.12.2019 13:37 6,5 °C 65 % 1003,3 hPa 0,0 mm 7,1 km/h (2 Bft) SW 219 ° 0 min 0,000 mm 0,0 UV-I 47 W/m² 0,4 °C 5,1 °C 14,5 km/h (3 Bft)
09.12.2019 13:38 6,4 °C 65 % 1003,3 hPa 0,0 mm 4,6 km/h (1 Bft) S-SW 206 ° 0 min 0,000 mm 0,0 UV-I 42 W/m² 0,3 °C 5,8 °C 6,4 km/h (2 Bft)
09.12.2019 13:39 6,5 °C 66 % 1003,3 hPa 0,0 mm 3,1 km/h (1 Bft) SW 232 ° 0 min 0,000 mm 0,0 UV-I 40 W/m² 0,6 °C 6,5 °C 4,8 km/h (1 Bft)
09.12.2019 13:40 6,4 °C 66 % 1003,3 hPa 0,0 mm 3,0 km/h (1 Bft) W 279 ° 0 min 0,000 mm 0,0 UV-I 46 W/m² 0,5 °C 6,4 °C 4,8 km/h (1 Bft)
09.12.2019 13:41 6,4 °C 66 % 1003,3 hPa 0,0 mm 2,3 km/h (1 Bft) W 279 ° 0 min 0,000 mm 0,0 UV-I 44 W/m² 0,5 °C 6,4 °C 3,2 km/h (1 Bft)
09.12.2019 13:42 6,4 °C 66 % 1003,2 hPa 0,0 mm 2,6 km/h (1 Bft) W 279 ° 0 min 0,000 mm 0,0 UV-I 46 W/m² 0,5 °C 6,4 °C 3,2 km/h (1 Bft)
09.12.2019 13:43 6,3 °C 66 % 1003,3 hPa 0,0 mm 2,3 km/h (1 Bft) W 279 ° 0 min 0,000 mm 0,0 UV-I 47 W/m² 0,4 °C 6,3 °C 3,2 km/h (1 Bft)
09.12.2019 13:44 6,3 °C 66 % 1003,3 hPa 0,0 mm 3,7 km/h (1 Bft) S-SW 201 ° 0 min 0,000 mm 0,8 UV-I 118 W/m² 0,4 °C 6,3 °C 6,4 km/h (2 Bft)
09.12.2019 13:45 6,3 °C 67 % 1003,3 hPa 0,0 mm 3,1 km/h (1 Bft) W 259 ° 0 min 0,000 mm 0,0 UV-I 53 W/m² 0,6 °C 6,3 °C 4,8 km/h (1 Bft)
09.12.2019 13:46 6,3 °C 67 % 1003,3 hPa 0,0 mm 1,9 km/h (1 Bft) W 259 ° 0 min 0,000 mm 0,0 UV-I 53 W/m² 0,6 °C 6,3 °C 3,2 km/h (1 Bft)
09.12.2019 13:47 6,3 °C 67 % 1003,3 hPa 0,0 mm 4,2 km/h (1 Bft) W 259 ° 0 min 0,000 mm 0,0 UV-I 47 W/m² 0,6 °C 6,3 °C 6,4 km/h (2 Bft)
09.12.2019 13:48 6,2 °C 67 % 1003,3 hPa 0,0 mm 2,2 km/h (1 Bft) W 259 ° 0 min 0,000 mm 0,0 UV-I 46 W/m² 0,5 °C 6,2 °C 4,8 km/h (1 Bft)
09.12.2019 13:49 6,3 °C 66 % 1003,3 hPa 0,0 mm 3,6 km/h (1 Bft) W-SW 239 ° 0 min 0,000 mm 0,0 UV-I 54 W/m² 0,4 °C 6,3 °C 8,0 km/h (2 Bft)
09.12.2019 13:50 6,3 °C 66 % 1003,3 hPa 0,0 mm 4,6 km/h (1 Bft) S-SW 211 ° 0 min 0,000 mm 0,9 UV-I 54 W/m² 0,4 °C 5,7 °C 8,0 km/h (2 Bft)
09.12.2019 13:51 6,3 °C 66 % 1003,2 hPa 0,0 mm 4,2 km/h (1 Bft) S-SW 207 ° 0 min 0,000 mm 0,8 UV-I 246 W/m² 0,4 °C 6,3 °C 6,4 km/h (2 Bft)
09.12.2019 13:52 6,4 °C 65 % 1003,2 hPa 0,0 mm 2,5 km/h (1 Bft) S-SW 208 ° 0 min 0,000 mm 0,9 UV-I 251 W/m² 0,3 °C 6,4 °C 3,2 km/h (1 Bft)
09.12.2019 13:53 6,4 °C 65 % 1003,2 hPa 0,0 mm 1,4 km/h (1 Bft) W-SW 258 ° 0 min 0,000 mm 0,0 UV-I 54 W/m² 0,3 °C 6,4 °C 6,4 km/h (2 Bft)
09.12.2019 13:54 6,4 °C 65 % 1003,2 hPa 0,0 mm 5,5 km/h (1 Bft) W 271 ° 0 min 0,000 mm 0,7 UV-I 63 W/m² 0,3 °C 5,5 °C 11,3 km/h (2 Bft)
09.12.2019 13:55 6,4 °C 65 % 1003,2 hPa 0,0 mm 5,9 km/h (2 Bft) W 271 ° 0 min 0,000 mm 0,7 UV-I 63 W/m² 0,3 °C 5,4 °C 9,7 km/h (2 Bft)
09.12.2019 13:56 6,4 °C 66 % 1003,2 hPa 0,0 mm 4,4 km/h (1 Bft) W-SW 250 ° 0 min 0,000 mm 0,7 UV-I 91 W/m² 0,5 °C 6,4 °C 6,4 km/h (2 Bft)
09.12.2019 13:57 6,4 °C 67 % 1003,2 hPa 0,0 mm 3,8 km/h (1 Bft) W-SW 243 ° 0 min 0,000 mm 0,7 UV-I 105 W/m² 0,7 °C 6,4 °C 4,8 km/h (1 Bft)
09.12.2019 13:58 6,4 °C 66 % 1003,2 hPa 0,0 mm 3,4 km/h (1 Bft) S-SW 194 ° 0 min 0,000 mm 0,7 UV-I 107 W/m² 0,5 °C 6,4 °C 4,8 km/h (1 Bft)
09.12.2019 13:59 6,5 °C 65 % 1003,2 hPa 0,0 mm 3,4 km/h (1 Bft) S-SW 197 ° 0 min 0,000 mm 0,7 UV-I 107 W/m² 0,4 °C 6,5 °C 6,4 km/h (2 Bft)
09.12.2019 14:00 6,6 °C 65 % 1003,1 hPa 0,0 mm 0,5 km/h (0 Bft) S-SW 197 ° 0 min 0,000 mm 0,7 UV-I 100 W/m² 0,5 °C 6,6 °C 1,6 km/h (1 Bft)
09.12.2019 14:01 6,6 °C 65 % 1003,1 hPa 0,0 mm 3,0 km/h (1 Bft) S-SW 194 ° 0 min 0,051 mm 0,7 UV-I 98 W/m² 0,5 °C 6,6 °C 8,0 km/h (2 Bft)
09.12.2019 14:02 6,7 °C 65 % 1003,0 hPa 0,0 mm 5,2 km/h (1 Bft) S-SO 159 ° 0 min 0,000 mm 0,7 UV-I 98 W/m² 0,6 °C 5,9 °C 6,4 km/h (2 Bft)
09.12.2019 14:03 6,7 °C 65 % 1003,0 hPa 0,0 mm 3,4 km/h (1 Bft) S-SW 202 ° 0 min 0,000 mm 0,7 UV-I 95 W/m² 0,6 °C 6,7 °C 6,4 km/h (2 Bft)
09.12.2019 14:04 6,8 °C 65 % 1003,0 hPa 0,0 mm 3,3 km/h (1 Bft) O 92 ° 0 min 0,000 mm 0,7 UV-I 91 W/m² 0,7 °C 6,8 °C 6,4 km/h (2 Bft)
09.12.2019 14:05 6,8 °C 65 % 1003,0 hPa 0,0 mm 5,5 km/h (1 Bft) S 190 ° 0 min 0,000 mm 0,7 UV-I 86 W/m² 0,7 °C 6,0 °C 8,0 km/h (2 Bft)
09.12.2019 14:06 6,8 °C 64 % 1003,1 hPa 0,0 mm 3,9 km/h (1 Bft) S 189 ° 0 min 0,000 mm 0,7 UV-I 84 W/m² 0,5 °C 6,8 °C 8,0 km/h (2 Bft)
09.12.2019 14:07 6,8 °C 65 % 1003,1 hPa 0,0 mm 6,2 km/h (2 Bft) W-SW 239 ° 0 min 0,000 mm 0,7 UV-I 90 W/m² 0,7 °C 5,7 °C 11,3 km/h (2 Bft)
09.12.2019 14:08 6,8 °C 65 % 1003,1 hPa 0,0 mm 8,2 km/h (2 Bft) SW 236 ° 0 min 0,000 mm 0,6 UV-I 91 W/m² 0,7 °C 5,2 °C 12,9 km/h (3 Bft)
09.12.2019 14:09 6,8 °C 65 % 1003,1 hPa 0,0 mm 9,3 km/h (2 Bft) W-SW 242 ° 0 min 0,000 mm 0,6 UV-I 98 W/m² 0,7 °C 5,0 °C 14,5 km/h (3 Bft)
09.12.2019 14:10 6,8 °C 65 % 1003,1 hPa 0,0 mm 8,7 km/h (2 Bft) S-SW 196 ° 0 min 0,000 mm 0,6 UV-I 104 W/m² 0,7 °C 5,1 °C 12,9 km/h (3 Bft)
09.12.2019 14:11 6,8 °C 65 % 1003,0 hPa 0,0 mm 9,1 km/h (2 Bft) W-SW 241 ° 0 min 0,000 mm 0,6 UV-I 105 W/m² 0,7 °C 5,0 °C 16,1 km/h (3 Bft)
09.12.2019 14:12 6,8 °C 65 % 1003,1 hPa 0,0 mm 5,3 km/h (1 Bft) SW 229 ° 0 min 0,000 mm 0,6 UV-I 105 W/m² 0,7 °C 6,0 °C 11,3 km/h (2 Bft)
09.12.2019 14:13 6,8 °C 65 % 1003,1 hPa 0,0 mm 6,6 km/h (2 Bft) W-SW 250 ° 0 min 0,000 mm 0,6 UV-I 102 W/m² 0,7 °C 5,6 °C 11,3 km/h (2 Bft)
09.12.2019 14:14 6,9 °C 65 % 1003,1 hPa 0,0 mm 5,3 km/h (1 Bft) W-SW 251 ° 0 min 0,000 mm 0,6 UV-I 102 W/m² 0,8 °C 6,1 °C 9,7 km/h (2 Bft)
09.12.2019 14:15 6,9 °C 65 % 1003,0 hPa 0,0 mm 7,6 km/h (2 Bft) W-SW 250 ° 0 min 0,000 mm 0,6 UV-I 113 W/m² 0,8 °C 5,5 °C 9,7 km/h (2 Bft)
09.12.2019 14:16 6,9 °C 66 % 1003,1 hPa 0,0 mm 6,3 km/h (2 Bft) W-NW 293 ° 0 min 0,000 mm 0,6 UV-I 111 W/m² 1,0 °C 5,8 °C 11,3 km/h (2 Bft)
09.12.2019 14:17 6,9 °C 65 % 1003,0 hPa 0,0 mm 2,9 km/h (1 Bft) SW 221 ° 0 min 0,000 mm 0,6 UV-I 109 W/m² 0,8 °C 6,9 °C 4,8 km/h (1 Bft)
09.12.2019 14:18 6,9 °C 65 % 1003,0 hPa 0,0 mm 5,4 km/h (1 Bft) SW 233 ° 0 min 0,000 mm 0,6 UV-I 107 W/m² 0,8 °C 6,1 °C 8,0 km/h (2 Bft)
09.12.2019 14:19 6,9 °C 65 % 1002,9 hPa 0,0 mm 2,5 km/h (1 Bft) SW 232 ° 0 min 0,000 mm 0,6 UV-I 109 W/m² 0,8 °C 6,9 °C 4,8 km/h (1 Bft)
09.12.2019 14:20 6,9 °C 64 % 1002,9 hPa 0,0 mm 3,4 km/h (1 Bft) S-SW 211 ° 0 min 0,000 mm 0,6 UV-I 109 W/m² 0,6 °C 6,9 °C 6,4 km/h (2 Bft)
09.12.2019 14:21 7,0 °C 64 % 1002,9 hPa 0,0 mm 4,8 km/h (1 Bft) W-SW 255 ° 0 min 0,000 mm 0,6 UV-I 111 W/m² 0,7 °C 6,4 °C 6,4 km/h (2 Bft)
09.12.2019 14:22 7,0 °C 64 % 1002,9 hPa 0,0 mm 3,2 km/h (1 Bft) W-SW 256 ° 0 min 0,000 mm 0,6 UV-I 107 W/m² 0,7 °C 7,0 °C 4,8 km/h (1 Bft)
09.12.2019 14:23 7,0 °C 63 % 1002,9 hPa 0,0 mm 5,9 km/h (2 Bft) W-SW 251 ° 0 min 0,000 mm 0,6 UV-I 104 W/m² 0,4 °C 6,1 °C 8,0 km/h (2 Bft)
09.12.2019 14:24 7,1 °C 63 % 1002,9 hPa 0,0 mm 3,6 km/h (1 Bft) W-SW 252 ° 0 min 0,000 mm 0,6 UV-I 104 W/m² 0,5 °C 7,1 °C 6,4 km/h (2 Bft)
09.12.2019 14:25 7,1 °C 63 % 1002,9 hPa 0,0 mm 2,3 km/h (1 Bft) SW 218 ° 0 min 0,000 mm 0,6 UV-I 104 W/m² 0,5 °C 7,1 °C 4,8 km/h (1 Bft)
09.12.2019 14:26 7,1 °C 63 % 1002,9 hPa 0,0 mm 4,4 km/h (1 Bft) W-SW 238 ° 0 min 0,000 mm 0,6 UV-I 107 W/m² 0,5 °C 7,1 °C 9,7 km/h (2 Bft)
09.12.2019 14:27 7,1 °C 63 % 1002,9 hPa 0,0 mm 1,4 km/h (1 Bft) SW 236 ° 0 min 0,000 mm 0,6 UV-I 105 W/m² 0,5 °C 7,1 °C 3,2 km/h (1 Bft)
09.12.2019 14:28 7,1 °C 63 % 1002,9 hPa 0,0 mm 5,5 km/h (1 Bft) W 265 ° 0 min 0,000 mm 0,6 UV-I 102 W/m² 0,5 °C 6,3 °C 14,5 km/h (3 Bft)
09.12.2019 14:29 7,1 °C 63 % 1002,9 hPa 0,0 mm 7,4 km/h (2 Bft) W-SW 257 ° 0 min 0,000 mm 0,6 UV-I 100 W/m² 0,5 °C 5,7 °C 11,3 km/h (2 Bft)
09.12.2019 14:30 7,2 °C 63 % 1002,9 hPa 0,0 mm 5,8 km/h (2 Bft) W-SW 257 ° 0 min 0,000 mm 0,6 UV-I 97 W/m² 0,6 °C 6,3 °C 6,4 km/h (2 Bft)
09.12.2019 14:31 7,1 °C 63 % 1002,9 hPa 0,0 mm 3,6 km/h (1 Bft) W-SW 257 ° 0 min 0,000 mm 0,6 UV-I 95 W/m² 0,5 °C 7,1 °C 4,8 km/h (1 Bft)
09.12.2019 14:32 7,1 °C 63 % 1002,9 hPa 0,0 mm 0,0 km/h (0 Bft) W-SW 257 ° 0 min 0,000 mm 0,6 UV-I 95 W/m² 0,5 °C 7,1 °C 0,0 km/h (0 Bft)
09.12.2019 14:33 7,1 °C 64 % 1002,9 hPa 0,0 mm 0,7 km/h (0 Bft) W-SW 257 ° 0 min 0,000 mm 0,5 UV-I 93 W/m² 0,8 °C 7,1 °C 3,2 km/h (1 Bft)
09.12.2019 14:34 7,1 °C 64 % 1003,0 hPa 0,0 mm 0,9 km/h (0 Bft) W-SW 257 ° 0 min 0,000 mm 0,5 UV-I 93 W/m² 0,8 °C 7,1 °C 3,2 km/h (1 Bft)
09.12.2019 14:35 7,1 °C 63 % 1002,9 hPa 0,0 mm 0,0 km/h (0 Bft) W-SW 257 ° 0 min 0,000 mm 0,5 UV-I 91 W/m² 0,5 °C 7,1 °C 0,0 km/h (0 Bft)
09.12.2019 14:36 7,1 °C 63 % 1003,0 hPa 0,0 mm 0,1 km/h (0 Bft) W-SW 257 ° 0 min 0,000 mm 0,5 UV-I 88 W/m² 0,5 °C 7,1 °C 1,6 km/h (1 Bft)
09.12.2019 14:37 7,1 °C 64 % 1003,0 hPa 0,0 mm 0,0 km/h (0 Bft) W-SW 257 ° 0 min 0,000 mm 0,5 UV-I 84 W/m² 0,8 °C 7,1 °C 0,0 km/h (0 Bft)
09.12.2019 14:38 7,1 °C 62 % 1002,9 hPa 0,0 mm 5,8 km/h (2 Bft) S-SW 211 ° 0 min 0,000 mm 0,5 UV-I 79 W/m² 0,3 °C 6,2 °C 9,7 km/h (2 Bft)
09.12.2019 14:39 7,1 °C 60 % 1002,9 hPa 0,0 mm 5,3 km/h (1 Bft) W 269 ° 0 min 0,000 mm 0,5 UV-I 79 W/m² -0,1 °C 6,4 °C 16,1 km/h (3 Bft)
09.12.2019 14:40 7,2 °C 60 % 1002,9 hPa 0,0 mm 9,6 km/h (2 Bft) W 269 ° 0 min 0,000 mm 0,0 UV-I 77 W/m² -0,0 °C 5,4 °C 14,5 km/h (3 Bft)
09.12.2019 14:41 7,2 °C 60 % 1003,0 hPa 0,0 mm 8,7 km/h (2 Bft) W 272 ° 0 min 0,000 mm 0,0 UV-I 77 W/m² -0,0 °C 5,6 °C 11,3 km/h (2 Bft)
09.12.2019 14:42 7,2 °C 60 % 1003,0 hPa 0,0 mm 7,0 km/h (2 Bft) W-NW 300 ° 0 min 0,000 mm 0,0 UV-I 77 W/m² -0,0 °C 6,0 °C 8,0 km/h (2 Bft)
09.12.2019 14:43 7,2 °C 60 % 1003,1 hPa 0,0 mm 5,2 km/h (1 Bft) W-NW 299 ° 0 min 0,000 mm 0,0 UV-I 79 W/m² -0,0 °C 6,5 °C 6,4 km/h (2 Bft)
09.12.2019 14:44 7,2 °C 60 % 1003,1 hPa 0,0 mm 3,1 km/h (1 Bft) W-NW 300 ° 0 min 0,000 mm 0,0 UV-I 76 W/m² -0,0 °C 7,2 °C 4,8 km/h (1 Bft)
09.12.2019 14:45 7,2 °C 61 % 1003,1 hPa 0,0 mm 4,0 km/h (1 Bft) W-NW 288 ° 0 min 0,000 mm 0,0 UV-I 77 W/m² 0,2 °C 7,2 °C 6,4 km/h (2 Bft)
09.12.2019 14:46 7,2 °C 61 % 1003,2 hPa 0,0 mm 6,8 km/h (2 Bft) W-NW 291 ° 0 min 0,000 mm 0,0 UV-I 77 W/m² 0,2 °C 6,0 °C 11,3 km/h (2 Bft)
09.12.2019 14:47 7,2 °C 62 % 1003,2 hPa 0,0 mm 3,1 km/h (1 Bft) W-NW 286 ° 0 min 0,000 mm 0,0 UV-I 79 W/m² 0,4 °C 7,2 °C 4,8 km/h (1 Bft)
09.12.2019 14:48 7,2 °C 62 % 1003,2 hPa 0,0 mm 4,0 km/h (1 Bft) W 269 ° 0 min 0,000 mm 0,0 UV-I 81 W/m² 0,4 °C 7,2 °C 9,7 km/h (2 Bft)
09.12.2019 14:49 7,2 °C 62 % 1003,3 hPa 0,0 mm 5,8 km/h (2 Bft) W-NW 286 ° 0 min 0,000 mm 0,0 UV-I 79 W/m² 0,4 °C 6,3 °C 8,0 km/h (2 Bft)
09.12.2019 14:50 7,2 °C 61 % 1003,3 hPa 0,0 mm 7,4 km/h (2 Bft) W 267 ° 0 min 0,000 mm 0,0 UV-I 72 W/m² 0,2 °C 5,9 °C 11,3 km/h (2 Bft)
09.12.2019 14:51 7,2 °C 62 % 1003,4 hPa 0,0 mm 6,2 km/h (2 Bft) W 271 ° 0 min 0,000 mm 0,0 UV-I 72 W/m² 0,4 °C 6,2 °C 9,7 km/h (2 Bft)
09.12.2019 14:52 7,2 °C 63 % 1003,3 hPa 0,0 mm 5,3 km/h (1 Bft) W-NW 286 ° 0 min 0,000 mm 0,0 UV-I 67 W/m² 0,6 °C 6,5 °C 11,3 km/h (2 Bft)
09.12.2019 14:53 7,1 °C 62 % 1003,4 hPa 0,0 mm 5,6 km/h (1 Bft) W 267 ° 0 min 0,000 mm 0,0 UV-I 63 W/m² 0,3 °C 6,3 °C 8,0 km/h (2 Bft)
09.12.2019 14:54 7,1 °C 61 % 1003,5 hPa 0,0 mm 12,8 km/h (3 Bft) W-SW 241 ° 0 min 0,000 mm 0,0 UV-I 58 W/m² 0,1 °C 4,7 °C 17,7 km/h (3 Bft)
09.12.2019 14:55 7,1 °C 62 % 1003,6 hPa 0,0 mm 7,7 km/h (2 Bft) W-NW 282 ° 0 min 0,000 mm 0,0 UV-I 54 W/m² 0,3 °C 5,7 °C 16,1 km/h (3 Bft)
09.12.2019 14:56 7,1 °C 62 % 1003,6 hPa 0,0 mm 15,0 km/h (3 Bft) W-NW 286 ° 0 min 0,000 mm 0,0 UV-I 51 W/m² 0,3 °C 4,3 °C 20,9 km/h (4 Bft)
09.12.2019 14:57 7,1 °C 61 % 1003,7 hPa 0,0 mm 17,6 km/h (3 Bft) W 280 ° 0 min 0,000 mm 0,0 UV-I 49 W/m² 0,1 °C 4,0 °C 24,1 km/h (4 Bft)
09.12.2019 14:58 7,1 °C 60 % 1003,6 hPa 0,0 mm 15,0 km/h (3 Bft) W 265 ° 0 min 0,000 mm 0,0 UV-I 49 W/m² -0,1 °C 4,3 °C 24,1 km/h (4 Bft)
09.12.2019 14:59 7,1 °C 61 % 1003,6 hPa 0,0 mm 17,3 km/h (3 Bft) W-NW 288 ° 0 min 0,000 mm 0,0 UV-I 47 W/m² 0,1 °C 4,0 °C 24,1 km/h (4 Bft)
09.12.2019 15:00 7,1 °C 61 % 1003,5 hPa 0,0 mm 12,4 km/h (3 Bft) W 262 ° 0 min 0,000 mm 0,0 UV-I 46 W/m² 0,1 °C 4,7 °C 24,1 km/h (4 Bft)
09.12.2019 15:01 7,1 °C 61 % 1003,6 hPa 0,0 mm 18,6 km/h (3 Bft) W-SW 238 ° 0 min 0,050 mm 0,0 UV-I 46 W/m² 0,1 °C 3,9 °C 29,0 km/h (5 Bft)
09.12.2019 15:02 7,0 °C 62 % 1003,7 hPa 0,0 mm 13,6 km/h (3 Bft) NW 307 ° 0 min 0,000 mm 0,0 UV-I 44 W/m² 0,2 °C 4,4 °C 20,9 km/h (4 Bft)
09.12.2019 15:03 7,0 °C 62 % 1003,7 hPa 0,0 mm 13,2 km/h (3 Bft) W 280 ° 0 min 0,000 mm 0,0 UV-I 39 W/m² 0,2 °C 4,5 °C 17,7 km/h (3 Bft)
09.12.2019 15:04 6,9 °C 62 % 1003,8 hPa 0,0 mm 12,1 km/h (2 Bft) W-SW 257 ° 0 min 0,000 mm 0,0 UV-I 37 W/m² 0,1 °C 4,5 °C 17,7 km/h (3 Bft)
09.12.2019 15:05 6,9 °C 62 % 1003,8 hPa 0,0 mm 16,2 km/h (3 Bft) W 270 ° 0 min 0,000 mm 0,0 UV-I 37 W/m² 0,1 °C 3,9 °C 25,7 km/h (4 Bft)
09.12.2019 15:06 6,9 °C 63 % 1003,8 hPa 0,0 mm 17,9 km/h (3 Bft) W 270 ° 0 min 0,000 mm 0,0 UV-I 37 W/m² 0,4 °C 3,7 °C 24,1 km/h (4 Bft)
09.12.2019 15:07 6,9 °C 63 % 1003,8 hPa 0,0 mm 17,9 km/h (3 Bft) W 265 ° 0 min 0,000 mm 0,0 UV-I 37 W/m² 0,4 °C 3,7 °C 24,1 km/h (4 Bft)
09.12.2019 15:08 6,9 °C 63 % 1003,9 hPa 0,0 mm 15,7 km/h (3 Bft) W 269 ° 0 min 0,000 mm 0,0 UV-I 37 W/m² 0,4 °C 4,0 °C 24,1 km/h (4 Bft)
09.12.2019 15:09 6,8 °C 63 % 1004,0 hPa 0,0 mm 19,9 km/h (4 Bft) W 278 ° 0 min 0,000 mm 0,0 UV-I 33 W/m² 0,3 °C 3,3 °C 35,4 km/h (5 Bft)
09.12.2019 15:10 6,8 °C 64 % 1004,0 hPa 0,0 mm 25,7 km/h (4 Bft) W-NW 297 ° 0 min 0,000 mm 0,0 UV-I 30 W/m² 0,5 °C 2,8 °C 32,2 km/h (5 Bft)
09.12.2019 15:11 6,8 °C 65 % 1004,3 hPa 0,0 mm 18,6 km/h (3 Bft) W 264 ° 0 min 0,000 mm 0,0 UV-I 28 W/m² 0,7 °C 3,5 °C 24,1 km/h (4 Bft)
09.12.2019 15:12 6,7 °C 65 % 1004,2 hPa 0,0 mm 16,4 km/h (3 Bft) W 262 ° 0 min 0,000 mm 0,0 UV-I 26 W/m² 0,6 °C 3,7 °C 22,5 km/h (4 Bft)
09.12.2019 15:13 6,7 °C 66 % 1004,2 hPa 0,0 mm 11,4 km/h (2 Bft) W 279 ° 0 min 0,000 mm 0,0 UV-I 25 W/m² 0,8 °C 4,4 °C 22,5 km/h (4 Bft)
09.12.2019 15:14 6,6 °C 67 % 1004,3 hPa 0,0 mm 15,7 km/h (3 Bft) NW 321 ° 0 min 0,000 mm 0,0 UV-I 21 W/m² 0,9 °C 3,6 °C 29,0 km/h (5 Bft)
09.12.2019 15:15 6,5 °C 68 % 1004,2 hPa 0,0 mm 14,4 km/h (3 Bft) W-SW 242 ° 0 min 0,000 mm 0,0 UV-I 19 W/m² 1,0 °C 3,7 °C 19,3 km/h (3 Bft)
09.12.2019 15:16 6,4 °C 68 % 1004,3 hPa 0,0 mm 22,9 km/h (4 Bft) W 272 ° 0 min 0,000 mm 0,0 UV-I 19 W/m² 0,9 °C 2,5 °C 40,2 km/h (6 Bft)
09.12.2019 15:17 6,4 °C 68 % 1004,2 hPa 0,0 mm 22,9 km/h (4 Bft) W 267 ° 0 min 0,000 mm 0,0 UV-I 19 W/m² 0,9 °C 2,5 °C 30,6 km/h (5 Bft)
09.12.2019 15:18 6,3 °C 69 % 1004,2 hPa 0,0 mm 25,7 km/h (4 Bft) W-SW 252 ° 0 min 0,000 mm 0,0 UV-I 19 W/m² 1,0 °C 2,1 °C 40,2 km/h (6 Bft)
09.12.2019 15:19 6,2 °C 69 % 1004,2 hPa 0,0 mm 13,6 km/h (3 Bft) W-SW 252 ° 0 min 0,000 mm 0,0 UV-I 21 W/m² 0,9 °C 3,4 °C 24,1 km/h (4 Bft)
09.12.2019 15:20 6,1 °C 70 % 1004,1 hPa 0,0 mm 14,5 km/h (3 Bft) W 268 ° 0 min 0,000 mm 0,0 UV-I 21 W/m² 1,0 °C 3,2 °C 24,1 km/h (4 Bft)
09.12.2019 15:21 5,9 °C 71 % 1004,2 hPa 0,0 mm 15,4 km/h (3 Bft) W 273 ° 0 min 0,000 mm 0,0 UV-I 21 W/m² 1,1 °C 2,8 °C 20,9 km/h (4 Bft)
09.12.2019 15:22 5,9 °C 71 % 1004,3 hPa 0,0 mm 10,8 km/h (2 Bft) W-SW 238 ° 0 min 0,000 mm 0,0 UV-I 23 W/m² 1,1 °C 3,6 °C 16,1 km/h (3 Bft)
09.12.2019 15:23 5,8 °C 72 % 1004,2 hPa 0,0 mm 13,8 km/h (3 Bft) W-SW 250 ° 0 min 0,000 mm 0,0 UV-I 23 W/m² 1,2 °C 2,9 °C 24,1 km/h (4 Bft)
09.12.2019 15:24 5,8 °C 72 % 1004,2 hPa 0,0 mm 16,5 km/h (3 Bft) W 273 ° 0 min 0,000 mm 0,0 UV-I 23 W/m² 1,2 °C 2,5 °C 27,4 km/h (4 Bft)
09.12.2019 15:25 5,7 °C 73 % 1004,2 hPa 0,0 mm 14,8 km/h (3 Bft) W 281 ° 0 min 0,000 mm 0,0 UV-I 23 W/m² 1,2 °C 2,6 °C 24,1 km/h (4 Bft)
09.12.2019 15:26 5,6 °C 73 % 1004,2 hPa 0,0 mm 8,6 km/h (2 Bft) W-SW 250 ° 0 min 0,000 mm 0,0 UV-I 30 W/m² 1,2 °C 3,7 °C 11,3 km/h (2 Bft)
09.12.2019 15:27 5,6 °C 74 % 1004,2 hPa 0,0 mm 10,9 km/h (2 Bft) W-SW 258 ° 0 min 0,000 mm 0,0 UV-I 35 W/m² 1,3 °C 3,2 °C 14,5 km/h (3 Bft)
09.12.2019 15:28 5,5 °C 74 % 1004,2 hPa 0,0 mm 17,1 km/h (3 Bft) W 263 ° 0 min 0,000 mm 0,0 UV-I 37 W/m² 1,2 °C 2,1 °C 22,5 km/h (4 Bft)
09.12.2019 15:29 5,5 °C 75 % 1004,3 hPa 0,0 mm 12,2 km/h (2 Bft) W 263 ° 0 min 0,000 mm 0,0 UV-I 37 W/m² 1,4 °C 2,8 °C 16,1 km/h (3 Bft)
09.12.2019 15:30 5,4 °C 75 % 1004,4 hPa 0,0 mm 11,6 km/h (2 Bft) W 267 ° 0 min 0,000 mm 0,0 UV-I 37 W/m² 1,3 °C 2,8 °C 14,5 km/h (3 Bft)
09.12.2019 15:31 5,3 °C 75 % 1004,4 hPa 0,0 mm 13,2 km/h (3 Bft) W-NW 282 ° 0 min 0,000 mm 0,0 UV-I 33 W/m² 1,2 °C 2,4 °C 16,1 km/h (3 Bft)
09.12.2019 15:32 5,3 °C 75 % 1004,5 hPa 0,0 mm 8,0 km/h (2 Bft) W 270 ° 0 min 0,000 mm 0,0 UV-I 33 W/m² 1,2 °C 3,5 °C 11,3 km/h (2 Bft)
09.12.2019 15:33 5,3 °C 76 % 1004,4 hPa 0,0 mm 12,1 km/h (2 Bft) W-NW 292 ° 0 min 0,000 mm 0,0 UV-I 35 W/m² 1,4 °C 2,6 °C 14,5 km/h (3 Bft)
09.12.2019 15:34 5,3 °C 76 % 1004,5 hPa 0,0 mm 9,8 km/h (2 Bft) W 273 ° 0 min 0,000 mm 0,0 UV-I 37 W/m² 1,4 °C 3,1 °C 14,5 km/h (3 Bft)
09.12.2019 15:35 5,2 °C 77 % 1004,5 hPa 0,0 mm 12,3 km/h (3 Bft) W-SW 240 ° 0 min 0,000 mm 0,0 UV-I 39 W/m² 1,5 °C 2,4 °C 19,3 km/h (3 Bft)
09.12.2019 15:36 5,2 °C 77 % 1004,5 hPa 0,0 mm 10,1 km/h (2 Bft) W 264 ° 0 min 0,000 mm 0,0 UV-I 39 W/m² 1,5 °C 2,9 °C 19,3 km/h (3 Bft)
09.12.2019 15:37 5,1 °C 77 % 1004,6 hPa 0,0 mm 12,0 km/h (2 Bft) W-NW 298 ° 0 min 0,000 mm 0,0 UV-I 33 W/m² 1,4 °C 2,4 °C 17,7 km/h (3 Bft)
09.12.2019 15:38 5,1 °C 77 % 1004,6 hPa 0,0 mm 15,3 km/h (3 Bft) W 269 ° 0 min 0,000 mm 0,0 UV-I 33 W/m² 1,4 °C 1,8 °C 22,5 km/h (4 Bft)
09.12.2019 15:39 5,1 °C 77 % 1004,6 hPa 0,0 mm 14,6 km/h (3 Bft) SW 225 ° 0 min 0,000 mm 0,0 UV-I 33 W/m² 1,4 °C 1,9 °C 19,3 km/h (3 Bft)
09.12.2019 15:40 5,1 °C 77 % 1004,6 hPa 0,0 mm 15,9 km/h (3 Bft) W 269 ° 0 min 0,000 mm 0,0 UV-I 37 W/m² 1,4 °C 1,7 °C 22,5 km/h (4 Bft)
09.12.2019 15:41 5,0 °C 77 % 1004,4 hPa 0,0 mm 15,0 km/h (3 Bft) W 266 ° 0 min 0,000 mm 0,0 UV-I 35 W/m² 1,3 °C 1,7 °C 19,3 km/h (3 Bft)
09.12.2019 15:42 4,9 °C 77 % 1004,5 hPa 0,0 mm 13,3 km/h (3 Bft) W 277 ° 0 min 0,000 mm 0,0 UV-I 35 W/m² 1,2 °C 1,9 °C 19,3 km/h (3 Bft)
09.12.2019 15:43 4,9 °C 77 % 1004,5 hPa 0,0 mm 16,8 km/h (3 Bft) W 263 ° 0 min 0,000 mm 0,0 UV-I 32 W/m² 1,2 °C 1,4 °C 25,7 km/h (4 Bft)
09.12.2019 15:44 4,9 °C 77 % 1004,5 hPa 0,0 mm 15,6 km/h (3 Bft) W-SW 256 ° 0 min 0,000 mm 0,0 UV-I 30 W/m² 1,2 °C 1,5 °C 27,4 km/h (4 Bft)
09.12.2019 15:45 4,9 °C 77 % 1004,4 hPa 0,0 mm 12,8 km/h (3 Bft) W 266 ° 0 min 0,000 mm 0,0 UV-I 28 W/m² 1,2 °C 2,0 °C 19,3 km/h (3 Bft)
09.12.2019 15:46 4,9 °C 78 % 1004,5 hPa 0,0 mm 16,7 km/h (3 Bft) W-SW 255 ° 0 min 0,000 mm 0,0 UV-I 26 W/m² 1,4 °C 1,4 °C 22,5 km/h (4 Bft)
09.12.2019 15:47 4,8 °C 78 % 1004,5 hPa 0,0 mm 9,7 km/h (2 Bft) W 268 ° 0 min 0,000 mm 0,0 UV-I 26 W/m² 1,3 °C 2,5 °C 16,1 km/h (3 Bft)
09.12.2019 15:48 4,8 °C 78 % 1004,5 hPa 0,0 mm 14,4 km/h (3 Bft) W 273 ° 0 min 0,000 mm 0,0 UV-I 25 W/m² 1,3 °C 1,6 °C 25,7 km/h (4 Bft)
09.12.2019 15:49 4,8 °C 78 % 1004,4 hPa 0,0 mm 18,2 km/h (3 Bft) W-SW 254 ° 0 min 0,000 mm 0,0 UV-I 23 W/m² 1,3 °C 1,0 °C 25,7 km/h (4 Bft)
09.12.2019 15:50 4,8 °C 78 % 1004,5 hPa 0,0 mm 24,4 km/h (4 Bft) W-NW 292 ° 0 min 0,000 mm 0,0 UV-I 21 W/m² 1,3 °C 0,3 °C 29,0 km/h (5 Bft)
09.12.2019 15:51 4,7 °C 78 % 1004,5 hPa 0,0 mm 15,6 km/h (3 Bft) W 265 ° 0 min 0,000 mm 0,0 UV-I 21 W/m² 1,2 °C 1,3 °C 25,7 km/h (4 Bft)
09.12.2019 15:52 4,7 °C 78 % 1004,5 hPa 0,0 mm 13,4 km/h (3 Bft) W-SW 250 ° 0 min 0,000 mm 0,0 UV-I 21 W/m² 1,2 °C 1,6 °C 19,3 km/h (3 Bft)
09.12.2019 15:53 4,7 °C 78 % 1004,5 hPa 0,0 mm 17,4 km/h (3 Bft) W-SW 253 ° 0 min 0,000 mm 0,0 UV-I 19 W/m² 1,2 °C 1,0 °C 32,2 km/h (5 Bft)
09.12.2019 15:54 4,7 °C 78 % 1004,5 hPa 0,0 mm 18,7 km/h (3 Bft) W 273 ° 0 min 0,000 mm 0,0 UV-I 19 W/m² 1,2 °C 0,9 °C 30,6 km/h (5 Bft)
09.12.2019 15:55 4,7 °C 78 % 1004,5 hPa 0,0 mm 15,4 km/h (3 Bft) W-SW 251 ° 0 min 0,000 mm 0,0 UV-I 18 W/m² 1,2 °C 1,3 °C 19,3 km/h (3 Bft)
09.12.2019 15:56 4,6 °C 78 % 1004,5 hPa 0,0 mm 16,3 km/h (3 Bft) W 259 ° 0 min 0,000 mm 0,0 UV-I 18 W/m² 1,1 °C 1,1 °C 25,7 km/h (4 Bft)
09.12.2019 15:57 4,6 °C 78 % 1004,5 hPa 0,0 mm 11,6 km/h (2 Bft) W 277 ° 0 min 0,000 mm 0,0 UV-I 18 W/m² 1,1 °C 1,8 °C 16,1 km/h (3 Bft)
09.12.2019 15:58 4,6 °C 78 % 1004,4 hPa 0,0 mm 15,6 km/h (3 Bft) W-SW 251 ° 0 min 0,000 mm 0,0 UV-I 18 W/m² 1,1 °C 1,2 °C 25,7 km/h (4 Bft)
09.12.2019 15:59 4,6 °C 79 % 1004,5 hPa 0,0 mm 18,3 km/h (3 Bft) W-SW 254 ° 0 min 0,000 mm 0,0 UV-I 18 W/m² 1,3 °C 0,8 °C 22,5 km/h (4 Bft)
09.12.2019 16:00 4,6 °C 78 % 1004,4 hPa 0,0 mm 17,3 km/h (3 Bft) W-SW 256 ° 0 min 0,000 mm 0,0 UV-I 16 W/m² 1,1 °C 0,9 °C 24,1 km/h (4 Bft)
09.12.2019 16:01 4,5 °C 79 % 1004,4 hPa 0,0 mm 14,3 km/h (3 Bft) W-SW 240 ° 0 min 0,051 mm 0,0 UV-I 16 W/m² 1,2 °C 1,2 °C 24,1 km/h (4 Bft)
09.12.2019 16:02 4,5 °C 79 % 1004,4 hPa 0,0 mm 13,2 km/h (3 Bft) W 263 ° 0 min 0,000 mm 0,0 UV-I 14 W/m² 1,2 °C 1,4 °C 19,3 km/h (3 Bft)
09.12.2019 16:03 4,5 °C 79 % 1004,4 hPa 0,0 mm 14,6 km/h (3 Bft) W 260 ° 0 min 0,000 mm 0,0 UV-I 14 W/m² 1,2 °C 1,2 °C 19,3 km/h (3 Bft)
09.12.2019 16:04 4,5 °C 79 % 1004,4 hPa 0,0 mm 14,6 km/h (3 Bft) W 267 ° 0 min 0,000 mm 0,0 UV-I 14 W/m² 1,2 °C 1,2 °C 20,9 km/h (4 Bft)
09.12.2019 16:05 4,4 °C 79 % 1004,4 hPa 0,0 mm 10,1 km/h (2 Bft) W 270 ° 0 min 0,000 mm 0,0 UV-I 12 W/m² 1,1 °C 1,9 °C 17,7 km/h (3 Bft)
09.12.2019 16:06 4,4 °C 79 % 1004,5 hPa 0,0 mm 14,9 km/h (3 Bft) W-SW 253 ° 0 min 0,000 mm 0,0 UV-I 12 W/m² 1,1 °C 1,0 °C 24,1 km/h (4 Bft)
09.12.2019 16:07 4,4 °C 79 % 1004,4 hPa 0,0 mm 12,5 km/h (3 Bft) S-SO 151 ° 0 min 0,000 mm 0,0 UV-I 11 W/m² 1,1 °C 1,4 °C 20,9 km/h (4 Bft)
09.12.2019 16:08 4,3 °C 79 % 1004,3 hPa 0,0 mm 15,6 km/h (3 Bft) W 265 ° 0 min 0,000 mm 0,0 UV-I 11 W/m² 1,0 °C 0,8 °C 24,1 km/h (4 Bft)
09.12.2019 16:09 4,3 °C 79 % 1004,4 hPa 0,0 mm 10,8 km/h (2 Bft) W 268 ° 0 min 0,000 mm 0,0 UV-I 9 W/m² 1,0 °C 1,6 °C 12,9 km/h (3 Bft)
09.12.2019 16:10 4,3 °C 79 % 1004,4 hPa 0,0 mm 13,7 km/h (3 Bft) W 266 ° 0 min 0,000 mm 0,0 UV-I 9 W/m² 1,0 °C 1,1 °C 20,9 km/h (4 Bft)
09.12.2019 16:11 4,3 °C 79 % 1004,4 hPa 0,0 mm 14,1 km/h (3 Bft) W-SW 248 ° 0 min 0,000 mm 0,0 UV-I 9 W/m² 1,0 °C 1,0 °C 20,9 km/h (4 Bft)
09.12.2019 16:12 4,3 °C 79 % 1004,5 hPa 0,0 mm 13,1 km/h (3 Bft) W-SW 250 ° 0 min 0,000 mm 0,0 UV-I 7 W/m² 1,0 °C 1,2 °C 19,3 km/h (3 Bft)
09.12.2019 16:13 4,3 °C 79 % 1004,5 hPa 0,0 mm 5,8 km/h (2 Bft) W-SW 254 ° 0 min 0,000 mm 0,0 UV-I 7 W/m² 1,0 °C 3,0 °C 11,3 km/h (2 Bft)
09.12.2019 16:14 4,2 °C 79 % 1004,4 hPa 0,0 mm 10,5 km/h (2 Bft) SW 219 ° 0 min 0,000 mm 0,0 UV-I 7 W/m² 0,9 °C 1,6 °C 14,5 km/h (3 Bft)
09.12.2019 16:15 4,2 °C 79 % 1004,4 hPa 0,0 mm 16,4 km/h (3 Bft) W-SW 252 ° 0 min 0,000 mm 0,0 UV-I 5 W/m² 0,9 °C 0,5 °C 29,0 km/h (5 Bft)
09.12.2019 16:16 4,2 °C 79 % 1004,4 hPa 0,0 mm 13,2 km/h (3 Bft) NW 308 ° 0 min 0,000 mm 0,0 UV-I 5 W/m² 0,9 °C 1,1 °C 17,7 km/h (3 Bft)
09.12.2019 16:17 4,2 °C 79 % 1004,4 hPa 0,0 mm 10,3 km/h (2 Bft) W 269 ° 0 min 0,000 mm 0,0 UV-I 5 W/m² 0,9 °C 1,6 °C 14,5 km/h (3 Bft)
09.12.2019 16:18 4,2 °C 79 % 1004,4 hPa 0,0 mm 10,7 km/h (2 Bft) W 261 ° 0 min 0,000 mm 0,0 UV-I 5 W/m² 0,9 °C 1,6 °C 12,9 km/h (3 Bft)
09.12.2019 16:19 4,2 °C 79 % 1004,4 hPa 0,0 mm 9,9 km/h (2 Bft) W-NW 291 ° 0 min 0,000 mm 0,0 UV-I 5 W/m² 0,9 °C 1,7 °C 12,9 km/h (3 Bft)
09.12.2019 16:20 4,2 °C 79 % 1004,5 hPa 0,0 mm 11,1 km/h (2 Bft) W-SW 258 ° 0 min 0,000 mm 0,0 UV-I 0 W/m² 0,9 °C 1,5 °C 17,7 km/h (3 Bft)
09.12.2019 16:21 4,2 °C 79 % 1004,5 hPa 0,0 mm 10,4 km/h (2 Bft) W 261 ° 0 min 0,000 mm 0,0 UV-I 0 W/m² 0,9 °C 1,6 °C 14,5 km/h (3 Bft)
09.12.2019 16:22 4,2 °C 79 % 1004,5 hPa 0,0 mm 10,4 km/h (2 Bft) W 263 ° 0 min 0,000 mm 0,0 UV-I 0 W/m² 0,9 °C 1,6 °C 16,1 km/h (3 Bft)
09.12.2019 16:23 4,2 °C 79 % 1004,6 hPa 0,0 mm 15,4 km/h (3 Bft) W-SW 249 ° 0 min 0,000 mm 0,0 UV-I 0 W/m² 0,9 °C 0,7 °C 20,9 km/h (4 Bft)
09.12.2019 16:24 4,2 °C 79 % 1004,6 hPa 0,0 mm 9,0 km/h (2 Bft) W-NW 288 ° 0 min 0,000 mm 0,0 UV-I 0 W/m² 0,9 °C 1,9 °C 14,5 km/h (3 Bft)
09.12.2019 16:25 4,2 °C 79 % 1004,6 hPa 0,0 mm 14,5 km/h (3 Bft) W-SW 243 ° 0 min 0,000 mm 0,0 UV-I 0 W/m² 0,9 °C 0,8 °C 20,9 km/h (4 Bft)
09.12.2019 16:26 4,2 °C 79 % 1004,6 hPa 0,0 mm 9,2 km/h (2 Bft) W-NW 292 ° 0 min 0,000 mm 0,0 UV-I 0 W/m² 0,9 °C 1,9 °C 16,1 km/h (3 Bft)
09.12.2019 16:27 4,2 °C 79 % 1004,6 hPa 0,0 mm 10,5 km/h (2 Bft) W-NW 285 ° 0 min 0,000 mm 0,0 UV-I 0 W/m² 0,9 °C 1,6 °C 12,9 km/h (3 Bft)
09.12.2019 16:28 4,2 °C 79 % 1004,6 hPa 0,0 mm 10,5 km/h (2 Bft) W 276 ° 0 min 0,000 mm 0,0 UV-I 0 W/m² 0,9 °C 1,6 °C 14,5 km/h (3 Bft)
09.12.2019 16:29 4,2 °C 79 % 1004,6 hPa 0,0 mm 9,7 km/h (2 Bft) W-SW 248 ° 0 min 0,000 mm 0,0 UV-I 0 W/m² 0,9 °C 1,8 °C 16,1 km/h (3 Bft)
09.12.2019 16:30 4,2 °C 79 % 1004,6 hPa 0,0 mm 10,6 km/h (2 Bft) W 260 ° 0 min 0,000 mm 0,0 UV-I 0 W/m² 0,9 °C 1,6 °C 14,5 km/h (3 Bft)
09.12.2019 16:31 4,2 °C 79 % 1004,6 hPa 0,0 mm 7,6 km/h (2 Bft) W-NW 282 ° 0 min 0,000 mm 0,0 UV-I 0 W/m² 0,9 °C 2,3 °C 12,9 km/h (3 Bft)
09.12.2019 16:32 4,2 °C 78 % 1004,6 hPa 0,0 mm 9,8 km/h (2 Bft) W-SW 253 ° 0 min 0,000 mm 0,0 UV-I 0 W/m² 0,7 °C 1,7 °C 12,9 km/h (3 Bft)
09.12.2019 16:33 4,2 °C 78 % 1004,6 hPa 0,0 mm 10,0 km/h (2 Bft) W 277 ° 0 min 0,000 mm 0,0 UV-I 0 W/m² 0,7 °C 1,7 °C 14,5 km/h (3 Bft)
09.12.2019 16:34 4,2 °C 78 % 1004,6 hPa 0,0 mm 10,2 km/h (2 Bft) W-SW 244 ° 0 min 0,000 mm 0,0 UV-I 0 W/m² 0,7 °C 1,7 °C 12,9 km/h (3 Bft)
09.12.2019 16:35 4,2 °C 78 % 1004,6 hPa 0,0 mm 7,7 km/h (2 Bft) W 259 ° 0 min 0,000 mm 0,0 UV-I 0 W/m² 0,7 °C 2,3 °C 12,9 km/h (3 Bft)
09.12.2019 16:36 4,1 °C 78 % 1004,6 hPa 0,0 mm 14,8 km/h (3 Bft) W-SW 254 ° 0 min 0,000 mm 0,0 UV-I 0 W/m² 0,6 °C 0,7 °C 20,9 km/h (4 Bft)
09.12.2019 16:37 4,1 °C 78 % 1004,6 hPa 0,0 mm 12,6 km/h (3 Bft) W 264 ° 0 min 0,000 mm 0,0 UV-I 0 W/m² 0,6 °C 1,1 °C 17,7 km/h (3 Bft)
09.12.2019 16:38 4,1 °C 78 % 1004,6 hPa 0,0 mm 8,5 km/h (2 Bft) W-SW 247 ° 0 min 0,000 mm 0,0 UV-I 0 W/m² 0,6 °C 1,9 °C 14,5 km/h (3 Bft)
09.12.2019 16:39 4,1 °C 77 % 1004,6 hPa 0,0 mm 9,3 km/h (2 Bft) W-SW 254 ° 0 min 0,000 mm 0,0 UV-I 0 W/m² 0,4 °C 1,7 °C 12,9 km/h (3 Bft)
09.12.2019 16:40 4,1 °C 77 % 1004,6 hPa 0,0 mm 11,8 km/h (2 Bft) W 260 ° 0 min 0,000 mm 0,0 UV-I 0 W/m² 0,4 °C 1,2 °C 19,3 km/h (3 Bft)
09.12.2019 16:41 4,1 °C 77 % 1004,6 hPa 0,0 mm 9,0 km/h (2 Bft) W-SW 251 ° 0 min 0,000 mm 0,0 UV-I 0 W/m² 0,4 °C 1,8 °C 11,3 km/h (2 Bft)
09.12.2019 16:42 4,1 °C 77 % 1004,7 hPa 0,0 mm 7,7 km/h (2 Bft) W-SW 252 ° 0 min 0,000 mm 0,0 UV-I 0 W/m² 0,4 °C 2,2 °C 11,3 km/h (2 Bft)
09.12.2019 16:43 4,1 °C 77 % 1004,6 hPa 0,0 mm 10,3 km/h (2 Bft) W-NW 290 ° 0 min 0,000 mm 0,0 UV-I 0 W/m² 0,4 °C 1,5 °C 16,1 km/h (3 Bft)
09.12.2019 16:44 4,1 °C 77 % 1004,7 hPa 0,0 mm 11,9 km/h (2 Bft) W 269 ° 0 min 0,000 mm 0,0 UV-I 0 W/m² 0,4 °C 1,2 °C 14,5 km/h (3 Bft)
09.12.2019 16:45 4,1 °C 77 % 1004,7 hPa 0,0 mm 12,9 km/h (3 Bft) W-SW 250 ° 0 min 0,000 mm 0,0 UV-I 0 W/m² 0,4 °C 1,0 °C 16,1 km/h (3 Bft)
09.12.2019 16:46 4,1 °C 77 % 1004,8 hPa 0,0 mm 9,7 km/h (2 Bft) W-SW 257 ° 0 min 0,000 mm 0,0 UV-I 0 W/m² 0,4 °C 1,7 °C 14,5 km/h (3 Bft)
09.12.2019 16:47 4,1 °C 77 % 1004,7 hPa 0,0 mm 5,5 km/h (1 Bft) W-NW 282 ° 0 min 0,000 mm 0,0 UV-I 0 W/m² 0,4 °C 2,9 °C 6,4 km/h (2 Bft)
09.12.2019 16:48 4,1 °C 77 % 1004,7 hPa 0,0 mm 9,9 km/h (2 Bft) W-NW 300 ° 0 min 0,000 mm 0,0 UV-I 0 W/m² 0,4 °C 1,6 °C 14,5 km/h (3 Bft)
09.12.2019 16:49 4,0 °C 77 % 1004,7 hPa 0,0 mm 9,5 km/h (2 Bft) W-SW 257 ° 0 min 0,000 mm 0,0 UV-I 0 W/m² 0,3 °C 1,6 °C 17,7 km/h (3 Bft)
09.12.2019 16:50 4,0 °C 77 % 1004,8 hPa 0,0 mm 10,9 km/h (2 Bft) W 277 ° 0 min 0,000 mm 0,0 UV-I 0 W/m² 0,3 °C 1,3 °C 14,5 km/h (3 Bft)
09.12.2019 16:51 4,0 °C 77 % 1004,8 hPa 0,0 mm 8,6 km/h (2 Bft) W 271 ° 0 min 0,000 mm 0,0 UV-I 0 W/m² 0,3 °C 1,8 °C 12,9 km/h (3 Bft)
09.12.2019 16:52 3,9 °C 77 % 1004,8 hPa 0,0 mm 9,6 km/h (2 Bft) W-SW 254 ° 0 min 0,000 mm 0,0 UV-I 0 W/m² 0,2 °C 1,4 °C 16,1 km/h (3 Bft)
09.12.2019 16:53 3,9 °C 77 % 1004,8 hPa 0,0 mm 10,2 km/h (2 Bft) W 261 ° 0 min 0,000 mm 0,0 UV-I 0 W/m² 0,2 °C 1,3 °C 14,5 km/h (3 Bft)
09.12.2019 16:54 3,9 °C 77 % 1004,9 hPa 0,0 mm 13,4 km/h (3 Bft) W 270 ° 0 min 0,000 mm 0,0 UV-I 0 W/m² 0,2 °C 0,7 °C 16,1 km/h (3 Bft)
09.12.2019 16:55 3,9 °C 77 % 1004,8 hPa 0,0 mm 12,9 km/h (3 Bft) W 272 ° 0 min 0,000 mm 0,0 UV-I 0 W/m² 0,2 °C 0,8 °C 16,1 km/h (3 Bft)
09.12.2019 16:56 3,9 °C 78 % 1004,9 hPa 0,0 mm 12,7 km/h (3 Bft) W 273 ° 0 min 0,000 mm 0,0 UV-I 0 W/m² 0,4 °C 0,8 °C 19,3 km/h (3 Bft)
09.12.2019 16:57 3,9 °C 78 % 1004,9 hPa 0,0 mm 9,9 km/h (2 Bft) W 276 ° 0 min 0,000 mm 0,0 UV-I 0 W/m² 0,4 °C 1,4 °C 14,5 km/h (3 Bft)
09.12.2019 16:58 3,9 °C 78 % 1005,0 hPa 0,0 mm 6,6 km/h (2 Bft) W-NW 293 ° 0 min 0,000 mm 0,0 UV-I 0 W/m² 0,4 °C 2,3 °C 12,9 km/h (3 Bft)
09.12.2019 16:59 3,9 °C 78 % 1005,0 hPa 0,0 mm 12,5 km/h (3 Bft) W-SW 251 ° 0 min 0,000 mm 0,0 UV-I 0 W/m² 0,4 °C 0,8 °C 16,1 km/h (3 Bft)
09.12.2019 17:00 3,9 °C 78 % 1004,9 hPa 0,0 mm 7,4 km/h (2 Bft) W 268 ° 0 min 0,000 mm 0,0 UV-I 0 W/m² 0,4 °C 2,0 °C 11,3 km/h (2 Bft)
09.12.2019 17:01 3,9 °C 78 % 1004,9 hPa 0,0 mm 9,1 km/h (2 Bft) W-NW 293 ° 0 min 0,026 mm 0,0 UV-I 0 W/m² 0,4 °C 1,6 °C 14,5 km/h (3 Bft)
09.12.2019 17:02 3,9 °C 78 % 1005,0 hPa 0,0 mm 5,3 km/h (1 Bft) W-SW 257 ° 0 min 0,000 mm 0,0 UV-I 0 W/m² 0,4 °C 2,7 °C 9,7 km/h (2 Bft)
09.12.2019 17:03 3,9 °C 78 % 1005,0 hPa 0,0 mm 9,8 km/h (2 Bft) W 279 ° 0 min 0,000 mm 0,0 UV-I 0 W/m² 0,4 °C 1,4 °C 17,7 km/h (3 Bft)
09.12.2019 17:04 3,9 °C 78 % 1005,0 hPa 0,0 mm 9,1 km/h (2 Bft) W-NW 298 ° 0 min 0,000 mm 0,0 UV-I 0 W/m² 0,4 °C 1,6 °C 17,7 km/h (3 Bft)
09.12.2019 17:05 3,9 °C 78 % 1004,9 hPa 0,0 mm 10,3 km/h (2 Bft) W-SW 252 ° 0 min 0,000 mm 0,0 UV-I 0 W/m² 0,4 °C 1,3 °C 14,5 km/h (3 Bft)
09.12.2019 17:06 3,9 °C 78 % 1004,9 hPa 0,0 mm 6,4 km/h (2 Bft) W 268 ° 0 min 0,000 mm 0,0 UV-I 0 W/m² 0,4 °C 2,3 °C 9,7 km/h (2 Bft)
09.12.2019 17:07 3,9 °C 78 % 1004,9 hPa 0,0 mm 3,4 km/h (1 Bft) W 269 ° 0 min 0,000 mm 0,0 UV-I 0 W/m² 0,4 °C 3,9 °C 6,4 km/h (2 Bft)
09.12.2019 17:08 3,9 °C 78 % 1004,9 hPa 0,0 mm 8,7 km/h (2 Bft) W-NW 288 ° 0 min 0,000 mm 0,0 UV-I 0 W/m² 0,4 °C 1,7 °C 12,9 km/h (3 Bft)
09.12.2019 17:09 3,9 °C 78 % 1005,0 hPa 0,0 mm 4,4 km/h (1 Bft) W-SW 257 ° 0 min 0,000 mm 0,0 UV-I 0 W/m² 0,4 °C 3,9 °C 9,7 km/h (2 Bft)
09.12.2019 17:10 4,0 °C 78 % 1005,0 hPa 0,0 mm 7,1 km/h (2 Bft) W 259 ° 0 min 0,000 mm 0,0 UV-I 0 W/m² 0,5 °C 2,2 °C 11,3 km/h (2 Bft)
09.12.2019 17:11 4,0 °C 78 % 1005,0 hPa 0,0 mm 10,3 km/h (2 Bft) W 264 ° 0 min 0,000 mm 0,0 UV-I 0 W/m² 0,5 °C 1,4 °C 14,5 km/h (3 Bft)
09.12.2019 17:12 4,0 °C 78 % 1005,0 hPa 0,0 mm 11,3 km/h (2 Bft) W-SW 254 ° 0 min 0,000 mm 0,0 UV-I 0 W/m² 0,5 °C 1,2 °C 17,7 km/h (3 Bft)
09.12.2019 17:13 4,0 °C 78 % 1005,0 hPa 0,0 mm 12,5 km/h (3 Bft) W-SW 257 ° 0 min 0,000 mm 0,0 UV-I 0 W/m² 0,5 °C 0,9 °C 14,5 km/h (3 Bft)
09.12.2019 17:14 4,0 °C 78 % 1004,9 hPa 0,0 mm 6,8 km/h (2 Bft) W 271 ° 0 min 0,000 mm 0,0 UV-I 0 W/m² 0,5 °C 2,3 °C 9,7 km/h (2 Bft)
09.12.2019 17:15 4,0 °C 78 % 1004,9 hPa 0,0 mm 4,6 km/h (1 Bft) W-SW 250 ° 0 min 0,000 mm 0,0 UV-I 0 W/m² 0,5 °C 3,1 °C 6,4 km/h (2 Bft)
09.12.2019 17:16 4,0 °C 78 % 1005,0 hPa 0,0 mm 9,6 km/h (2 Bft) W 263 ° 0 min 0,000 mm 0,0 UV-I 0 W/m² 0,5 °C 1,6 °C 12,9 km/h (3 Bft)
09.12.2019 17:17 4,0 °C 78 % 1004,9 hPa 0,0 mm 10,3 km/h (2 Bft) W-SW 254 ° 0 min 0,000 mm 0,0 UV-I 0 W/m² 0,5 °C 1,4 °C 14,5 km/h (3 Bft)
09.12.2019 17:18 3,9 °C 78 % 1004,9 hPa 0,0 mm 10,5 km/h (2 Bft) W-SW 251 ° 0 min 0,000 mm 0,0 UV-I 0 W/m² 0,4 °C 1,2 °C 16,1 km/h (3 Bft)
09.12.2019 17:19 3,9 °C 78 % 1005,0 hPa 0,0 mm 8,1 km/h (2 Bft) W 269 ° 0 min 0,000 mm 0,0 UV-I 0 W/m² 0,4 °C 1,8 °C 12,9 km/h (3 Bft)
09.12.2019 17:20 3,9 °C 78 % 1004,9 hPa 0,0 mm 6,8 km/h (2 Bft) W 276 ° 0 min 0,000 mm 0,0 UV-I 0 W/m² 0,4 °C 2,2 °C 11,3 km/h (2 Bft)
09.12.2019 17:21 3,9 °C 78 % 1004,9 hPa 0,0 mm 5,6 km/h (1 Bft) W 265 ° 0 min 0,000 mm 0,0 UV-I 0 W/m² 0,4 °C 2,6 °C 8,0 km/h (2 Bft)
09.12.2019 17:22 3,9 °C 78 % 1004,9 hPa 0,0 mm 8,6 km/h (2 Bft) W-NW 300 ° 0 min 0,000 mm 0,0 UV-I 0 W/m² 0,4 °C 1,7 °C 12,9 km/h (3 Bft)
09.12.2019 17:23 3,9 °C 78 % 1004,9 hPa 0,0 mm 7,4 km/h (2 Bft) W-SW 251 ° 0 min 0,000 mm 0,0 UV-I 0 W/m² 0,4 °C 2,0 °C 9,7 km/h (2 Bft)
09.12.2019 17:24 3,9 °C 78 % 1004,9 hPa 0,0 mm 4,9 km/h (1 Bft) W-SW 249 ° 0 min 0,000 mm 0,0 UV-I 0 W/m² 0,4 °C 2,9 °C 11,3 km/h (2 Bft)
09.12.2019 17:25 3,9 °C 78 % 1004,9 hPa 0,0 mm 6,3 km/h (2 Bft) W 276 ° 0 min 0,000 mm 0,0 UV-I 0 W/m² 0,4 °C 2,4 °C 11,3 km/h (2 Bft)
09.12.2019 17:26 3,9 °C 78 % 1004,9 hPa 0,0 mm 10,7 km/h (2 Bft) W 261 ° 0 min 0,000 mm 0,0 UV-I 0 W/m² 0,4 °C 1,2 °C 14,5 km/h (3 Bft)
09.12.2019 17:27 3,9 °C 78 % 1005,0 hPa 0,0 mm 6,8 km/h (2 Bft) W 269 ° 0 min 0,000 mm 0,0 UV-I 0 W/m² 0,4 °C 2,2 °C 12,9 km/h (3 Bft)
09.12.2019 17:28 3,9 °C 78 % 1005,0 hPa 0,0 mm 10,1 km/h (2 Bft) W-SW 255 ° 0 min 0,000 mm 0,0 UV-I 0 W/m² 0,4 °C 1,3 °C 16,1 km/h (3 Bft)
09.12.2019 17:29 3,8 °C 78 % 1004,9 hPa 0,0 mm 8,7 km/h (2 Bft) W-SW 238 ° 0 min 0,000 mm 0,0 UV-I 0 W/m² 0,3 °C 1,5 °C 12,9 km/h (3 Bft)
09.12.2019 17:30 3,8 °C 77 % 1004,9 hPa 0,0 mm 7,2 km/h (2 Bft) W 259 ° 0 min 0,000 mm 0,0 UV-I 0 W/m² 0,1 °C 2,0 °C 11,3 km/h (2 Bft)
09.12.2019 17:31 3,8 °C 77 % 1004,9 hPa 0,0 mm 5,7 km/h (1 Bft) W-SW 253 ° 0 min 0,000 mm 0,0 UV-I 0 W/m² 0,1 °C 2,5 °C 12,9 km/h (3 Bft)
09.12.2019 17:32 3,8 °C 77 % 1004,9 hPa 0,0 mm 6,2 km/h (2 Bft) W 260 ° 0 min 0,000 mm 0,0 UV-I 0 W/m² 0,1 °C 2,3 °C 9,7 km/h (2 Bft)
09.12.2019 17:33 3,8 °C 77 % 1005,0 hPa 0,0 mm 5,2 km/h (1 Bft) W 261 ° 0 min 0,000 mm 0,0 UV-I 0 W/m² 0,1 °C 2,6 °C 9,7 km/h (2 Bft)
09.12.2019 17:34 3,8 °C 77 % 1005,0 hPa 0,0 mm 7,5 km/h (2 Bft) W 264 ° 0 min 0,000 mm 0,0 UV-I 0 W/m² 0,1 °C 1,9 °C 11,3 km/h (2 Bft)
09.12.2019 17:35 3,8 °C 77 % 1004,9 hPa 0,0 mm 3,8 km/h (1 Bft) W 262 ° 0 min 0,000 mm 0,0 UV-I 0 W/m² 0,1 °C 3,8 °C 6,4 km/h (2 Bft)
09.12.2019 17:36 3,8 °C 77 % 1005,0 hPa 0,0 mm 3,0 km/h (1 Bft) W 262 ° 0 min 0,000 mm 0,0 UV-I 0 W/m² 0,1 °C 3,8 °C 4,8 km/h (1 Bft)
09.12.2019 17:37 3,8 °C 77 % 1004,9 hPa 0,0 mm 1,2 km/h (1 Bft) W 266 ° 0 min 0,000 mm 0,0 UV-I 0 W/m² 0,1 °C 3,8 °C 3,2 km/h (1 Bft)
09.12.2019 17:38 3,8 °C 77 % 1005,0 hPa 0,0 mm 4,2 km/h (1 Bft) SW 234 ° 0 min 0,000 mm 0,0 UV-I 0 W/m² 0,1 °C 3,8 °C 6,4 km/h (2 Bft)
09.12.2019 17:39 3,8 °C 77 % 1005,0 hPa 0,0 mm 1,7 km/h (1 Bft) SW 234 ° 0 min 0,000 mm 0,0 UV-I 0 W/m² 0,1 °C 3,8 °C 3,2 km/h (1 Bft)
09.12.2019 17:40 3,8 °C 77 % 1005,0 hPa 0,0 mm 2,1 km/h (1 Bft) SW 234 ° 0 min 0,000 mm 0,0 UV-I 0 W/m² 0,1 °C 3,8 °C 3,2 km/h (1 Bft)
09.12.2019 17:41 3,8 °C 77 % 1004,9 hPa 0,0 mm 3,0 km/h (1 Bft) SW 233 ° 0 min 0,000 mm 0,0 UV-I 0 W/m² 0,1 °C 3,8 °C 4,8 km/h (1 Bft)
09.12.2019 17:42 3,7 °C 77 % 1004,9 hPa 0,0 mm 3,6 km/h (1 Bft) S-SW 200 ° 0 min 0,000 mm 0,0 UV-I 0 W/m² 0,1 °C 3,7 °C 6,4 km/h (2 Bft)
09.12.2019 17:43 3,7 °C 77 % 1004,9 hPa 0,0 mm 2,9 km/h (1 Bft) S-SW 200 ° 0 min 0,000 mm 0,0 UV-I 0 W/m² 0,1 °C 3,7 °C 3,2 km/h (1 Bft)
09.12.2019 17:44 3,8 °C 77 % 1005,0 hPa 0,0 mm 2,7 km/h (1 Bft) W-SW 239 ° 0 min 0,000 mm 0,0 UV-I 0 W/m² 0,1 °C 3,8 °C 6,4 km/h (2 Bft)
09.12.2019 17:45 3,7 °C 77 % 1005,1 hPa 0,0 mm 2,9 km/h (1 Bft) W-SW 240 ° 0 min 0,000 mm 0,0 UV-I 0 W/m² 0,1 °C 3,7 °C 6,4 km/h (2 Bft)
09.12.2019 17:46 3,8 °C 77 % 1005,1 hPa 0,0 mm 3,4 km/h (1 Bft) SW 218 ° 0 min 0,000 mm 0,0 UV-I 0 W/m² 0,1 °C 3,8 °C 4,8 km/h (1 Bft)
09.12.2019 17:47 3,7 °C 77 % 1005,1 hPa 0,0 mm 2,7 km/h (1 Bft) W-SW 241 ° 0 min 0,000 mm 0,0 UV-I 0 W/m² 0,1 °C 3,7 °C 4,8 km/h (1 Bft)
09.12.2019 17:48 3,7 °C 76 % 1005,1 hPa 0,0 mm 2,3 km/h (1 Bft) W-SW 240 ° 0 min 0,000 mm 0,0 UV-I 0 W/m² -0,1 °C 3,7 °C 4,8 km/h (1 Bft)
09.12.2019 17:49 3,7 °C 76 % 1005,1 hPa 0,0 mm 2,4 km/h (1 Bft) W-SW 240 ° 0 min 0,000 mm 0,0 UV-I 0 W/m² -0,1 °C 3,7 °C 3,2 km/h (1 Bft)
09.12.2019 17:50 3,7 °C 76 % 1005,0 hPa 0,0 mm 1,5 km/h (1 Bft) W-SW 240 ° 0 min 0,000 mm 0,0 UV-I 0 W/m² -0,1 °C 3,7 °C 3,2 km/h (1 Bft)
09.12.2019 17:51 3,7 °C 76 % 1005,0 hPa 0,0 mm 3,5 km/h (1 Bft) SW 236 ° 0 min 0,000 mm 0,0 UV-I 0 W/m² -0,1 °C 3,7 °C 4,8 km/h (1 Bft)
09.12.2019 17:52 3,7 °C 76 % 1005,0 hPa 0,0 mm 2,0 km/h (1 Bft) SW 236 ° 0 min 0,000 mm 0,0 UV-I 0 W/m² -0,1 °C 3,7 °C 3,2 km/h (1 Bft)
09.12.2019 17:53 3,8 °C 76 % 1005,0 hPa 0,0 mm 3,4 km/h (1 Bft) SW 236 ° 0 min 0,000 mm 0,0 UV-I 0 W/m² -0,0 °C 3,8 °C 4,8 km/h (1 Bft)
09.12.2019 17:54 3,7 °C 76 % 1005,0 hPa 0,0 mm 3,5 km/h (1 Bft) SW 236 ° 0 min 0,000 mm 0,0 UV-I 0 W/m² -0,1 °C 3,7 °C 4,8 km/h (1 Bft)
09.12.2019 17:55 3,8 °C 76 % 1005,0 hPa 0,0 mm 3,4 km/h (1 Bft) S 186 ° 0 min 0,000 mm 0,0 UV-I 0 W/m² -0,0 °C 3,8 °C 6,4 km/h (2 Bft)
09.12.2019 17:56 3,8 °C 76 % 1005,1 hPa 0,0 mm 2,1 km/h (1 Bft) S 186 ° 0 min 0,000 mm 0,0 UV-I 0 W/m² -0,0 °C 3,8 °C 3,2 km/h (1 Bft)
09.12.2019 17:57 3,8 °C 76 % 1005,0 hPa 0,0 mm 2,7 km/h (1 Bft) S-SW 205 ° 0 min 0,000 mm 0,0 UV-I 0 W/m² -0,0 °C 3,8 °C 4,8 km/h (1 Bft)
09.12.2019 17:58 3,8 °C 76 % 1005,1 hPa 0,0 mm 4,0 km/h (1 Bft) SW 231 ° 0 min 0,000 mm 0,0 UV-I 0 W/m² -0,0 °C 3,8 °C 4,8 km/h (1 Bft)
09.12.2019 17:59 3,8 °C 76 % 1005,1 hPa 0,0 mm 3,8 km/h (1 Bft) SW 231 ° 0 min 0,000 mm 0,0 UV-I 0 W/m² -0,0 °C 3,8 °C 4,8 km/h (1 Bft)
09.12.2019 18:00 3,8 °C 76 % 1005,1 hPa 0,0 mm 3,1 km/h (1 Bft) SW 231 ° 0 min 0,000 mm 0,0 UV-I 0 W/m² -0,0 °C 3,8 °C 4,8 km/h (1 Bft)
09.12.2019 18:01 3,7 °C 76 % 1005,1 hPa 0,0 mm 2,3 km/h (1 Bft) SW 231 ° 0 min 0,025 mm 0,0 UV-I 0 W/m² -0,1 °C 3,7 °C 3,2 km/h (1 Bft)
09.12.2019 18:02 3,7 °C 76 % 1005,1 hPa 0,0 mm 2,2 km/h (1 Bft) SW 231 ° 0 min 0,000 mm 0,0 UV-I 0 W/m² -0,1 °C 3,7 °C 3,2 km/h (1 Bft)
09.12.2019 18:03 3,7 °C 76 % 1005,2 hPa 0,0 mm 0,7 km/h (0 Bft) SW 231 ° 0 min 0,000 mm 0,0 UV-I 0 W/m² -0,1 °C 3,7 °C 3,2 km/h (1 Bft)
09.12.2019 18:04 3,7 °C 76 % 1005,2 hPa 0,0 mm 0,3 km/h (0 Bft) W-SW 239 ° 0 min 0,000 mm 0,0 UV-I 0 W/m² -0,1 °C 3,7 °C 3,2 km/h (1 Bft)
09.12.2019 18:05 3,7 °C 76 % 1005,2 hPa 0,0 mm 3,1 km/h (1 Bft) W-SW 238 ° 0 min 0,000 mm 0,0 UV-I 0 W/m² -0,1 °C 3,7 °C 4,8 km/h (1 Bft)
09.12.2019 18:06 3,7 °C 76 % 1005,2 hPa 0,0 mm 3,4 km/h (1 Bft) W-SW 248 ° 0 min 0,000 mm 0,0 UV-I 0 W/m² -0,1 °C 3,7 °C 4,8 km/h (1 Bft)
09.12.2019 18:07 3,7 °C 76 % 1005,3 hPa 0,0 mm 3,2 km/h (1 Bft) W-SW 248 ° 0 min 0,000 mm 0,0 UV-I 0 W/m² -0,1 °C 3,7 °C 4,8 km/h (1 Bft)
09.12.2019 18:08 3,7 °C 76 % 1005,3 hPa 0,0 mm 3,2 km/h (1 Bft) W-SW 248 ° 0 min 0,000 mm 0,0 UV-I 0 W/m² -0,1 °C 3,7 °C 4,8 km/h (1 Bft)
09.12.2019 18:09 3,7 °C 76 % 1005,4 hPa 0,0 mm 6,0 km/h (2 Bft) W-SW 248 ° 0 min 0,000 mm 0,0 UV-I 0 W/m² -0,1 °C 2,2 °C 12,9 km/h (3 Bft)
09.12.2019 18:10 3,6 °C 76 % 1005,4 hPa 0,0 mm 4,7 km/h (1 Bft) W 259 ° 0 min 0,000 mm 0,0 UV-I 0 W/m² -0,2 °C 2,6 °C 9,7 km/h (2 Bft)
09.12.2019 18:11 3,6 °C 76 % 1005,4 hPa 0,0 mm 4,7 km/h (1 Bft) W-SW 254 ° 0 min 0,000 mm 0,0 UV-I 0 W/m² -0,2 °C 2,6 °C 6,4 km/h (2 Bft)
09.12.2019 18:12 3,6 °C 77 % 1005,5 hPa 0,0 mm 4,8 km/h (1 Bft) W-SW 257 ° 0 min 0,000 mm 0,0 UV-I 0 W/m² -0,0 °C 2,6 °C 9,7 km/h (2 Bft)
09.12.2019 18:13 3,6 °C 77 % 1005,5 hPa 0,0 mm 4,0 km/h (1 Bft) W 270 ° 0 min 0,000 mm 0,0 UV-I 0 W/m² -0,0 °C 3,6 °C 11,3 km/h (2 Bft)
09.12.2019 18:14 3,6 °C 77 % 1005,6 hPa 0,0 mm 7,3 km/h (2 Bft) W-SW 246 ° 0 min 0,000 mm 0,0 UV-I 0 W/m² -0,0 °C 1,7 °C 12,9 km/h (3 Bft)
09.12.2019 18:15 3,6 °C 77 % 1005,6 hPa 0,0 mm 7,2 km/h (2 Bft) W-SW 256 ° 0 min 0,000 mm 0,0 UV-I 0 W/m² -0,0 °C 1,7 °C 11,3 km/h (2 Bft)
09.12.2019 18:16 3,6 °C 77 % 1005,7 hPa 0,0 mm 8,4 km/h (2 Bft) W-SW 242 ° 0 min 0,000 mm 0,0 UV-I 0 W/m² -0,0 °C 1,4 °C 11,3 km/h (2 Bft)
09.12.2019 18:17 3,6 °C 77 % 1005,7 hPa 0,0 mm 5,7 km/h (1 Bft) W 261 ° 0 min 0,000 mm 0,0 UV-I 0 W/m² -0,0 °C 2,2 °C 14,5 km/h (3 Bft)
09.12.2019 18:18 3,6 °C 77 % 1005,7 hPa 0,0 mm 9,7 km/h (2 Bft) W-SW 250 ° 0 min 0,000 mm 0,0 UV-I 0 W/m² -0,0 °C 1,1 °C 16,1 km/h (3 Bft)
09.12.2019 18:19 3,6 °C 77 % 1005,7 hPa 0,0 mm 10,0 km/h (2 Bft) W-NW 302 ° 0 min 0,000 mm 0,0 UV-I 0 W/m² -0,0 °C 1,0 °C 17,7 km/h (3 Bft)
09.12.2019 18:20 3,6 °C 78 % 1005,8 hPa 0,0 mm 10,4 km/h (2 Bft) W-NW 286 ° 0 min 0,000 mm 0,0 UV-I 0 W/m² 0,1 °C 0,9 °C 17,7 km/h (3 Bft)
09.12.2019 18:21 3,6 °C 78 % 1005,8 hPa 0,0 mm 10,7 km/h (2 Bft) W-SW 252 ° 0 min 0,000 mm 0,0 UV-I 0 W/m² 0,1 °C 0,8 °C 14,5 km/h (3 Bft)
09.12.2019 18:22 3,6 °C 78 % 1005,8 hPa 0,0 mm 14,1 km/h (3 Bft) W-SW 248 ° 0 min 0,000 mm 0,0 UV-I 0 W/m² 0,1 °C 0,2 °C 20,9 km/h (4 Bft)
09.12.2019 18:23 3,6 °C 78 % 1005,8 hPa 0,0 mm 14,4 km/h (3 Bft) W 261 ° 0 min 0,000 mm 0,0 UV-I 0 W/m² 0,1 °C 0,1 °C 22,5 km/h (4 Bft)
09.12.2019 18:24 3,6 °C 79 % 1005,8 hPa 0,0 mm 9,9 km/h (2 Bft) W 259 ° 0 min 0,000 mm 0,0 UV-I 0 W/m² 0,3 °C 1,0 °C 14,5 km/h (3 Bft)
09.12.2019 18:25 3,7 °C 79 % 1005,8 hPa 0,0 mm 9,5 km/h (2 Bft) W 267 ° 0 min 0,000 mm 0,0 UV-I 0 W/m² 0,4 °C 1,2 °C 14,5 km/h (3 Bft)
09.12.2019 18:26 3,7 °C 80 % 1005,8 hPa 0,0 mm 7,6 km/h (2 Bft) W 266 ° 0 min 0,000 mm 0,0 UV-I 0 W/m² 0,6 °C 1,7 °C 14,5 km/h (3 Bft)
09.12.2019 18:27 3,7 °C 80 % 1005,7 hPa 0,0 mm 6,0 km/h (2 Bft) W-SW 254 ° 0 min 0,000 mm 0,0 UV-I 0 W/m² 0,6 °C 2,2 °C 8,0 km/h (2 Bft)
09.12.2019 18:28 3,7 °C 80 % 1005,8 hPa 0,0 mm 6,8 km/h (2 Bft) W 263 ° 0 min 0,000 mm 0,0 UV-I 0 W/m² 0,6 °C 2,0 °C 11,3 km/h (2 Bft)
09.12.2019 18:29 3,7 °C 81 % 1005,7 hPa 0,0 mm 4,8 km/h (1 Bft) W-NW 292 ° 0 min 0,000 mm 0,0 UV-I 0 W/m² 0,7 °C 2,7 °C 11,3 km/h (2 Bft)
09.12.2019 18:30 3,6 °C 81 % 1005,7 hPa 0,0 mm 9,5 km/h (2 Bft) W 265 ° 0 min 0,000 mm 0,0 UV-I 0 W/m² 0,7 °C 1,1 °C 12,9 km/h (3 Bft)
09.12.2019 18:31 3,7 °C 81 % 1005,6 hPa 0,0 mm 6,9 km/h (2 Bft) W-SW 255 ° 0 min 0,000 mm 0,0 UV-I 0 W/m² 0,7 °C 1,9 °C 12,9 km/h (3 Bft)
09.12.2019 18:32 3,6 °C 81 % 1005,6 hPa 0,0 mm 4,2 km/h (1 Bft) W 272 ° 0 min 0,000 mm 0,0 UV-I 0 W/m² 0,7 °C 3,6 °C 6,4 km/h (2 Bft)
09.12.2019 18:33 3,6 °C 82 % 1005,6 hPa 0,0 mm 5,3 km/h (1 Bft) W 271 ° 0 min 0,000 mm 0,0 UV-I 0 W/m² 0,8 °C 2,4 °C 6,4 km/h (2 Bft)
09.12.2019 18:34 3,6 °C 82 % 1005,6 hPa 0,0 mm 5,6 km/h (1 Bft) W-SW 251 ° 0 min 0,000 mm 0,0 UV-I 0 W/m² 0,8 °C 2,3 °C 11,3 km/h (2 Bft)
09.12.2019 18:35 3,6 °C 82 % 1005,6 hPa 0,0 mm 5,3 km/h (1 Bft) W-SW 252 ° 0 min 0,000 mm 0,0 UV-I 0 W/m² 0,8 °C 2,4 °C 6,4 km/h (2 Bft)
09.12.2019 18:36 3,6 °C 82 % 1005,7 hPa 0,0 mm 2,9 km/h (1 Bft) W 277 ° 0 min 0,000 mm 0,0 UV-I 0 W/m² 0,8 °C 3,6 °C 4,8 km/h (1 Bft)
09.12.2019 18:37 3,6 °C 82 % 1005,7 hPa 0,0 mm 3,4 km/h (1 Bft) W 277 ° 0 min 0,000 mm 0,0 UV-I 0 W/m² 0,8 °C 3,6 °C 4,8 km/h (1 Bft)
09.12.2019 18:38 3,5 °C 82 % 1005,7 hPa 0,0 mm 2,1 km/h (1 Bft) W 277 ° 0 min 0,000 mm 0,0 UV-I 0 W/m² 0,7 °C 3,5 °C 3,2 km/h (1 Bft)
09.12.2019 18:39 3,5 °C 83 % 1005,7 hPa 0,0 mm 2,7 km/h (1 Bft) W 276 ° 0 min 0,000 mm 0,0 UV-I 0 W/m² 0,9 °C 3,5 °C 4,8 km/h (1 Bft)
09.12.2019 18:40 3,4 °C 83 % 1005,7 hPa 0,0 mm 3,6 km/h (1 Bft) W 272 ° 0 min 0,000 mm 0,0 UV-I 0 W/m² 0,8 °C 3,4 °C 6,4 km/h (2 Bft)
09.12.2019 18:41 3,4 °C 83 % 1005,7 hPa 0,0 mm 5,1 km/h (1 Bft) W-SW 248 ° 0 min 0,000 mm 0,0 UV-I 0 W/m² 0,8 °C 2,2 °C 8,0 km/h (2 Bft)
09.12.2019 18:42 3,4 °C 83 % 1005,7 hPa 0,0 mm 4,2 km/h (1 Bft) W-SW 241 ° 0 min 0,000 mm 0,0 UV-I 0 W/m² 0,8 °C 3,4 °C 6,4 km/h (2 Bft)
09.12.2019 18:43 3,4 °C 83 % 1005,7 hPa 0,0 mm 4,3 km/h (1 Bft) SW 217 ° 0 min 0,000 mm 0,0 UV-I 0 W/m² 0,8 °C 3,4 °C 6,4 km/h (2 Bft)
09.12.2019 18:44 3,3 °C 83 % 1005,7 hPa 0,0 mm 4,3 km/h (1 Bft) S-SW 212 ° 0 min 0,000 mm 0,0 UV-I 0 W/m² 0,7 °C 3,3 °C 6,4 km/h (2 Bft)
09.12.2019 18:45 3,3 °C 83 % 1005,7 hPa 0,0 mm 4,8 km/h (1 Bft) SW 222 ° 0 min 0,000 mm 0,0 UV-I 0 W/m² 0,7 °C 2,2 °C 9,7 km/h (2 Bft)
09.12.2019 18:46 3,3 °C 84 % 1005,7 hPa 0,0 mm 4,6 km/h (1 Bft) S-SW 213 ° 0 min 0,000 mm 0,0 UV-I 0 W/m² 0,9 °C 2,3 °C 6,4 km/h (2 Bft)
09.12.2019 18:47 3,3 °C 84 % 1005,7 hPa 0,0 mm 3,4 km/h (1 Bft) S-SW 213 ° 0 min 0,000 mm 0,0 UV-I 0 W/m² 0,9 °C 3,3 °C 4,8 km/h (1 Bft)
09.12.2019 18:48 3,3 °C 84 % 1005,7 hPa 0,0 mm 3,8 km/h (1 Bft) S-SW 212 ° 0 min 0,000 mm 0,0 UV-I 0 W/m² 0,9 °C 3,3 °C 4,8 km/h (1 Bft)
09.12.2019 18:49 3,3 °C 84 % 1005,7 hPa 0,0 mm 2,3 km/h (1 Bft) S-SW 212 ° 0 min 0,000 mm 0,0 UV-I 0 W/m² 0,9 °C 3,3 °C 3,2 km/h (1 Bft)
09.12.2019 18:50 3,3 °C 84 % 1005,8 hPa 0,0 mm 3,6 km/h (1 Bft) S-SW 213 ° 0 min 0,000 mm 0,0 UV-I 0 W/m² 0,9 °C 3,3 °C 4,8 km/h (1 Bft)
09.12.2019 18:51 3,3 °C 84 % 1005,7 hPa 0,0 mm 3,4 km/h (1 Bft) SW 222 ° 0 min 0,000 mm 0,0 UV-I 0 W/m² 0,9 °C 3,3 °C 6,4 km/h (2 Bft)
09.12.2019 18:52 3,2 °C 84 % 1005,8 hPa 0,0 mm 3,3 km/h (1 Bft) SW 234 ° 0 min 0,000 mm 0,0 UV-I 0 W/m² 0,8 °C 3,2 °C 6,4 km/h (2 Bft)
09.12.2019 18:53 3,2 °C 84 % 1005,8 hPa 0,0 mm 3,8 km/h (1 Bft) SW 234 ° 0 min 0,000 mm 0,0 UV-I 0 W/m² 0,8 °C 3,2 °C 6,4 km/h (2 Bft)
09.12.2019 18:54 3,2 °C 84 % 1005,8 hPa 0,0 mm 2,4 km/h (1 Bft) SW 234 ° 0 min 0,000 mm 0,0 UV-I 0 W/m² 0,8 °C 3,2 °C 4,8 km/h (1 Bft)
09.12.2019 18:55 3,2 °C 84 % 1005,9 hPa 0,0 mm 4,0 km/h (1 Bft) SW 235 ° 0 min 0,000 mm 0,0 UV-I 0 W/m² 0,8 °C 3,2 °C 6,4 km/h (2 Bft)
09.12.2019 18:56 3,2 °C 85 % 1005,9 hPa 0,0 mm 3,2 km/h (1 Bft) SW 236 ° 0 min 0,000 mm 0,0 UV-I 0 W/m² 0,9 °C 3,2 °C 4,8 km/h (1 Bft)
09.12.2019 18:57 3,2 °C 85 % 1005,9 hPa 0,0 mm 2,9 km/h (1 Bft) W-SW 252 ° 0 min 0,000 mm 0,0 UV-I 0 W/m² 0,9 °C 3,2 °C 6,4 km/h (2 Bft)
09.12.2019 18:58 3,2 °C 85 % 1005,9 hPa 0,0 mm 2,8 km/h (1 Bft) W-SW 252 ° 0 min 0,000 mm 0,0 UV-I 0 W/m² 0,9 °C 3,2 °C 4,8 km/h (1 Bft)
09.12.2019 18:59 3,2 °C 85 % 1005,9 hPa 0,0 mm 3,2 km/h (1 Bft) W-SW 252 ° 0 min 0,000 mm 0,0 UV-I 0 W/m² 0,9 °C 3,2 °C 4,8 km/h (1 Bft)
09.12.2019 19:00 3,2 °C 85 % 1005,9 hPa 0,0 mm 2,3 km/h (1 Bft) W-SW 252 ° 0 min 0,000 mm 0,0 UV-I 0 W/m² 0,9 °C 3,2 °C 3,2 km/h (1 Bft)
09.12.2019 19:01 3,2 °C 85 % 1005,9 hPa 0,0 mm 3,1 km/h (1 Bft) W-SW 251 ° 0 min 0,025 mm 0,0 UV-I 0 W/m² 0,9 °C 3,2 °C 4,8 km/h (1 Bft)
09.12.2019 19:02 3,2 °C 85 % 1005,9 hPa 0,0 mm 3,4 km/h (1 Bft) SW 214 ° 0 min 0,000 mm 0,0 UV-I 0 W/m² 0,9 °C 3,2 °C 4,8 km/h (1 Bft)
09.12.2019 19:03 3,2 °C 85 % 1005,9 hPa 0,0 mm 2,9 km/h (1 Bft) SW 232 ° 0 min 0,000 mm 0,0 UV-I 0 W/m² 0,9 °C 3,2 °C 4,8 km/h (1 Bft)
09.12.2019 19:04 3,2 °C 85 % 1005,9 hPa 0,0 mm 3,7 km/h (1 Bft) W-SW 258 ° 0 min 0,000 mm 0,0 UV-I 0 W/m² 0,9 °C 3,2 °C 6,4 km/h (2 Bft)
09.12.2019 19:05 3,2 °C 85 % 1006,0 hPa 0,0 mm 2,8 km/h (1 Bft) W-SW 258 ° 0 min 0,000 mm 0,0 UV-I 0 W/m² 0,9 °C 3,2 °C 4,8 km/h (1 Bft)
09.12.2019 19:06 3,2 °C 85 % 1005,9 hPa 0,0 mm 4,3 km/h (1 Bft) W-SW 258 ° 0 min 0,000 mm 0,0 UV-I 0 W/m² 0,9 °C 3,2 °C 6,4 km/h (2 Bft)
09.12.2019 19:07 3,2 °C 85 % 1006,0 hPa 0,0 mm 3,3 km/h (1 Bft) W-SW 257 ° 0 min 0,000 mm 0,0 UV-I 0 W/m² 0,9 °C 3,2 °C 4,8 km/h (1 Bft)
09.12.2019 19:08 3,2 °C 85 % 1006,1 hPa 0,0 mm 3,0 km/h (1 Bft) W-SW 257 ° 0 min 0,000 mm 0,0 UV-I 0 W/m² 0,9 °C 3,2 °C 6,4 km/h (2 Bft)
09.12.2019 19:09 3,1 °C 85 % 1006,0 hPa 0,0 mm 3,7 km/h (1 Bft) W-SW 256 ° 0 min 0,000 mm 0,0 UV-I 0 W/m² 0,8 °C 3,1 °C 6,4 km/h (2 Bft)
09.12.2019 19:10 3,1 °C 85 % 1006,1 hPa 0,0 mm 4,3 km/h (1 Bft) W-SW 257 ° 0 min 0,000 mm 0,0 UV-I 0 W/m² 0,8 °C 3,1 °C 6,4 km/h (2 Bft)
09.12.2019 19:11 3,2 °C 85 % 1006,1 hPa 0,0 mm 3,1 km/h (1 Bft) W-SW 257 ° 0 min 0,000 mm 0,0 UV-I 0 W/m² 0,9 °C 3,2 °C 4,8 km/h (1 Bft)
09.12.2019 19:12 3,1 °C 86 % 1006,1 hPa 0,0 mm 4,5 km/h (1 Bft) W-SW 256 ° 0 min 0,000 mm 0,0 UV-I 0 W/m² 1,0 °C 3,1 °C 6,4 km/h (2 Bft)
09.12.2019 19:13 3,1 °C 86 % 1006,2 hPa 0,0 mm 3,1 km/h (1 Bft) W-SW 256 ° 0 min 0,000 mm 0,0 UV-I 0 W/m² 1,0 °C 3,1 °C 4,8 km/h (1 Bft)
09.12.2019 19:14 3,1 °C 86 % 1006,1 hPa 0,0 mm 3,1 km/h (1 Bft) W-SW 256 ° 0 min 0,000 mm 0,0 UV-I 0 W/m² 1,0 °C 3,1 °C 3,2 km/h (1 Bft)
09.12.2019 19:15 3,1 °C 86 % 1006,2 hPa 0,0 mm 3,6 km/h (1 Bft) W-SW 256 ° 0 min 0,000 mm 0,0 UV-I 0 W/m² 1,0 °C 3,1 °C 4,8 km/h (1 Bft)
09.12.2019 19:16 3,1 °C 86 % 1006,1 hPa 0,0 mm 3,4 km/h (1 Bft) W-SW 256 ° 0 min 0,000 mm 0,0 UV-I 0 W/m² 1,0 °C 3,1 °C 8,0 km/h (2 Bft)
09.12.2019 19:17 3,1 °C 86 % 1006,1 hPa 0,0 mm 3,8 km/h (1 Bft) W-SW 256 ° 0 min 0,000 mm 0,0 UV-I 0 W/m² 1,0 °C 3,1 °C 6,4 km/h (2 Bft)
09.12.2019 19:18 3,1 °C 86 % 1006,2 hPa 0,0 mm 3,7 km/h (1 Bft) W-SW 256 ° 0 min 0,000 mm 0,0 UV-I 0 W/m² 1,0 °C 3,1 °C 4,8 km/h (1 Bft)
09.12.2019 19:19 3,1 °C 86 % 1006,2 hPa 0,0 mm 4,4 km/h (1 Bft) W 271 ° 0 min 0,000 mm 0,0 UV-I 0 W/m² 1,0 °C 3,1 °C 9,7 km/h (2 Bft)
09.12.2019 19:20 3,1 °C 86 % 1006,2 hPa 0,0 mm 6,0 km/h (2 Bft) W-SW 257 ° 0 min 0,000 mm 0,0 UV-I 0 W/m² 1,0 °C 1,5 °C 9,7 km/h (2 Bft)
09.12.2019 19:21 3,1 °C 86 % 1006,2 hPa 0,0 mm 3,9 km/h (1 Bft) W-SW 257 ° 0 min 0,000 mm 0,0 UV-I 0 W/m² 1,0 °C 3,1 °C 4,8 km/h (1 Bft)
09.12.2019 19:22 3,1 °C 86 % 1006,2 hPa 0,0 mm 2,4 km/h (1 Bft) W-SW 254 ° 0 min 0,000 mm 0,0 UV-I 0 W/m² 1,0 °C 3,1 °C 4,8 km/h (1 Bft)
09.12.2019 19:23 3,1 °C 86 % 1006,2 hPa 0,0 mm 2,2 km/h (1 Bft) W-SW 254 ° 0 min 0,000 mm 0,0 UV-I 0 W/m² 1,0 °C 3,1 °C 3,2 km/h (1 Bft)
09.12.2019 19:24 3,1 °C 86 % 1006,3 hPa 0,0 mm 3,3 km/h (1 Bft) W-SW 254 ° 0 min 0,000 mm 0,0 UV-I 0 W/m² 1,0 °C 3,1 °C 4,8 km/h (1 Bft)
09.12.2019 19:25 3,1 °C 86 % 1006,4 hPa 0,0 mm 4,2 km/h (1 Bft) W-SW 257 ° 0 min 0,000 mm 0,0 UV-I 0 W/m² 1,0 °C 3,1 °C 6,4 km/h (2 Bft)
09.12.2019 19:26 3,1 °C 86 % 1006,4 hPa 0,0 mm 3,4 km/h (1 Bft) W-SW 257 ° 0 min 0,000 mm 0,0 UV-I 0 W/m² 1,0 °C 3,1 °C 4,8 km/h (1 Bft)
09.12.2019 19:27 3,1 °C 86 % 1006,4 hPa 0,0 mm 2,6 km/h (1 Bft) W-SW 256 ° 0 min 0,000 mm 0,0 UV-I 0 W/m² 1,0 °C 3,1 °C 4,8 km/h (1 Bft)
09.12.2019 19:28 3,1 °C 86 % 1006,4 hPa 0,0 mm 4,0 km/h (1 Bft) W-SW 257 ° 0 min 0,000 mm 0,0 UV-I 0 W/m² 1,0 °C 3,1 °C 4,8 km/h (1 Bft)
09.12.2019 19:29 3,1 °C 86 % 1006,5 hPa 0,0 mm 5,5 km/h (1 Bft) SW 227 ° 0 min 0,000 mm 0,0 UV-I 0 W/m² 1,0 °C 1,7 °C 8,0 km/h (2 Bft)
09.12.2019 19:30 3,1 °C 86 % 1006,5 hPa 0,0 mm 6,2 km/h (2 Bft) W-SW 254 ° 0 min 0,000 mm 0,0 UV-I 0 W/m² 1,0 °C 1,5 °C 8,0 km/h (2 Bft)
09.12.2019 19:31 3,1 °C 86 % 1006,6 hPa 0,0 mm 6,7 km/h (2 Bft) W 259 ° 0 min 0,000 mm 0,0 UV-I 0 W/m² 1,0 °C 1,3 °C 11,3 km/h (2 Bft)
09.12.2019 19:32 3,1 °C 87 % 1006,6 hPa 0,0 mm 5,6 km/h (1 Bft) W 281 ° 0 min 0,000 mm 0,0 UV-I 0 W/m² 1,2 °C 1,7 °C 11,3 km/h (2 Bft)
09.12.2019 19:33 3,1 °C 87 % 1006,7 hPa 0,2 mm 5,4 km/h (1 Bft) W 264 ° 0 min 0,000 mm 0,0 UV-I 0 W/m² 1,2 °C 1,8 °C 9,7 km/h (2 Bft)
09.12.2019 19:34 3,1 °C 87 % 1006,7 hPa 0,0 mm 4,2 km/h (1 Bft) W 261 ° 0 min 0,000 mm 0,0 UV-I 0 W/m² 1,2 °C 3,1 °C 6,4 km/h (2 Bft)
09.12.2019 19:35 3,1 °C 87 % 1006,6 hPa 0,0 mm 6,4 km/h (2 Bft) W 267 ° 0 min 0,000 mm 0,0 UV-I 0 W/m² 1,2 °C 1,4 °C 9,7 km/h (2 Bft)
09.12.2019 19:36 3,1 °C 87 % 1006,7 hPa 0,0 mm 5,8 km/h (2 Bft) W 273 ° 0 min 0,000 mm 0,0 UV-I 0 W/m² 1,2 °C 1,6 °C 11,3 km/h (2 Bft)
09.12.2019 19:37 3,1 °C 87 % 1006,7 hPa 0,0 mm 10,4 km/h (2 Bft) W-SW 254 ° 0 min 0,000 mm 0,0 UV-I 0 W/m² 1,2 °C 0,3 °C 16,1 km/h (3 Bft)
09.12.2019 19:38 3,0 °C 87 % 1006,7 hPa 0,0 mm 9,1 km/h (2 Bft) W-SW 254 ° 0 min 0,000 mm 0,0 UV-I 0 W/m² 1,1 °C 0,5 °C 12,9 km/h (3 Bft)
09.12.2019 19:39 3,1 °C 87 % 1006,7 hPa 0,0 mm 9,4 km/h (2 Bft) W-SW 255 ° 0 min 0,000 mm 0,0 UV-I 0 W/m² 1,2 °C 0,5 °C 12,9 km/h (3 Bft)
09.12.2019 19:40 3,0 °C 87 % 1006,8 hPa 0,0 mm 8,5 km/h (2 Bft) W 267 ° 0 min 0,000 mm 0,0 UV-I 0 W/m² 1,1 °C 0,6 °C 11,3 km/h (2 Bft)
09.12.2019 19:41 3,0 °C 87 % 1006,8 hPa 0,0 mm 6,4 km/h (2 Bft) W 261 ° 0 min 0,000 mm 0,0 UV-I 0 W/m² 1,1 °C 1,3 °C 9,7 km/h (2 Bft)
09.12.2019 19:42 3,0 °C 87 % 1006,8 hPa 0,0 mm 7,8 km/h (2 Bft) W 272 ° 0 min 0,000 mm 0,0 UV-I 0 W/m² 1,1 °C 0,8 °C 11,3 km/h (2 Bft)
09.12.2019 19:43 3,0 °C 87 % 1006,9 hPa 0,0 mm 9,5 km/h (2 Bft) W 263 ° 0 min 0,000 mm 0,0 UV-I 0 W/m² 1,1 °C 0,4 °C 12,9 km/h (3 Bft)
09.12.2019 19:44 3,0 °C 87 % 1006,8 hPa 0,0 mm 7,0 km/h (2 Bft) W-NW 293 ° 0 min 0,000 mm 0,0 UV-I 0 W/m² 1,1 °C 1,1 °C 12,9 km/h (3 Bft)
09.12.2019 19:45 3,0 °C 88 % 1006,9 hPa 0,0 mm 7,9 km/h (2 Bft) SW 234 ° 0 min 0,000 mm 0,0 UV-I 0 W/m² 1,2 °C 0,8 °C 11,3 km/h (2 Bft)
09.12.2019 19:46 3,0 °C 88 % 1006,9 hPa 0,0 mm 6,8 km/h (2 Bft) SW 232 ° 0 min 0,000 mm 0,0 UV-I 0 W/m² 1,2 °C 1,1 °C 12,9 km/h (3 Bft)
09.12.2019 19:47 2,9 °C 88 % 1006,9 hPa 0,0 mm 5,4 km/h (1 Bft) W 270 ° 0 min 0,000 mm 0,0 UV-I 0 W/m² 1,1 °C 1,5 °C 8,0 km/h (2 Bft)
09.12.2019 19:48 2,9 °C 88 % 1006,9 hPa 0,0 mm 13,2 km/h (3 Bft) W-SW 254 ° 0 min 0,000 mm 0,0 UV-I 0 W/m² 1,1 °C -0,5 °C 16,1 km/h (3 Bft)
09.12.2019 19:49 2,9 °C 88 % 1006,9 hPa 0,2 mm 14,1 km/h (3 Bft) W 268 ° 0 min 0,000 mm 0,0 UV-I 0 W/m² 1,1 °C -0,7 °C 19,3 km/h (3 Bft)
09.12.2019 19:50 2,9 °C 88 % 1007,0 hPa 0,0 mm 7,2 km/h (2 Bft) W-SW 253 ° 0 min 0,000 mm 0,0 UV-I 0 W/m² 1,1 °C 0,9 °C 11,3 km/h (2 Bft)
09.12.2019 19:51 2,9 °C 88 % 1007,0 hPa 0,0 mm 9,3 km/h (2 Bft) W-SW 257 ° 0 min 0,000 mm 0,0 UV-I 0 W/m² 1,1 °C 0,3 °C 12,9 km/h (3 Bft)
09.12.2019 19:52 2,9 °C 88 % 1007,1 hPa 0,0 mm 10,0 km/h (2 Bft) W-SW 258 ° 0 min 0,000 mm 0,0 UV-I 0 W/m² 1,1 °C 0,1 °C 12,9 km/h (3 Bft)
09.12.2019 19:53 2,8 °C 88 % 1007,1 hPa 0,0 mm 11,4 km/h (2 Bft) W 263 ° 0 min 0,000 mm 0,0 UV-I 0 W/m² 1,0 °C -0,3 °C 17,7 km/h (3 Bft)
09.12.2019 19:54 2,8 °C 88 % 1007,1 hPa 0,0 mm 15,0 km/h (3 Bft) W-NW 303 ° 0 min 0,000 mm 0,0 UV-I 0 W/m² 1,0 °C -1,0 °C 20,9 km/h (4 Bft)
09.12.2019 19:55 2,8 °C 88 % 1007,1 hPa 0,0 mm 10,0 km/h (2 Bft) W-SW 237 ° 0 min 0,000 mm 0,0 UV-I 0 W/m² 1,0 °C 0,0 °C 17,7 km/h (3 Bft)
09.12.2019 19:56 2,8 °C 88 % 1007,2 hPa 0,2 mm 8,8 km/h (2 Bft) W-SW 252 ° 0 min 0,000 mm 0,0 UV-I 0 W/m² 1,0 °C 0,3 °C 12,9 km/h (3 Bft)
09.12.2019 19:57 2,8 °C 88 % 1007,2 hPa 0,0 mm 7,6 km/h (2 Bft) W-SW 255 ° 0 min 0,000 mm 0,0 UV-I 0 W/m² 1,0 °C 0,7 °C 11,3 km/h (2 Bft)
09.12.2019 19:58 2,8 °C 89 % 1007,3 hPa 0,0 mm 11,3 km/h (2 Bft) W-NW 284 ° 0 min 0,000 mm 0,0 UV-I 0 W/m² 1,2 °C -0,3 °C 16,1 km/h (3 Bft)
09.12.2019 19:59 2,8 °C 88 % 1007,2 hPa 0,0 mm 9,4 km/h (2 Bft) W-SW 257 ° 0 min 0,000 mm 0,0 UV-I 0 W/m² 1,0 °C 0,2 °C 14,5 km/h (3 Bft)
09.12.2019 20:00 2,7 °C 89 % 1007,3 hPa 0,0 mm 10,9 km/h (2 Bft) W 261 ° 0 min 0,000 mm 0,0 UV-I 0 W/m² 1,1 °C -0,3 °C 12,9 km/h (3 Bft)
09.12.2019 20:01 2,7 °C 89 % 1007,3 hPa 0,0 mm 13,3 km/h (3 Bft) W-SW 247 ° 0 min 0,000 mm 0,0 UV-I 0 W/m² 1,1 °C -0,8 °C 24,1 km/h (4 Bft)
09.12.2019 20:02 2,7 °C 89 % 1007,3 hPa 0,0 mm 7,4 km/h (2 Bft) W-SW 245 ° 0 min 0,000 mm 0,0 UV-I 0 W/m² 1,1 °C 0,6 °C 12,9 km/h (3 Bft)
09.12.2019 20:03 2,7 °C 89 % 1007,4 hPa 0,0 mm 9,9 km/h (2 Bft) W-SW 252 ° 0 min 0,000 mm 0,0 UV-I 0 W/m² 1,1 °C -0,1 °C 16,1 km/h (3 Bft)
09.12.2019 20:04 2,7 °C 89 % 1007,3 hPa 0,0 mm 9,1 km/h (2 Bft) SW 223 ° 0 min 0,000 mm 0,0 UV-I 0 W/m² 1,1 °C 0,1 °C 14,5 km/h (3 Bft)
09.12.2019 20:05 2,7 °C 89 % 1007,4 hPa 0,0 mm 9,9 km/h (2 Bft) S 188 ° 0 min 0,000 mm 0,0 UV-I 0 W/m² 1,1 °C -0,1 °C 16,1 km/h (3 Bft)
09.12.2019 20:06 2,6 °C 89 % 1007,4 hPa 0,2 mm 4,6 km/h (1 Bft) W 268 ° 0 min 0,000 mm 0,0 UV-I 0 W/m² 1,0 °C 1,5 °C 12,9 km/h (3 Bft)
09.12.2019 20:07 2,6 °C 89 % 1007,5 hPa 0,0 mm 7,8 km/h (2 Bft) W-SW 251 ° 0 min 0,000 mm 0,0 UV-I 0 W/m² 1,0 °C 0,4 °C 14,5 km/h (3 Bft)
09.12.2019 20:08 2,6 °C 89 % 1007,6 hPa 0,0 mm 6,0 km/h (2 Bft) W-SW 256 ° 0 min 0,000 mm 0,0 UV-I 0 W/m² 1,0 °C 1,0 °C 11,3 km/h (2 Bft)
09.12.2019 20:09 2,5 °C 89 % 1007,5 hPa 0,0 mm 4,5 km/h (1 Bft) S-SW 198 ° 0 min 0,000 mm 0,0 UV-I 0 W/m² 0,9 °C 2,5 °C 6,4 km/h (2 Bft)
09.12.2019 20:10 2,4 °C 89 % 1007,6 hPa 0,0 mm 7,8 km/h (2 Bft) S-SW 205 ° 0 min 0,000 mm 0,0 UV-I 0 W/m² 0,8 °C 0,1 °C 11,3 km/h (2 Bft)
09.12.2019 20:11 2,4 °C 89 % 1007,6 hPa 0,0 mm 9,3 km/h (2 Bft) W 259 ° 0 min 0,000 mm 0,0 UV-I 0 W/m² 0,8 °C -0,3 °C 12,9 km/h (3 Bft)
09.12.2019 20:12 2,4 °C 89 % 1007,6 hPa 0,0 mm 6,6 km/h (2 Bft) W 260 ° 0 min 0,000 mm 0,0 UV-I 0 W/m² 0,8 °C 0,5 °C 9,7 km/h (2 Bft)
09.12.2019 20:13 2,4 °C 89 % 1007,6 hPa 0,0 mm 6,5 km/h (2 Bft) SW 218 ° 0 min 0,000 mm 0,0 UV-I 0 W/m² 0,8 °C 0,6 °C 11,3 km/h (2 Bft)
09.12.2019 20:14 2,4 °C 89 % 1007,7 hPa 0,0 mm 4,0 km/h (1 Bft) SW 225 ° 0 min 0,000 mm 0,0 UV-I 0 W/m² 0,8 °C 2,4 °C 6,4 km/h (2 Bft)
09.12.2019 20:15 2,4 °C 90 % 1007,8 hPa 0,2 mm 6,0 km/h (2 Bft) W 261 ° 0 min 0,000 mm 0,0 UV-I 0 W/m² 0,9 °C 0,7 °C 8,0 km/h (2 Bft)
09.12.2019 20:16 2,4 °C 90 % 1007,7 hPa 0,0 mm 7,5 km/h (2 Bft) W 267 ° 0 min 0,000 mm 0,0 UV-I 0 W/m² 0,9 °C 0,2 °C 14,5 km/h (3 Bft)
09.12.2019 20:17 2,4 °C 90 % 1007,7 hPa 0,0 mm 7,1 km/h (2 Bft) W-SW 254 ° 0 min 0,000 mm 0,0 UV-I 0 W/m² 0,9 °C 0,4 °C 11,3 km/h (2 Bft)
09.12.2019 20:18 2,3 °C 90 % 1007,7 hPa 0,0 mm 10,5 km/h (2 Bft) W-SW 257 ° 0 min 0,000 mm 0,0 UV-I 0 W/m² 0,8 °C -0,7 °C 12,9 km/h (3 Bft)
09.12.2019 20:19 2,3 °C 90 % 1007,8 hPa 0,0 mm 9,7 km/h (2 Bft) W 276 ° 0 min 0,000 mm 0,0 UV-I 0 W/m² 0,8 °C -0,5 °C 12,9 km/h (3 Bft)
09.12.2019 20:20 2,3 °C 90 % 1007,8 hPa 0,0 mm 11,3 km/h (2 Bft) W-SW 241 ° 0 min 0,000 mm 0,0 UV-I 0 W/m² 0,8 °C -0,9 °C 17,7 km/h (3 Bft)
09.12.2019 20:21 2,3 °C 90 % 1007,9 hPa 0,0 mm 15,2 km/h (3 Bft) W-NW 284 ° 0 min 0,000 mm 0,0 UV-I 0 W/m² 0,8 °C -1,6 °C 19,3 km/h (3 Bft)
09.12.2019 20:22 2,3 °C 90 % 1007,9 hPa 0,0 mm 10,3 km/h (2 Bft) W 263 ° 0 min 0,000 mm 0,0 UV-I 0 W/m² 0,8 °C -0,6 °C 17,7 km/h (3 Bft)
09.12.2019 20:23 2,3 °C 90 % 1007,9 hPa 0,0 mm 16,1 km/h (3 Bft) W 276 ° 0 min 0,000 mm 0,0 UV-I 0 W/m² 0,8 °C -1,8 °C 22,5 km/h (4 Bft)
09.12.2019 20:24 2,3 °C 90 % 1007,9 hPa 0,0 mm 15,9 km/h (3 Bft) SW 223 ° 0 min 0,000 mm 0,0 UV-I 0 W/m² 0,8 °C -1,7 °C 22,5 km/h (4 Bft)
09.12.2019 20:25 2,3 °C 90 % 1008,0 hPa 0,2 mm 20,7 km/h (4 Bft) W-SW 245 ° 0 min 0,000 mm 0,0 UV-I 0 W/m² 0,8 °C -2,4 °C 24,1 km/h (4 Bft)
09.12.2019 20:26 2,3 °C 90 % 1008,0 hPa 0,0 mm 15,6 km/h (3 Bft) W-SW 251 ° 0 min 0,000 mm 0,0 UV-I 0 W/m² 0,8 °C -1,7 °C 22,5 km/h (4 Bft)
09.12.2019 20:27 2,3 °C 90 % 1008,1 hPa 0,0 mm 10,9 km/h (2 Bft) SW 224 ° 0 min 0,000 mm 0,0 UV-I 0 W/m² 0,8 °C -0,8 °C 17,7 km/h (3 Bft)
09.12.2019 20:28 2,2 °C 90 % 1008,0 hPa 0,0 mm 14,0 km/h (3 Bft) W 275 ° 0 min 0,000 mm 0,0 UV-I 0 W/m² 0,7 °C -1,5 °C 17,7 km/h (3 Bft)
09.12.2019 20:29 2,2 °C 90 % 1008,1 hPa 0,0 mm 13,8 km/h (3 Bft) W-SW 245 ° 0 min 0,000 mm 0,0 UV-I 0 W/m² 0,7 °C -1,5 °C 19,3 km/h (3 Bft)
09.12.2019 20:30 2,2 °C 90 % 1008,1 hPa 0,0 mm 7,2 km/h (2 Bft) W 271 ° 0 min 0,000 mm 0,0 UV-I 0 W/m² 0,7 °C 0,1 °C 12,9 km/h (3 Bft)
09.12.2019 20:31 2,2 °C 90 % 1008,2 hPa 0,0 mm 9,4 km/h (2 Bft) W 266 ° 0 min 0,000 mm 0,0 UV-I 0 W/m² 0,7 °C -0,5 °C 12,9 km/h (3 Bft)
09.12.2019 20:32 2,2 °C 90 % 1008,2 hPa 0,2 mm 11,9 km/h (2 Bft) W 270 ° 0 min 0,000 mm 0,0 UV-I 0 W/m² 0,7 °C -1,1 °C 14,5 km/h (3 Bft)
09.12.2019 20:33 2,2 °C 90 % 1008,3 hPa 0,0 mm 14,3 km/h (3 Bft) W-SW 240 ° 0 min 0,000 mm 0,0 UV-I 0 W/m² 0,7 °C -1,6 °C 19,3 km/h (3 Bft)
09.12.2019 20:34 2,2 °C 90 % 1008,3 hPa 0,0 mm 14,6 km/h (3 Bft) W-SW 243 ° 0 min 0,000 mm 0,0 UV-I 0 W/m² 0,7 °C -1,6 °C 19,3 km/h (3 Bft)
09.12.2019 20:35 2,1 °C 90 % 1008,2 hPa 0,0 mm 13,5 km/h (3 Bft) SW 223 ° 0 min 0,000 mm 0,0 UV-I 0 W/m² 0,6 °C -1,6 °C 24,1 km/h (4 Bft)
09.12.2019 20:36 2,1 °C 90 % 1008,2 hPa 0,0 mm 8,9 km/h (2 Bft) W-SW 242 ° 0 min 0,000 mm 0,0 UV-I 0 W/m² 0,6 °C -0,5 °C 12,9 km/h (3 Bft)
09.12.2019 20:37 2,1 °C 90 % 1008,4 hPa 0,0 mm 13,7 km/h (3 Bft) W-SW 248 ° 0 min 0,000 mm 0,0 UV-I 0 W/m² 0,6 °C -1,6 °C 19,3 km/h (3 Bft)
09.12.2019 20:38 2,1 °C 90 % 1008,4 hPa 0,0 mm 16,6 km/h (3 Bft) W 270 ° 0 min 0,000 mm 0,0 UV-I 0 W/m² 0,6 °C -2,1 °C 20,9 km/h (4 Bft)
09.12.2019 20:39 2,1 °C 91 % 1008,4 hPa 0,0 mm 11,1 km/h (2 Bft) W 265 ° 0 min 0,000 mm 0,0 UV-I 0 W/m² 0,8 °C -1,1 °C 17,7 km/h (3 Bft)
09.12.2019 20:40 2,1 °C 91 % 1008,4 hPa 0,0 mm 16,8 km/h (3 Bft) W 264 ° 0 min 0,000 mm 0,0 UV-I 0 W/m² 0,8 °C -2,1 °C 22,5 km/h (4 Bft)
09.12.2019 20:41 2,1 °C 91 % 1008,4 hPa 0,2 mm 15,4 km/h (3 Bft) W 276 ° 0 min 0,000 mm 0,0 UV-I 0 W/m² 0,8 °C -1,9 °C 24,1 km/h (4 Bft)
09.12.2019 20:42 2,1 °C 91 % 1008,4 hPa 0,0 mm 12,8 km/h (3 Bft) W 266 ° 0 min 0,000 mm 0,0 UV-I 0 W/m² 0,8 °C -1,4 °C 17,7 km/h (3 Bft)
09.12.2019 20:43 2,0 °C 91 % 1008,4 hPa 0,0 mm 13,7 km/h (3 Bft) W 275 ° 0 min 0,000 mm 0,0 UV-I 0 W/m² 0,7 °C -1,7 °C 17,7 km/h (3 Bft)
09.12.2019 20:44 2,1 °C 91 % 1008,5 hPa 0,0 mm 14,1 km/h (3 Bft) W-NW 286 ° 0 min 0,000 mm 0,0 UV-I 0 W/m² 0,8 °C -1,7 °C 19,3 km/h (3 Bft)
09.12.2019 20:45 2,1 °C 91 % 1008,5 hPa 0,0 mm 17,1 km/h (3 Bft) W 273 ° 0 min 0,000 mm 0,0 UV-I 0 W/m² 0,8 °C -2,2 °C 27,4 km/h (4 Bft)
09.12.2019 20:46 2,0 °C 91 % 1008,6 hPa 0,0 mm 14,6 km/h (3 Bft) W-SW 256 ° 0 min 0,000 mm 0,0 UV-I 0 W/m² 0,7 °C -1,9 °C 25,7 km/h (4 Bft)
09.12.2019 20:47 2,1 °C 91 % 1008,6 hPa 0,0 mm 10,0 km/h (2 Bft) W 270 ° 0 min 0,000 mm 0,0 UV-I 0 W/m² 0,8 °C -0,8 °C 16,1 km/h (3 Bft)
09.12.2019 20:48 2,1 °C 91 % 1008,6 hPa 0,2 mm 15,0 km/h (3 Bft) W-SW 258 ° 0 min 0,000 mm 0,0 UV-I 0 W/m² 0,8 °C -1,8 °C 19,3 km/h (3 Bft)
09.12.2019 20:49 2,1 °C 91 % 1008,7 hPa 0,0 mm 18,2 km/h (3 Bft) W 269 ° 0 min 0,000 mm 0,0 UV-I 0 W/m² 0,8 °C -2,3 °C 25,7 km/h (4 Bft)
09.12.2019 20:50 2,0 °C 91 % 1008,8 hPa 0,0 mm 13,4 km/h (3 Bft) W 259 ° 0 min 0,000 mm 0,0 UV-I 0 W/m² 0,7 °C -1,7 °C 22,5 km/h (4 Bft)
09.12.2019 20:51 2,1 °C 91 % 1008,9 hPa 0,0 mm 23,4 km/h (4 Bft) W-NW 287 ° 0 min 0,000 mm 0,0 UV-I 0 W/m² 0,8 °C -3,0 °C 33,8 km/h (5 Bft)
09.12.2019 20:52 2,1 °C 91 % 1008,7 hPa 0,0 mm 16,1 km/h (3 Bft) W 261 ° 0 min 0,000 mm 0,0 UV-I 0 W/m² 0,8 °C -2,0 °C 24,1 km/h (4 Bft)
09.12.2019 20:53 2,1 °C 91 % 1008,8 hPa 0,0 mm 14,6 km/h (3 Bft) W 259 ° 0 min 0,000 mm 0,0 UV-I 0 W/m² 0,8 °C -1,8 °C 20,9 km/h (4 Bft)
09.12.2019 20:54 2,1 °C 91 % 1008,8 hPa 0,0 mm 15,1 km/h (3 Bft) W 277 ° 0 min 0,000 mm 0,0 UV-I 0 W/m² 0,8 °C -1,8 °C 20,9 km/h (4 Bft)
09.12.2019 20:55 2,1 °C 91 % 1008,8 hPa 0,0 mm 13,1 km/h (3 Bft) W-NW 294 ° 0 min 0,000 mm 0,0 UV-I 0 W/m² 0,8 °C -1,5 °C 19,3 km/h (3 Bft)
09.12.2019 20:56 2,1 °C 91 % 1008,9 hPa 0,0 mm 12,6 km/h (3 Bft) W 270 ° 0 min 0,000 mm 0,0 UV-I 0 W/m² 0,8 °C -1,4 °C 19,3 km/h (3 Bft)
09.12.2019 20:57 2,1 °C 91 % 1009,0 hPa 0,0 mm 20,0 km/h (4 Bft) W-SW 256 ° 0 min 0,000 mm 0,0 UV-I 0 W/m² 0,8 °C -2,6 °C 25,7 km/h (4 Bft)
09.12.2019 20:58 2,1 °C 91 % 1009,0 hPa 0,2 mm 12,5 km/h (3 Bft) W 271 ° 0 min 0,000 mm 0,0 UV-I 0 W/m² 0,8 °C -1,4 °C 19,3 km/h (3 Bft)
09.12.2019 20:59 2,1 °C 91 % 1009,0 hPa 0,0 mm 17,0 km/h (3 Bft) W-NW 282 ° 0 min 0,000 mm 0,0 UV-I 0 W/m² 0,8 °C -2,2 °C 24,1 km/h (4 Bft)
09.12.2019 21:00 2,1 °C 91 % 1008,9 hPa 0,0 mm 18,4 km/h (3 Bft) W-SW 254 ° 0 min 0,000 mm 0,0 UV-I 0 W/m² 0,8 °C -2,4 °C 35,4 km/h (5 Bft)
09.12.2019 21:01 2,1 °C 91 % 1009,0 hPa 0,0 mm 15,2 km/h (3 Bft) W-SW 252 ° 0 min 0,000 mm 0,0 UV-I 0 W/m² 0,8 °C -1,9 °C 22,5 km/h (4 Bft)
09.12.2019 21:02 2,1 °C 91 % 1009,0 hPa 0,0 mm 14,4 km/h (3 Bft) SW 235 ° 0 min 0,000 mm 0,0 UV-I 0 W/m² 0,8 °C -1,7 °C 22,5 km/h (4 Bft)
09.12.2019 21:03 2,1 °C 91 % 1009,1 hPa 0,0 mm 14,9 km/h (3 Bft) W-NW 284 ° 0 min 0,000 mm 0,0 UV-I 0 W/m² 0,8 °C -1,8 °C 20,9 km/h (4 Bft)
09.12.2019 21:04 2,1 °C 91 % 1009,1 hPa 0,0 mm 11,1 km/h (2 Bft) N-NW 327 ° 0 min 0,000 mm 0,0 UV-I 0 W/m² 0,8 °C -1,1 °C 17,7 km/h (3 Bft)
09.12.2019 21:05 2,0 °C 91 % 1009,1 hPa 0,0 mm 15,4 km/h (3 Bft) W-NW 283 ° 0 min 0,000 mm 0,0 UV-I 0 W/m² 0,7 °C -2,0 °C 24,1 km/h (4 Bft)
09.12.2019 21:06 2,0 °C 91 % 1009,2 hPa 0,0 mm 16,5 km/h (3 Bft) W-SW 240 ° 0 min 0,000 mm 0,0 UV-I 0 W/m² 0,7 °C -2,2 °C 24,1 km/h (4 Bft)
09.12.2019 21:07 2,0 °C 91 % 1009,2 hPa 0,2 mm 18,5 km/h (3 Bft) SW 221 ° 0 min 0,000 mm 0,0 UV-I 0 W/m² 0,7 °C -2,5 °C 24,1 km/h (4 Bft)
09.12.2019 21:08 2,0 °C 91 % 1009,2 hPa 0,0 mm 18,2 km/h (3 Bft) W 276 ° 0 min 0,000 mm 0,0 UV-I 0 W/m² 0,7 °C -2,5 °C 24,1 km/h (4 Bft)
09.12.2019 21:09 2,0 °C 91 % 1009,3 hPa 0,0 mm 14,3 km/h (3 Bft) SW 225 ° 0 min 0,000 mm 0,0 UV-I 0 W/m² 0,7 °C -1,8 °C 19,3 km/h (3 Bft)
09.12.2019 21:10 2,0 °C 91 % 1009,3 hPa 0,0 mm 10,5 km/h (2 Bft) W-NW 291 ° 0 min 0,000 mm 0,0 UV-I 0 W/m² 0,7 °C -1,0 °C 14,5 km/h (3 Bft)
09.12.2019 21:11 1,9 °C 91 % 1009,4 hPa 0,0 mm 13,1 km/h (3 Bft) W-SW 247 ° 0 min 0,000 mm 0,0 UV-I 0 W/m² 0,6 °C -1,7 °C 20,9 km/h (4 Bft)
09.12.2019 21:12 2,0 °C 91 % 1009,4 hPa 0,0 mm 15,4 km/h (3 Bft) W 271 ° 0 min 0,000 mm 0,0 UV-I 0 W/m² 0,7 °C -2,0 °C 20,9 km/h (4 Bft)
09.12.2019 21:13 1,9 °C 91 % 1009,5 hPa 0,0 mm 19,1 km/h (3 Bft) W 272 ° 0 min 0,000 mm 0,0 UV-I 0 W/m² 0,6 °C -2,7 °C 25,7 km/h (4 Bft)
09.12.2019 21:14 1,9 °C 91 % 1009,4 hPa 0,0 mm 21,0 km/h (4 Bft) W-SW 257 ° 0 min 0,000 mm 0,0 UV-I 0 W/m² 0,6 °C -3,0 °C 29,0 km/h (5 Bft)
09.12.2019 21:15 2,0 °C 91 % 1009,4 hPa 0,0 mm 14,0 km/h (3 Bft) W-SW 258 ° 0 min 0,000 mm 0,0 UV-I 0 W/m² 0,7 °C -1,8 °C 17,7 km/h (3 Bft)
09.12.2019 21:16 1,9 °C 91 % 1009,6 hPa 0,0 mm 18,1 km/h (3 Bft) W 267 ° 0 min 0,000 mm 0,0 UV-I 0 W/m² 0,6 °C -2,6 °C 29,0 km/h (5 Bft)
09.12.2019 21:17 1,9 °C 91 % 1009,6 hPa 0,0 mm 16,0 km/h (3 Bft) W 264 ° 0 min 0,000 mm 0,0 UV-I 0 W/m² 0,6 °C -2,2 °C 20,9 km/h (4 Bft)
09.12.2019 21:18 1,9 °C 91 % 1009,5 hPa 0,2 mm 18,8 km/h (3 Bft) W 273 ° 0 min 0,000 mm 0,0 UV-I 0 W/m² 0,6 °C -2,7 °C 25,7 km/h (4 Bft)
09.12.2019 21:19 1,9 °C 91 % 1009,5 hPa 0,0 mm 18,1 km/h (3 Bft) W 271 ° 0 min 0,000 mm 0,0 UV-I 0 W/m² 0,6 °C -2,6 °C 32,2 km/h (5 Bft)
09.12.2019 21:20 1,9 °C 91 % 1009,6 hPa 0,0 mm 18,1 km/h (3 Bft) W-SW 254 ° 0 min 0,000 mm 0,0 UV-I 0 W/m² 0,6 °C -2,6 °C 25,7 km/h (4 Bft)
09.12.2019 21:21 1,8 °C 91 % 1009,6 hPa 0,0 mm 20,2 km/h (4 Bft) NW 306 ° 0 min 0,000 mm 0,0 UV-I 0 W/m² 0,5 °C -3,0 °C 32,2 km/h (5 Bft)
09.12.2019 21:22 1,8 °C 91 % 1009,7 hPa 0,0 mm 11,2 km/h (2 Bft) W 265 ° 0 min 0,000 mm 0,0 UV-I 0 W/m² 0,5 °C -1,4 °C 24,1 km/h (4 Bft)
09.12.2019 21:23 1,8 °C 91 % 1009,7 hPa 0,0 mm 18,2 km/h (3 Bft) W-NW 285 ° 0 min 0,000 mm 0,0 UV-I 0 W/m² 0,5 °C -2,7 °C 30,6 km/h (5 Bft)
09.12.2019 21:24 1,8 °C 91 % 1009,8 hPa 0,0 mm 17,3 km/h (3 Bft) W-SW 240 ° 0 min 0,000 mm 0,0 UV-I 0 W/m² 0,5 °C -2,6 °C 20,9 km/h (4 Bft)
09.12.2019 21:25 1,8 °C 91 % 1009,8 hPa 0,0 mm 14,8 km/h (3 Bft) W 271 ° 0 min 0,000 mm 0,0 UV-I 0 W/m² 0,5 °C -2,2 °C 24,1 km/h (4 Bft)
09.12.2019 21:26 1,8 °C 91 % 1009,8 hPa 0,0 mm 20,0 km/h (4 Bft) W 280 ° 0 min 0,000 mm 0,0 UV-I 0 W/m² 0,5 °C -3,0 °C 30,6 km/h (5 Bft)
09.12.2019 21:27 1,8 °C 91 % 1009,8 hPa 0,2 mm 20,4 km/h (4 Bft) W-SW 256 ° 0 min 0,000 mm 0,0 UV-I 0 W/m² 0,5 °C -3,0 °C 29,0 km/h (5 Bft)
09.12.2019 21:28 1,8 °C 91 % 1009,8 hPa 0,0 mm 15,8 km/h (3 Bft) W-SW 256 ° 0 min 0,000 mm 0,0 UV-I 0 W/m² 0,5 °C -2,3 °C 22,5 km/h (4 Bft)
09.12.2019 21:29 1,8 °C 91 % 1009,8 hPa 0,0 mm 13,8 km/h (3 Bft) W 261 ° 0 min 0,000 mm 0,0 UV-I 0 W/m² 0,5 °C -2,0 °C 19,3 km/h (3 Bft)
09.12.2019 21:30 1,8 °C 91 % 1009,9 hPa 0,0 mm 11,0 km/h (2 Bft) W 273 ° 0 min 0,000 mm 0,0 UV-I 0 W/m² 0,5 °C -1,4 °C 19,3 km/h (3 Bft)
09.12.2019 21:31 1,8 °C 92 % 1009,9 hPa 0,0 mm 22,7 km/h (4 Bft) W 266 ° 0 min 0,000 mm 0,0 UV-I 0 W/m² 0,6 °C -3,3 °C 37,0 km/h (5 Bft)
09.12.2019 21:32 1,8 °C 92 % 1009,9 hPa 0,0 mm 18,4 km/h (3 Bft) W-NW 290 ° 0 min 0,000 mm 0,0 UV-I 0 W/m² 0,6 °C -2,7 °C 24,1 km/h (4 Bft)
09.12.2019 21:33 1,8 °C 92 % 1010,0 hPa 0,0 mm 17,2 km/h (3 Bft) W-SW 248 ° 0 min 0,000 mm 0,0 UV-I 0 W/m² 0,6 °C -2,6 °C 27,4 km/h (4 Bft)
09.12.2019 21:34 1,8 °C 92 % 1010,0 hPa 0,0 mm 23,0 km/h (4 Bft) W 263 ° 0 min 0,000 mm 0,0 UV-I 0 W/m² 0,6 °C -3,4 °C 32,2 km/h (5 Bft)
09.12.2019 21:35 1,8 °C 92 % 1010,0 hPa 0,0 mm 22,6 km/h (4 Bft) W-NW 285 ° 0 min 0,000 mm 0,0 UV-I 0 W/m² 0,6 °C -3,3 °C 29,0 km/h (5 Bft)
09.12.2019 21:36 1,9 °C 92 % 1010,0 hPa 0,0 mm 22,7 km/h (4 Bft) W-SW 253 ° 0 min 0,000 mm 0,0 UV-I 0 W/m² 0,7 °C -3,2 °C 35,4 km/h (5 Bft)
09.12.2019 21:37 1,9 °C 92 % 1010,1 hPa 0,0 mm 17,2 km/h (3 Bft) W-SW 251 ° 0 min 0,000 mm 0,0 UV-I 0 W/m² 0,7 °C -2,4 °C 24,1 km/h (4 Bft)
09.12.2019 21:38 1,9 °C 92 % 1010,0 hPa 0,0 mm 21,1 km/h (4 Bft) W-SW 252 ° 0 min 0,000 mm 0,0 UV-I 0 W/m² 0,7 °C -3,0 °C 32,2 km/h (5 Bft)
09.12.2019 21:39 1,9 °C 92 % 1010,1 hPa 0,2 mm 20,4 km/h (4 Bft) W 277 ° 0 min 0,000 mm 0,0 UV-I 0 W/m² 0,7 °C -2,9 °C 30,6 km/h (5 Bft)
09.12.2019 21:40 1,9 °C 92 % 1010,1 hPa 0,0 mm 14,6 km/h (3 Bft) W 267 ° 0 min 0,000 mm 0,0 UV-I 0 W/m² 0,7 °C -2,0 °C 19,3 km/h (3 Bft)
09.12.2019 21:41 1,9 °C 92 % 1010,2 hPa 0,0 mm 18,8 km/h (3 Bft) W-SW 252 ° 0 min 0,000 mm 0,0 UV-I 0 W/m² 0,7 °C -2,7 °C 33,8 km/h (5 Bft)
09.12.2019 21:42 1,9 °C 92 % 1010,2 hPa 0,0 mm 17,3 km/h (3 Bft) W-SW 257 ° 0 min 0,000 mm 0,0 UV-I 0 W/m² 0,7 °C -2,5 °C 25,7 km/h (4 Bft)
09.12.2019 21:43 1,9 °C 92 % 1010,3 hPa 0,0 mm 20,6 km/h (4 Bft) W 259 ° 0 min 0,000 mm 0,0 UV-I 0 W/m² 0,7 °C -2,9 °C 35,4 km/h (5 Bft)
09.12.2019 21:44 1,9 °C 92 % 1010,3 hPa 0,0 mm 23,9 km/h (4 Bft) W-SW 257 ° 0 min 0,000 mm 0,0 UV-I 0 W/m² 0,7 °C -3,3 °C 38,6 km/h (5 Bft)
09.12.2019 21:45 1,9 °C 92 % 1010,3 hPa 0,0 mm 15,4 km/h (3 Bft) W-SW 254 ° 0 min 0,000 mm 0,0 UV-I 0 W/m² 0,7 °C -2,1 °C 19,3 km/h (3 Bft)
09.12.2019 21:46 1,9 °C 92 % 1010,3 hPa 0,0 mm 18,5 km/h (3 Bft) W 266 ° 0 min 0,000 mm 0,0 UV-I 0 W/m² 0,7 °C -2,6 °C 32,2 km/h (5 Bft)
09.12.2019 21:47 1,9 °C 92 % 1010,4 hPa 0,0 mm 18,8 km/h (3 Bft) W 261 ° 0 min 0,000 mm 0,0 UV-I 0 W/m² 0,7 °C -2,7 °C 22,5 km/h (4 Bft)
09.12.2019 21:48 1,9 °C 92 % 1010,4 hPa 0,0 mm 17,3 km/h (3 Bft) S-SW 207 ° 0 min 0,000 mm 0,0 UV-I 0 W/m² 0,7 °C -2,5 °C 22,5 km/h (4 Bft)
09.12.2019 21:49 1,9 °C 92 % 1010,4 hPa 0,0 mm 16,5 km/h (3 Bft) SW 228 ° 0 min 0,000 mm 0,0 UV-I 0 W/m² 0,7 °C -2,3 °C 29,0 km/h (5 Bft)
09.12.2019 21:50 1,9 °C 92 % 1010,4 hPa 0,0 mm 23,7 km/h (4 Bft) W 281 ° 0 min 0,000 mm 0,0 UV-I 0 W/m² 0,7 °C -3,3 °C 32,2 km/h (5 Bft)
09.12.2019 21:51 1,9 °C 92 % 1010,5 hPa 0,0 mm 19,4 km/h (3 Bft) W 260 ° 0 min 0,000 mm 0,0 UV-I 0 W/m² 0,7 °C -2,8 °C 27,4 km/h (4 Bft)
09.12.2019 21:52 1,9 °C 92 % 1010,5 hPa 0,0 mm 20,5 km/h (4 Bft) SW 229 ° 0 min 0,000 mm 0,0 UV-I 0 W/m² 0,7 °C -2,9 °C 30,6 km/h (5 Bft)
09.12.2019 21:53 1,9 °C 92 % 1010,6 hPa 0,0 mm 16,5 km/h (3 Bft) W 274 ° 0 min 0,000 mm 0,0 UV-I 0 W/m² 0,7 °C -2,3 °C 25,7 km/h (4 Bft)
09.12.2019 21:54 1,9 °C 92 % 1010,6 hPa 0,0 mm 15,5 km/h (3 Bft) W-SW 242 ° 0 min 0,000 mm 0,0 UV-I 0 W/m² 0,7 °C -2,2 °C 22,5 km/h (4 Bft)
09.12.2019 21:55 1,9 °C 92 % 1010,6 hPa 0,0 mm 16,0 km/h (3 Bft) W-NW 288 ° 0 min 0,000 mm 0,0 UV-I 0 W/m² 0,7 °C -2,2 °C 20,9 km/h (4 Bft)
09.12.2019 21:56 1,9 °C 92 % 1010,7 hPa 0,0 mm 15,5 km/h (3 Bft) W-SW 249 ° 0 min 0,000 mm 0,0 UV-I 0 W/m² 0,7 °C -2,2 °C 25,7 km/h (4 Bft)
09.12.2019 21:57 1,9 °C 92 % 1010,7 hPa 0,0 mm 22,6 km/h (4 Bft) W 267 ° 0 min 0,000 mm 0,0 UV-I 0 W/m² 0,7 °C -3,2 °C 29,0 km/h (5 Bft)
09.12.2019 21:58 1,9 °C 92 % 1010,7 hPa 0,0 mm 16,8 km/h (3 Bft) W 265 ° 0 min 0,000 mm 0,0 UV-I 0 W/m² 0,7 °C -2,4 °C 22,5 km/h (4 Bft)
09.12.2019 21:59 1,9 °C 92 % 1010,8 hPa 0,0 mm 18,2 km/h (3 Bft) W 279 ° 0 min 0,000 mm 0,0 UV-I 0 W/m² 0,7 °C -2,6 °C 24,1 km/h (4 Bft)
09.12.2019 22:00 1,9 °C 92 % 1010,8 hPa 0,2 mm 16,0 km/h (3 Bft) W-NW 289 ° 0 min 0,000 mm 0,0 UV-I 0 W/m² 0,7 °C -2,2 °C 20,9 km/h (4 Bft)
09.12.2019 22:01 1,9 °C 92 % 1010,8 hPa 0,0 mm 20,4 km/h (4 Bft) W-NW 300 ° 0 min 0,000 mm 0,0 UV-I 0 W/m² 0,7 °C -2,9 °C 29,0 km/h (5 Bft)
09.12.2019 22:02 1,9 °C 92 % 1010,7 hPa 0,0 mm 14,6 km/h (3 Bft) W 276 ° 0 min 0,000 mm 0,0 UV-I 0 W/m² 0,7 °C -2,0 °C 25,7 km/h (4 Bft)
09.12.2019 22:03 1,9 °C 92 % 1010,9 hPa 0,0 mm 11,3 km/h (2 Bft) W 270 ° 0 min 0,000 mm 0,0 UV-I 0 W/m² 0,7 °C -1,3 °C 16,1 km/h (3 Bft)
09.12.2019 22:04 1,9 °C 92 % 1010,8 hPa 0,0 mm 24,6 km/h (4 Bft) W-SW 242 ° 0 min 0,000 mm 0,0 UV-I 0 W/m² 0,7 °C -3,4 °C 30,6 km/h (5 Bft)
09.12.2019 22:05 1,9 °C 92 % 1010,8 hPa 0,0 mm 17,8 km/h (3 Bft) NW 315 ° 0 min 0,000 mm 0,0 UV-I 0 W/m² 0,7 °C -2,5 °C 27,4 km/h (4 Bft)
09.12.2019 22:06 1,9 °C 92 % 1010,9 hPa 0,0 mm 19,6 km/h (3 Bft) NW 316 ° 0 min 0,000 mm 0,0 UV-I 0 W/m² 0,7 °C -2,8 °C 32,2 km/h (5 Bft)
09.12.2019 22:07 1,8 °C 92 % 1010,9 hPa 0,0 mm 14,0 km/h (3 Bft) W 271 ° 0 min 0,000 mm 0,0 UV-I 0 W/m² 0,6 °C -2,0 °C 20,9 km/h (4 Bft)
09.12.2019 22:08 1,8 °C 92 % 1011,0 hPa 0,0 mm 14,8 km/h (3 Bft) W-SW 240 ° 0 min 0,000 mm 0,0 UV-I 0 W/m² 0,6 °C -2,2 °C 24,1 km/h (4 Bft)
09.12.2019 22:09 1,9 °C 92 % 1011,0 hPa 0,0 mm 14,0 km/h (3 Bft) W 261 ° 0 min 0,000 mm 0,0 UV-I 0 W/m² 0,7 °C -1,9 °C 17,7 km/h (3 Bft)
09.12.2019 22:10 1,9 °C 92 % 1011,0 hPa 0,0 mm 18,6 km/h (3 Bft) W 260 ° 0 min 0,000 mm 0,0 UV-I 0 W/m² 0,7 °C -2,6 °C 30,6 km/h (5 Bft)
09.12.2019 22:11 1,9 °C 92 % 1011,1 hPa 0,0 mm 13,8 km/h (3 Bft) W-SW 250 ° 0 min 0,000 mm 0,0 UV-I 0 W/m² 0,7 °C -1,9 °C 20,9 km/h (4 Bft)
09.12.2019 22:12 1,9 °C 92 % 1011,2 hPa 0,0 mm 18,5 km/h (3 Bft) SW 236 ° 0 min 0,000 mm 0,0 UV-I 0 W/m² 0,7 °C -2,6 °C 27,4 km/h (4 Bft)
09.12.2019 22:13 1,8 °C 92 % 1011,1 hPa 0,0 mm 16,1 km/h (3 Bft) W 259 ° 0 min 0,000 mm 0,0 UV-I 0 W/m² 0,6 °C -2,4 °C 22,5 km/h (4 Bft)
09.12.2019 22:14 1,8 °C 92 % 1011,2 hPa 0,0 mm 18,3 km/h (3 Bft) W 267 ° 0 min 0,000 mm 0,0 UV-I 0 W/m² 0,6 °C -2,7 °C 24,1 km/h (4 Bft)
09.12.2019 22:15 1,8 °C 92 % 1011,2 hPa 0,0 mm 12,6 km/h (3 Bft) W-SW 246 ° 0 min 0,000 mm 0,0 UV-I 0 W/m² 0,6 °C -1,7 °C 16,1 km/h (3 Bft)
09.12.2019 22:16 1,8 °C 92 % 1011,3 hPa 0,0 mm 10,5 km/h (2 Bft) W-SW 243 ° 0 min 0,000 mm 0,0 UV-I 0 W/m² 0,6 °C -1,3 °C 14,5 km/h (3 Bft)
09.12.2019 22:17 1,9 °C 92 % 1011,3 hPa 0,0 mm 18,5 km/h (3 Bft) W 273 ° 0 min 0,000 mm 0,0 UV-I 0 W/m² 0,7 °C -2,6 °C 27,4 km/h (4 Bft)
09.12.2019 22:18 1,8 °C 92 % 1011,3 hPa 0,0 mm 14,3 km/h (3 Bft) W 269 ° 0 min 0,000 mm 0,0 UV-I 0 W/m² 0,6 °C -2,1 °C 19,3 km/h (3 Bft)
09.12.2019 22:19 1,8 °C 92 % 1011,3 hPa 0,0 mm 16,2 km/h (3 Bft) W-SW 258 ° 0 min 0,000 mm 0,0 UV-I 0 W/m² 0,6 °C -2,4 °C 20,9 km/h (4 Bft)
09.12.2019 22:20 1,8 °C 92 % 1011,4 hPa 0,0 mm 13,7 km/h (3 Bft) SW 236 ° 0 min 0,000 mm 0,0 UV-I 0 W/m² 0,6 °C -2,0 °C 16,1 km/h (3 Bft)
09.12.2019 22:21 1,8 °C 92 % 1011,4 hPa 0,0 mm 9,5 km/h (2 Bft) W-SW 252 ° 0 min 0,000 mm 0,0 UV-I 0 W/m² 0,6 °C -1,0 °C 14,5 km/h (3 Bft)
09.12.2019 22:22 1,8 °C 92 % 1011,5 hPa 0,0 mm 15,8 km/h (3 Bft) SW 234 ° 0 min 0,000 mm 0,0 UV-I 0 W/m² 0,6 °C -2,3 °C 25,7 km/h (4 Bft)
09.12.2019 22:23 1,7 °C 92 % 1011,5 hPa 0,0 mm 19,7 km/h (3 Bft) W 265 ° 0 min 0,000 mm 0,0 UV-I 0 W/m² 0,5 °C -3,1 °C 25,7 km/h (4 Bft)
09.12.2019 22:24 1,7 °C 92 % 1011,4 hPa 0,0 mm 17,4 km/h (3 Bft) S-SW 211 ° 0 min 0,000 mm 0,0 UV-I 0 W/m² 0,5 °C -2,7 °C 25,7 km/h (4 Bft)
09.12.2019 22:25 1,6 °C 92 % 1011,4 hPa 0,0 mm 11,3 km/h (2 Bft) W-SW 250 ° 0 min 0,000 mm 0,0 UV-I 0 W/m² 0,4 °C -1,7 °C 17,7 km/h (3 Bft)
09.12.2019 22:26 1,6 °C 92 % 1011,4 hPa 0,0 mm 10,0 km/h (2 Bft) SW 227 ° 0 min 0,000 mm 0,0 UV-I 0 W/m² 0,4 °C -1,4 °C 14,5 km/h (3 Bft)
09.12.2019 22:27 1,6 °C 92 % 1011,4 hPa 0,0 mm 19,0 km/h (3 Bft) W-SW 249 ° 0 min 0,000 mm 0,0 UV-I 0 W/m² 0,4 °C -3,1 °C 29,0 km/h (5 Bft)
09.12.2019 22:28 1,6 °C 92 % 1011,4 hPa 0,0 mm 15,6 km/h (3 Bft) W 263 ° 0 min 0,000 mm 0,0 UV-I 0 W/m² 0,4 °C -2,5 °C 25,7 km/h (4 Bft)
09.12.2019 22:29 1,6 °C 92 % 1011,5 hPa 0,0 mm 13,2 km/h (3 Bft) SW 229 ° 0 min 0,000 mm 0,0 UV-I 0 W/m² 0,4 °C -2,1 °C 17,7 km/h (3 Bft)
09.12.2019 22:30 1,6 °C 92 % 1011,5 hPa 0,0 mm 11,9 km/h (2 Bft) SW 236 ° 0 min 0,000 mm 0,0 UV-I 0 W/m² 0,4 °C -1,8 °C 16,1 km/h (3 Bft)
09.12.2019 22:31 1,5 °C 92 % 1011,5 hPa 0,2 mm 12,7 km/h (3 Bft) SW 227 ° 0 min 0,000 mm 0,0 UV-I 0 W/m² 0,3 °C -2,1 °C 19,3 km/h (3 Bft)
09.12.2019 22:32 1,6 °C 92 % 1011,5 hPa 0,0 mm 15,0 km/h (3 Bft) S-SW 198 ° 0 min 0,000 mm 0,0 UV-I 0 W/m² 0,4 °C -2,4 °C 25,7 km/h (4 Bft)
09.12.2019 22:33 1,5 °C 92 % 1011,5 hPa 0,0 mm 12,7 km/h (3 Bft) W-SW 258 ° 0 min 0,000 mm 0,0 UV-I 0 W/m² 0,3 °C -2,1 °C 17,7 km/h (3 Bft)
09.12.2019 22:34 1,5 °C 92 % 1011,5 hPa 0,0 mm 11,9 km/h (2 Bft) W 267 ° 0 min 0,000 mm 0,0 UV-I 0 W/m² 0,3 °C -2,0 °C 16,1 km/h (3 Bft)
09.12.2019 22:35 1,5 °C 92 % 1011,6 hPa 0,0 mm 12,9 km/h (3 Bft) W 261 ° 0 min 0,000 mm 0,0 UV-I 0 W/m² 0,3 °C -2,2 °C 16,1 km/h (3 Bft)
09.12.2019 22:36 1,4 °C 92 % 1011,6 hPa 0,0 mm 13,7 km/h (3 Bft) W-SW 250 ° 0 min 0,000 mm 0,0 UV-I 0 W/m² 0,2 °C -2,4 °C 20,9 km/h (4 Bft)
09.12.2019 22:37 1,4 °C 92 % 1011,6 hPa 0,0 mm 12,2 km/h (2 Bft) W 260 ° 0 min 0,000 mm 0,0 UV-I 0 W/m² 0,2 °C -2,1 °C 17,7 km/h (3 Bft)
09.12.2019 22:38 1,4 °C 92 % 1011,6 hPa 0,0 mm 10,5 km/h (2 Bft) W 262 ° 0 min 0,000 mm 0,0 UV-I 0 W/m² 0,2 °C -1,8 °C 17,7 km/h (3 Bft)
09.12.2019 22:39 1,4 °C 92 % 1011,6 hPa 0,0 mm 9,7 km/h (2 Bft) W 273 ° 0 min 0,000 mm 0,0 UV-I 0 W/m² 0,2 °C -1,6 °C 14,5 km/h (3 Bft)
09.12.2019 22:40 1,4 °C 92 % 1011,6 hPa 0,0 mm 13,1 km/h (3 Bft) SW 236 ° 0 min 0,000 mm 0,0 UV-I 0 W/m² 0,2 °C -2,3 °C 19,3 km/h (3 Bft)
09.12.2019 22:41 1,4 °C 92 % 1011,7 hPa 0,0 mm 8,2 km/h (2 Bft) W-SW 250 ° 0 min 0,000 mm 0,0 UV-I 0 W/m² 0,2 °C -1,2 °C 12,9 km/h (3 Bft)
09.12.2019 22:42 1,4 °C 92 % 1011,7 hPa 0,0 mm 5,9 km/h (2 Bft) W 269 ° 0 min 0,000 mm 0,0 UV-I 0 W/m² 0,2 °C -0,4 °C 12,9 km/h (3 Bft)
09.12.2019 22:43 1,4 °C 92 % 1011,8 hPa 0,0 mm 11,7 km/h (2 Bft) W-SW 257 ° 0 min 0,000 mm 0,0 UV-I 0 W/m² 0,2 °C -2,0 °C 16,1 km/h (3 Bft)
09.12.2019 22:44 1,4 °C 92 % 1011,8 hPa 0,0 mm 10,6 km/h (2 Bft) W-SW 257 ° 0 min 0,000 mm 0,0 UV-I 0 W/m² 0,2 °C -1,8 °C 14,5 km/h (3 Bft)
09.12.2019 22:45 1,4 °C 92 % 1011,8 hPa 0,0 mm 8,1 km/h (2 Bft) NW 304 ° 0 min 0,000 mm 0,0 UV-I 0 W/m² 0,2 °C -1,1 °C 14,5 km/h (3 Bft)
09.12.2019 22:46 1,4 °C 92 % 1011,8 hPa 0,2 mm 11,4 km/h (2 Bft) W 271 ° 0 min 0,000 mm 0,0 UV-I 0 W/m² 0,2 °C -2,0 °C 14,5 km/h (3 Bft)
09.12.2019 22:47 1,4 °C 92 % 1011,8 hPa 0,0 mm 7,3 km/h (2 Bft) W-SW 249 ° 0 min 0,000 mm 0,0 UV-I 0 W/m² 0,2 °C -0,9 °C 14,5 km/h (3 Bft)
09.12.2019 22:48 1,3 °C 92 % 1011,8 hPa 0,0 mm 7,0 km/h (2 Bft) SW 217 ° 0 min 0,000 mm 0,0 UV-I 0 W/m² 0,1 °C -0,9 °C 14,5 km/h (3 Bft)
09.12.2019 22:49 1,3 °C 92 % 1011,8 hPa 0,0 mm 5,5 km/h (1 Bft) W-SW 238 ° 0 min 0,000 mm 0,0 UV-I 0 W/m² 0,1 °C -0,3 °C 14,5 km/h (3 Bft)
09.12.2019 22:50 1,3 °C 92 % 1011,9 hPa 0,0 mm 10,3 km/h (2 Bft) W-SW 246 ° 0 min 0,000 mm 0,0 UV-I 0 W/m² 0,1 °C -1,8 °C 14,5 km/h (3 Bft)
09.12.2019 22:51 1,3 °C 92 % 1011,9 hPa 0,0 mm 6,0 km/h (2 Bft) W-SW 252 ° 0 min 0,000 mm 0,0 UV-I 0 W/m² 0,1 °C -0,5 °C 8,0 km/h (2 Bft)
09.12.2019 22:52 1,3 °C 92 % 1011,9 hPa 0,0 mm 7,9 km/h (2 Bft) W-SW 247 ° 0 min 0,000 mm 0,0 UV-I 0 W/m² 0,1 °C -1,2 °C 14,5 km/h (3 Bft)
09.12.2019 22:53 1,3 °C 92 % 1011,9 hPa 0,0 mm 9,0 km/h (2 Bft) W-SW 244 ° 0 min 0,000 mm 0,0 UV-I 0 W/m² 0,1 °C -1,5 °C 12,9 km/h (3 Bft)
09.12.2019 22:54 1,2 °C 92 % 1011,9 hPa 0,0 mm 13,1 km/h (3 Bft) W 267 ° 0 min 0,000 mm 0,0 UV-I 0 W/m² 0,0 °C -2,6 °C 19,3 km/h (3 Bft)
09.12.2019 22:55 1,2 °C 92 % 1011,9 hPa 0,0 mm 7,6 km/h (2 Bft) W-SW 255 ° 0 min 0,000 mm 0,0 UV-I 0 W/m² 0,0 °C -1,2 °C 12,9 km/h (3 Bft)
09.12.2019 22:56 1,2 °C 92 % 1011,9 hPa 0,0 mm 8,9 km/h (2 Bft) W-NW 289 ° 0 min 0,000 mm 0,0 UV-I 0 W/m² 0,0 °C -1,6 °C 16,1 km/h (3 Bft)
09.12.2019 22:57 1,2 °C 92 % 1012,0 hPa 0,0 mm 7,8 km/h (2 Bft) W 268 ° 0 min 0,000 mm 0,0 UV-I 0 W/m² 0,0 °C -1,3 °C 9,7 km/h (2 Bft)
09.12.2019 22:58 1,2 °C 92 % 1012,0 hPa 0,0 mm 7,8 km/h (2 Bft) W-SW 252 ° 0 min 0,000 mm 0,0 UV-I 0 W/m² 0,0 °C -1,3 °C 16,1 km/h (3 Bft)
09.12.2019 22:59 1,2 °C 92 % 1012,0 hPa 0,2 mm 11,1 km/h (2 Bft) W-NW 290 ° 0 min 0,000 mm 0,0 UV-I 0 W/m² 0,0 °C -2,1 °C 16,1 km/h (3 Bft)
09.12.2019 23:00 1,2 °C 92 % 1012,1 hPa 0,0 mm 7,7 km/h (2 Bft) W 280 ° 0 min 0,000 mm 0,0 UV-I 0 W/m² 0,0 °C -1,2 °C 11,3 km/h (2 Bft)
09.12.2019 23:01 1,2 °C 92 % 1012,1 hPa 0,0 mm 6,2 km/h (2 Bft) W 271 ° 0 min 0,000 mm 0,0 UV-I 0 W/m² 0,0 °C -0,7 °C 9,7 km/h (2 Bft)
09.12.2019 23:02 1,2 °C 92 % 1012,1 hPa 0,0 mm 12,1 km/h (2 Bft) W-SW 254 ° 0 min 0,000 mm 0,0 UV-I 0 W/m² 0,0 °C -2,4 °C 16,1 km/h (3 Bft)
09.12.2019 23:03 1,2 °C 92 % 1012,2 hPa 0,0 mm 12,4 km/h (3 Bft) W-NW 287 ° 0 min 0,000 mm 0,0 UV-I 0 W/m² 0,0 °C -2,4 °C 16,1 km/h (3 Bft)
09.12.2019 23:04 1,1 °C 92 % 1012,2 hPa 0,0 mm 11,3 km/h (2 Bft) W 281 ° 0 min 0,000 mm 0,0 UV-I 0 W/m² -0,1 °C -2,3 °C 17,7 km/h (3 Bft)
09.12.2019 23:05 1,1 °C 92 % 1012,2 hPa 0,0 mm 11,3 km/h (2 Bft) W 274 ° 0 min 0,000 mm 0,0 UV-I 0 W/m² -0,1 °C -2,3 °C 16,1 km/h (3 Bft)
09.12.2019 23:06 1,1 °C 92 % 1012,2 hPa 0,0 mm 13,2 km/h (3 Bft) W-SW 254 ° 0 min 0,000 mm 0,0 UV-I 0 W/m² -0,1 °C -2,7 °C 20,9 km/h (4 Bft)
09.12.2019 23:07 1,1 °C 92 % 1012,3 hPa 0,0 mm 6,0 km/h (2 Bft) W 268 ° 0 min 0,000 mm 0,0 UV-I 0 W/m² -0,1 °C -0,8 °C 9,7 km/h (2 Bft)
09.12.2019 23:08 1,1 °C 92 % 1012,3 hPa 0,0 mm 9,1 km/h (2 Bft) W 263 ° 0 min 0,000 mm 0,0 UV-I 0 W/m² -0,1 °C -1,8 °C 14,5 km/h (3 Bft)
09.12.2019 23:09 1,1 °C 92 % 1012,2 hPa 0,0 mm 6,3 km/h (2 Bft) W 259 ° 0 min 0,000 mm 0,0 UV-I 0 W/m² -0,1 °C -0,9 °C 9,7 km/h (2 Bft)
09.12.2019 23:10 1,1 °C 92 % 1012,3 hPa 0,0 mm 5,3 km/h (1 Bft) W-SW 256 ° 0 min 0,000 mm 0,0 UV-I 0 W/m² -0,1 °C -0,5 °C 9,7 km/h (2 Bft)
09.12.2019 23:11 1,1 °C 92 % 1012,3 hPa 0,2 mm 11,3 km/h (2 Bft) W-SW 238 ° 0 min 0,000 mm 0,0 UV-I 0 W/m² -0,1 °C -2,3 °C 14,5 km/h (3 Bft)
09.12.2019 23:12 1,1 °C 92 % 1012,3 hPa 0,0 mm 9,7 km/h (2 Bft) W-SW 252 ° 0 min 0,000 mm 0,0 UV-I 0 W/m² -0,1 °C -1,9 °C 16,1 km/h (3 Bft)
09.12.2019 23:13 1,1 °C 92 % 1012,4 hPa 0,0 mm 13,0 km/h (3 Bft) SW 217 ° 0 min 0,000 mm 0,0 UV-I 0 W/m² -0,1 °C -2,7 °C 17,7 km/h (3 Bft)
09.12.2019 23:14 1,2 °C 92 % 1012,4 hPa 0,0 mm 12,6 km/h (3 Bft) W 263 ° 0 min 0,000 mm 0,0 UV-I 0 W/m² 0,0 °C -2,5 °C 17,7 km/h (3 Bft)
09.12.2019 23:15 1,2 °C 92 % 1012,5 hPa 0,0 mm 8,6 km/h (2 Bft) W-SW 250 ° 0 min 0,000 mm 0,0 UV-I 0 W/m² 0,0 °C -1,5 °C 11,3 km/h (2 Bft)
09.12.2019 23:16 1,1 °C 92 % 1012,5 hPa 0,0 mm 9,3 km/h (2 Bft) W-SW 250 ° 0 min 0,000 mm 0,0 UV-I 0 W/m² -0,1 °C -1,8 °C 12,9 km/h (3 Bft)
09.12.2019 23:17 1,2 °C 92 % 1012,5 hPa 0,0 mm 10,1 km/h (2 Bft) W-NW 297 ° 0 min 0,000 mm 0,0 UV-I 0 W/m² 0,0 °C -1,9 °C 17,7 km/h (3 Bft)
09.12.2019 23:18 1,1 °C 92 % 1012,5 hPa 0,0 mm 8,7 km/h (2 Bft) W 270 ° 0 min 0,000 mm 0,0 UV-I 0 W/m² -0,1 °C -1,7 °C 27,4 km/h (4 Bft)
09.12.2019 23:19 1,2 °C 92 % 1012,5 hPa 0,0 mm 17,4 km/h (3 Bft) SW 219 ° 0 min 0,000 mm 0,0 UV-I 0 W/m² 0,0 °C -3,3 °C 27,4 km/h (4 Bft)
09.12.2019 23:20 1,2 °C 92 % 1012,7 hPa 0,0 mm 10,9 km/h (2 Bft) W-SW 238 ° 0 min 0,000 mm 0,0 UV-I 0 W/m² 0,0 °C -2,1 °C 16,1 km/h (3 Bft)
09.12.2019 23:21 1,2 °C 92 % 1012,7 hPa 0,0 mm 8,5 km/h (2 Bft) W-SW 237 ° 0 min 0,000 mm 0,0 UV-I 0 W/m² 0,0 °C -1,5 °C 11,3 km/h (2 Bft)
09.12.2019 23:22 1,2 °C 92 % 1012,7 hPa 0,0 mm 6,2 km/h (2 Bft) SW 236 ° 0 min 0,000 mm 0,0 UV-I 0 W/m² 0,0 °C -0,7 °C 9,7 km/h (2 Bft)
09.12.2019 23:23 1,2 °C 93 % 1012,7 hPa 0,0 mm 9,0 km/h (2 Bft) W-NW 289 ° 0 min 0,000 mm 0,0 UV-I 0 W/m² 0,2 °C -1,6 °C 17,7 km/h (3 Bft)
09.12.2019 23:24 1,2 °C 93 % 1012,8 hPa 0,0 mm 14,1 km/h (3 Bft) W-SW 257 ° 0 min 0,000 mm 0,0 UV-I 0 W/m² 0,2 °C -2,8 °C 24,1 km/h (4 Bft)
09.12.2019 23:25 1,2 °C 93 % 1012,8 hPa 0,0 mm 5,5 km/h (1 Bft) W-SW 257 ° 0 min 0,000 mm 0,0 UV-I 0 W/m² 0,2 °C -0,4 °C 6,4 km/h (2 Bft)
09.12.2019 23:26 1,2 °C 93 % 1012,8 hPa 0,0 mm 6,1 km/h (2 Bft) W-SW 241 ° 0 min 0,000 mm 0,0 UV-I 0 W/m² 0,2 °C -0,7 °C 11,3 km/h (2 Bft)
09.12.2019 23:27 1,2 °C 93 % 1012,9 hPa 0,0 mm 7,9 km/h (2 Bft) W 259 ° 0 min 0,000 mm 0,0 UV-I 0 W/m² 0,2 °C -1,3 °C 16,1 km/h (3 Bft)
09.12.2019 23:28 1,2 °C 93 % 1012,9 hPa 0,2 mm 10,2 km/h (2 Bft) W-SW 249 ° 0 min 0,000 mm 0,0 UV-I 0 W/m² 0,2 °C -1,9 °C 16,1 km/h (3 Bft)
09.12.2019 23:29 1,2 °C 93 % 1012,9 hPa 0,0 mm 10,9 km/h (2 Bft) W-SW 248 ° 0 min 0,000 mm 0,0 UV-I 0 W/m² 0,2 °C -2,1 °C 14,5 km/h (3 Bft)
09.12.2019 23:30 1,2 °C 93 % 1012,9 hPa 0,0 mm 9,4 km/h (2 Bft) W-SW 244 ° 0 min 0,000 mm 0,0 UV-I 0 W/m² 0,2 °C -1,7 °C 14,5 km/h (3 Bft)
09.12.2019 23:31 1,2 °C 92 % 1012,9 hPa 0,0 mm 8,6 km/h (2 Bft) SW 221 ° 0 min 0,000 mm 0,0 UV-I 0 W/m² 0,0 °C -1,5 °C 12,9 km/h (3 Bft)
09.12.2019 23:32 1,3 °C 92 % 1013,0 hPa 0,0 mm 11,3 km/h (2 Bft) W 261 ° 0 min 0,000 mm 0,0 UV-I 0 W/m² 0,1 °C -2,1 °C 17,7 km/h (3 Bft)
09.12.2019 23:33 1,3 °C 92 % 1012,9 hPa 0,0 mm 12,7 km/h (3 Bft) W 272 ° 0 min 0,000 mm 0,0 UV-I 0 W/m² 0,1 °C -2,4 °C 19,3 km/h (3 Bft)
09.12.2019 23:34 1,3 °C 92 % 1013,0 hPa 0,0 mm 6,4 km/h (2 Bft) W-NW 283 ° 0 min 0,000 mm 0,0 UV-I 0 W/m² 0,1 °C -0,7 °C 11,3 km/h (2 Bft)
09.12.2019 23:35 1,3 °C 93 % 1013,0 hPa 0,0 mm 4,8 km/h (1 Bft) W 275 ° 0 min 0,000 mm 0,0 UV-I 0 W/m² 0,3 °C -0,0 °C 9,7 km/h (2 Bft)
09.12.2019 23:36 1,3 °C 92 % 1013,1 hPa 0,0 mm 10,3 km/h (2 Bft) W-NW 296 ° 0 min 0,000 mm 0,0 UV-I 0 W/m² 0,1 °C -1,8 °C 14,5 km/h (3 Bft)
09.12.2019 23:37 1,3 °C 93 % 1013,0 hPa 0,0 mm 9,0 km/h (2 Bft) W-SW 242 ° 0 min 0,000 mm 0,0 UV-I 0 W/m² 0,3 °C -1,5 °C 14,5 km/h (3 Bft)
09.12.2019 23:38 1,3 °C 93 % 1013,2 hPa 0,0 mm 12,0 km/h (2 Bft) W 263 ° 0 min 0,000 mm 0,0 UV-I 0 W/m² 0,3 °C -2,2 °C 14,5 km/h (3 Bft)
09.12.2019 23:39 1,3 °C 93 % 1013,1 hPa 0,0 mm 10,1 km/h (2 Bft) W-SW 237 ° 0 min 0,000 mm 0,0 UV-I 0 W/m² 0,3 °C -1,8 °C 16,1 km/h (3 Bft)
09.12.2019 23:40 1,3 °C 93 % 1013,2 hPa 0,0 mm 12,0 km/h (2 Bft) W 263 ° 0 min 0,000 mm 0,0 UV-I 0 W/m² 0,3 °C -2,2 °C 16,1 km/h (3 Bft)
09.12.2019 23:41 1,3 °C 93 % 1013,2 hPa 0,0 mm 10,3 km/h (2 Bft) W 261 ° 0 min 0,000 mm 0,0 UV-I 0 W/m² 0,3 °C -1,8 °C 19,3 km/h (3 Bft)
09.12.2019 23:42 1,3 °C 93 % 1013,2 hPa 0,0 mm 14,3 km/h (3 Bft) W 278 ° 0 min 0,000 mm 0,0 UV-I 0 W/m² 0,3 °C -2,7 °C 19,3 km/h (3 Bft)
09.12.2019 23:43 1,3 °C 93 % 1013,2 hPa 0,0 mm 10,1 km/h (2 Bft) W 267 ° 0 min 0,000 mm 0,0 UV-I 0 W/m² 0,3 °C -1,8 °C 14,5 km/h (3 Bft)
09.12.2019 23:44 1,3 °C 93 % 1013,2 hPa 0,2 mm 10,6 km/h (2 Bft) W-SW 237 ° 0 min 0,000 mm 0,0 UV-I 0 W/m² 0,3 °C -1,9 °C 20,9 km/h (4 Bft)
09.12.2019 23:45 1,3 °C 93 % 1013,2 hPa 0,0 mm 9,1 km/h (2 Bft) W-SW 250 ° 0 min 0,000 mm 0,0 UV-I 0 W/m² 0,3 °C -1,5 °C 14,5 km/h (3 Bft)
09.12.2019 23:46 1,3 °C 93 % 1013,2 hPa 0,0 mm 9,5 km/h (2 Bft) W 269 ° 0 min 0,000 mm 0,0 UV-I 0 W/m² 0,3 °C -1,6 °C 16,1 km/h (3 Bft)
09.12.2019 23:47 1,3 °C 93 % 1013,2 hPa 0,0 mm 9,8 km/h (2 Bft) W-SW 248 ° 0 min 0,000 mm 0,0 UV-I 0 W/m² 0,3 °C -1,7 °C 16,1 km/h (3 Bft)
09.12.2019 23:48 1,3 °C 93 % 1013,3 hPa 0,0 mm 8,5 km/h (2 Bft) W 259 ° 0 min 0,000 mm 0,0 UV-I 0 W/m² 0,3 °C -1,4 °C 14,5 km/h (3 Bft)
09.12.2019 23:49 1,4 °C 93 % 1013,3 hPa 0,0 mm 8,7 km/h (2 Bft) W 265 ° 0 min 0,000 mm 0,0 UV-I 0 W/m² 0,4 °C -1,3 °C 12,9 km/h (3 Bft)
09.12.2019 23:50 1,3 °C 93 % 1013,2 hPa 0,0 mm 12,9 km/h (3 Bft) W 270 ° 0 min 0,000 mm 0,0 UV-I 0 W/m² 0,3 °C -2,4 °C 17,7 km/h (3 Bft)
09.12.2019 23:51 1,3 °C 93 % 1013,3 hPa 0,0 mm 9,0 km/h (2 Bft) W-SW 254 ° 0 min 0,000 mm 0,0 UV-I 0 W/m² 0,3 °C -1,5 °C 12,9 km/h (3 Bft)
09.12.2019 23:52 1,4 °C 93 % 1013,4 hPa 0,0 mm 8,6 km/h (2 Bft) W-SW 246 ° 0 min 0,000 mm 0,0 UV-I 0 W/m² 0,4 °C -1,3 °C 16,1 km/h (3 Bft)
09.12.2019 23:53 1,4 °C 93 % 1013,4 hPa 0,0 mm 14,3 km/h (3 Bft) W-SW 256 ° 0 min 0,000 mm 0,0 UV-I 0 W/m² 0,4 °C -2,6 °C 20,9 km/h (4 Bft)
09.12.2019 23:54 1,3 °C 93 % 1013,4 hPa 0,0 mm 12,9 km/h (3 Bft) SW 236 ° 0 min 0,000 mm 0,0 UV-I 0 W/m² 0,3 °C -2,4 °C 22,5 km/h (4 Bft)
09.12.2019 23:55 1,3 °C 93 % 1013,4 hPa 0,0 mm 10,1 km/h (2 Bft) W-SW 253 ° 0 min 0,000 mm 0,0 UV-I 0 W/m² 0,3 °C -1,8 °C 24,1 km/h (4 Bft)
09.12.2019 23:56 1,4 °C 93 % 1013,5 hPa 0,0 mm 8,9 km/h (2 Bft) W-SW 248 ° 0 min 0,000 mm 0,0 UV-I 0 W/m² 0,4 °C -1,4 °C 12,9 km/h (3 Bft)
09.12.2019 23:57 1,4 °C 93 % 1013,4 hPa 0,0 mm 14,2 km/h (3 Bft) W 266 ° 0 min 0,000 mm 0,0 UV-I 0 W/m² 0,4 °C -2,5 °C 20,9 km/h (4 Bft)
09.12.2019 23:58 1,4 °C 93 % 1013,4 hPa 0,0 mm 10,3 km/h (2 Bft) NW 306 ° 0 min 0,000 mm 0,0 UV-I 0 W/m² 0,4 °C -1,7 °C 17,7 km/h (3 Bft)
09.12.2019 23:59 1,4 °C 93 % 1013,4 hPa 0,0 mm 12,3 km/h (3 Bft) W 278 ° 0 min 0,000 mm 0,0 UV-I 0 W/m² 0,4 °C -2,2 °C 17,7 km/h (3 Bft)
_ Min-Zeit 23:18 00:08 14:40 - 14:37 - - - - - - 18:11 22:04 14:37
Minimum _ 1,1 °C 58 % 1002,9 hPa - 0,0 km/h (0 Bft) - - - - - - -0,2 °C -3,4 °C 0,0 km/h (0 Bft)
_ Max-Zeit 02:52 23:59 23:56 23:44 06:44 - - 23:59 16:01 11:53 13:52 04:29 01:10 06:44
Maximum _ 8,7 °C 93 % 1013,5 hPa 0,2 mm 32,1 km/h
W-NW (5 Bft)
- - 0 min 0,051 mm 1,0 UV-I 251 W/m² 4,0 °C 7,6 °C 57,9 km/h
W-SW (7 Bft)
Durchschnitt _ 5,2 °C 75 % 1006,2 hPa #4,4 mm 11,6 km/h (2 Bft) W - #0 min. #0,787 mm 0,8 UV-I 16 W/m² 1,1 °C 2,8 °C 17,5 km/h (3 Bft)